[[{"header":{"parameterUnit":"m.s-1","parameterCategory":1,"la1":31.0,"la2":29.5877,"lo1":-88.7671,"lo2":-86.6584,"dy":0.0162,"dx":0.0185,"nx":115,"ny":88,"refTime":"2024-07-22T00:00:00:Z","depth":0,"parameterNumber":2,"parameterNumberName":"U-component_of_WINDS"},"data":[0.0,0.0,0.0,0.0,0.0,0.0,0.0,0.0,0.0,0.0,0.0,0.0,0.0,0.0,0.0,0.0,0.0,0.0,0.0,0.0,0.0,0.0,0.0,0.0,0.0,0.0,0.0,0.0,0.0,0.0,0.0,0.0,0.0,0.0,0.0,0.0,0.0,0.0,0.0,0.0,0.0,0.0,0.0,0.0,0.0,0.0,0.0,0.0,0.0,0.0,0.0,0.0,0.0,0.0,0.0,0.0,0.0,0.0,0.0,0.0,0.0,0.0,0.0,0.0,0.0,0.0,0.0,0.0,0.0,0.0,0.0,0.0,0.0,0.0,0.0,0.0,0.0,0.0,0.0,0.0,0.0,0.0,0.0,0.0,0.0,0.0,0.0,0.0,0.0,0.0,0.0,0.0,0.0,0.0,0.0,0.0,0.0,0.0,0.0,0.0,0.0,0.0,0.0,0.0,0.0,0.0,0.0,0.0,0.0,0.0,0.0,0.0,0.0,0.0,0.0,0.0,0.0,0.0,0.0,0.0,0.0,0.0,0.0,0.0,0.0,0.0,0.0,0.0,0.0,0.0,0.0,0.0,0.0,0.0,0.0,0.0,0.0,0.0,0.0,0.0,0.0,0.0,0.0,0.0,0.0,0.0,0.0,0.0,0.0,0.0,0.0,0.0,0.0,0.0,0.0,0.0,0.0,0.0,0.0,0.0,0.0,0.0,0.0,0.0,0.0,0.0,0.0,0.0,0.0,0.0,0.0,0.0,0.0,0.0,0.0,0.0,0.0,0.0,0.0,0.0,0.0,0.0,0.0,0.0,0.0,0.0,0.0,0.0,0.0,0.0,0.0,0.0,0.0,0.0,0.0,0.0,0.0,0.0,0.0,0.0,0.0,0.0,0.0,0.0,0.0,0.0,0.0,0.0,0.0,0.0,0.0,0.0,0.0,0.0,0.0,0.0,0.0,0.0,0.0,0.0,0.0,0.0,0.0,0.0,0.0,0.0,0.0,0.0,0.0,0.0,0.0,0.0,0.0,0.0,0.0,0.0,0.0,0.0,0.0,0.0,0.0,0.0,0.0,0.0,0.0,0.0,0.0,0.0,0.0,0.0,0.0,0.0,0.0,0.0,0.0,0.0,0.0,0.0,0.0,0.0,0.0,0.0,0.0,0.0,0.0,0.0,0.0,0.0,0.0,0.0,0.0,0.0,0.0,0.0,0.0,0.0,0.0,0.0,0.0,0.0,0.0,0.0,0.0,0.0,0.0,0.0,0.0,0.0,0.0,0.0,0.0,0.0,0.0,0.0,0.0,0.0,0.0,0.0,0.0,0.0,0.0,0.0,0.0,0.0,0.0,0.0,0.0,0.0,0.0,0.0,0.0,0.0,0.0,0.0,0.0,0.0,0.0,0.0,0.0,0.0,0.0,0.0,0.0,0.0,0.0,0.0,0.0,0.0,0.0,0.0,0.0,0.0,0.0,0.0,0.0,0.0,0.0,0.0,0.0,0.0,0.0,0.0,0.0,0.0,0.0,0.0,0.0,0.0,0.0,0.0,0.0,0.0,0.0,0.0,0.0,0.0,0.0,0.0,0.0,0.0,0.0,0.0,0.0,0.0,0.0,0.0,0.0,0.0,0.0,0.0,0.0,0.0,0.0,0.0,0.0,0.0,0.0,0.0,0.0,0.0,0.0,0.0,0.0,0.0,0.0,0.0,0.0,0.0,0.0,0.0,0.0,0.0,0.0,0.0,0.0,0.0,0.0,0.0,0.0,0.0,0.0,0.0,0.0,0.0,0.0,0.0,0.0,0.0,0.0,0.0,0.0,0.0,0.0,0.0,0.0,0.0,0.0,0.0,0.0,0.0,0.0,0.0,0.0,0.0,0.0,0.0,0.0,0.0,0.0,0.0,0.0,0.0,0.0,0.0,0.0,0.0,0.0,0.0,0.0,0.0,0.0,0.0,0.0,0.0,0.0,0.0,0.0,0.0,0.0,0.0,0.0,0.0,0.0,0.0,0.0,0.0,0.0,0.0,0.0,0.0,0.0,0.0,0.0,0.0,0.0,0.0,0.0,0.0,0.0,0.0,0.0,0.0,0.0,0.0,0.0,0.0,0.0,0.0,0.0,0.0,0.0,0.0,0.0,0.0,0.0,0.0,0.0,0.0,0.0,0.0,0.0,0.0,0.0,0.0,0.0,0.0,0.0,0.0,0.0,0.0,0.0,0.0,0.0,0.0,0.0,0.0,0.0,0.0,0.0,0.0,0.0,0.0,0.0,0.0,0.0,0.0,0.0,0.0,0.0,0.0,0.0,0.0,0.0,0.0,0.0,0.0,0.0,0.0,0.0,0.0,0.0,0.0,0.0,0.0,0.0,0.0,0.0,0.0,0.0,0.0,0.0,0.0,0.0,0.0,0.0,0.0,0.0,0.0,0.0,0.0,0.0,0.0,0.0,0.0,0.0,0.0,0.0,0.0,0.0,0.0,0.0,0.0,0.0,0.0,0.0,0.0,0.0,0.0,0.0,0.0,0.0,0.0,0.0,0.0,0.0,0.0,0.0,0.0,0.0,0.0,0.0,0.0,0.0,0.0,0.0,0.0,0.0,0.0,0.0,0.0,0.0,0.0,0.0,0.0,0.0,0.0,0.0,0.0,0.0,0.0,0.0,0.0,0.0,0.0,0.0,0.0,0.0,0.0,0.0,0.0,0.0,0.0,0.0,0.0,0.0,0.0,0.0,0.0,0.0,0.0,0.0,0.0,0.0,0.0,0.0,0.0,0.0,0.0,0.0,0.0,0.0,0.0,0.0,0.0,0.0,0.0,0.0,0.0,0.0,0.0,0.0,0.0,0.0,0.0,0.0,0.0,0.0,0.0,0.0,0.0,0.0,0.0,0.0,0.0,0.0,0.0,0.0,0.0,0.0,0.0,0.0,0.0,0.0,0.0,0.0,0.0,0.0,0.0,0.0,0.0,0.0,0.0,0.0,0.0,0.0,0.0,0.0,0.0,0.0,0.0,0.0,0.0,0.0,0.0,0.0,0.0,0.0,0.0,0.0,0.0,0.0,0.0,0.0,0.0,0.0,0.0,0.0,0.0,0.0,0.0,0.0,0.0,0.0,0.0,0.0,0.0,0.0,0.0,0.0,0.0,0.0,0.0,0.0,0.0,0.0,0.0,0.0,0.0,0.0,0.0,0.0,0.0,0.0,0.0,0.0,0.0,0.0,0.0,0.0,0.0,0.0,0.0,0.0,0.0,0.0,0.0,0.0,0.0,0.0,0.0,0.0,0.0,0.0,0.0,0.0,0.0,0.0,0.0,0.0,0.0,0.0,0.0,0.0,0.0,0.0,0.0,0.0,0.0,0.0,0.0,0.0,0.0,0.0,0.0,0.0,0.0,0.0,0.0,0.0,0.0,0.0,0.0,0.0,0.0,0.0,0.0,0.0,0.0,0.0,0.0,0.0,0.0,0.0,0.0,0.0,0.0,0.0,0.0,0.0,0.0,0.0,0.0,0.0,0.0,0.0,0.0,0.0,0.0,0.0,0.0,0.0,0.0,0.0,0.0,0.0,0.0,0.0,0.0,0.0,0.0,0.0,0.0,0.0,0.0,0.0,0.0,0.0,0.0,0.0,0.0,0.0,0.0,0.0,0.0,0.0,0.0,0.0,0.0,0.0,0.0,0.0,0.0,0.0,0.0,0.0,0.0,0.0,0.0,0.0,0.0,0.0,0.0,0.0,0.0,0.0,0.0,0.0,0.0,0.0,0.0,0.0,0.0,0.0,0.0,0.0,0.0,0.0,0.0,0.0,0.0,0.0,0.0,0.0,0.0,0.0,0.0,0.0,0.0,0.0,0.0,0.0,0.0,0.0,0.0,0.0,0.0,0.0,0.0,0.0,0.0,0.0,0.0,0.0,0.0,0.0,0.0,0.0,0.0,0.0,0.0,0.0,0.0,0.0,0.0,0.0,0.0,0.0,0.0,0.0,0.0,0.0,0.0,0.0,0.0,0.0,0.0,0.0,0.0,0.0,0.0,0.0,0.0,0.0,0.0,0.0,0.0,0.0,0.0,0.0,0.0,0.0,0.0,0.0,0.0,0.0,0.0,0.0,0.0,0.0,0.0,0.0,0.0,0.0,0.0,0.0,0.0,0.0,0.0,0.0,0.0,0.0,0.0,0.0,0.0,0.0,0.0,0.0,0.0,0.0,0.0,0.0,0.0,0.0,0.0,0.0,0.0,0.0,0.0,0.0,0.0,0.0,0.0,0.0,0.0,0.0,0.0,-2.4551,0.0,0.0,0.0,0.0,0.0,0.0,0.0,0.0,0.0,0.0,0.0,0.0,0.0,0.0,0.0,0.0,0.0,0.0,0.0,0.0,0.0,0.0,0.0,0.0,0.0,0.0,0.0,0.0,0.0,0.0,0.0,0.0,0.0,0.0,0.0,0.0,0.0,0.0,0.0,0.0,0.0,0.0,0.0,0.0,0.0,0.0,0.0,0.0,0.0,0.0,0.0,0.0,0.0,0.0,0.0,0.0,0.0,0.0,0.0,0.0,0.0,0.0,0.0,0.0,0.0,0.0,0.0,0.0,0.0,0.0,0.0,0.0,0.0,0.0,0.0,0.0,0.0,0.0,0.0,0.0,0.0,0.0,0.0,0.0,0.0,0.0,0.0,0.0,0.0,0.0,0.0,0.0,0.0,0.0,0.0,0.0,0.0,0.0,0.0,0.0,0.0,0.0,0.0,0.0,0.0,0.0,0.0,0.0,0.0,0.0,-2.6644,-2.7072,-2.6675,-2.6086,-2.5301,0.0,0.0,0.0,0.0,0.0,0.0,0.0,0.0,0.0,0.0,0.0,0.0,0.0,0.0,0.0,0.0,0.0,0.0,0.0,0.0,0.0,0.0,0.0,0.0,0.0,0.0,0.0,0.0,0.0,0.0,0.0,0.0,0.0,0.0,0.0,0.0,0.0,0.0,0.0,0.0,0.0,0.0,0.0,0.0,0.0,0.0,0.0,0.0,0.0,0.0,0.0,0.0,0.0,0.0,0.0,0.0,0.0,0.0,0.0,0.0,0.0,0.0,0.0,0.0,0.0,0.0,0.0,0.0,0.0,0.0,0.0,0.0,0.0,0.0,0.0,0.0,0.0,0.0,0.0,0.0,0.0,0.0,0.0,0.0,0.0,0.0,0.0,0.0,0.0,0.0,0.0,0.0,0.0,0.0,0.0,0.0,0.0,0.0,0.0,0.0,0.0,0.0,0.0,0.0,0.0,0.0,0.0,0.0,0.0,0.0,0.0,0.0,-2.7603,-2.6817,-2.5818,0.0,0.0,0.0,0.0,0.0,0.0,0.0,0.0,0.0,0.0,0.0,0.0,0.0,0.0,0.0,0.0,0.0,0.0,0.0,0.0,0.0,0.0,0.0,0.0,0.0,0.0,0.0,0.0,0.0,0.0,0.0,0.0,0.0,0.0,0.0,0.0,0.0,0.0,0.0,0.0,0.0,0.0,0.0,0.0,0.0,0.0,0.0,0.0,0.0,0.0,0.0,0.0,0.0,0.0,0.0,0.0,0.0,0.0,0.0,0.0,0.0,0.0,0.0,0.0,0.0,0.0,0.0,0.0,0.0,0.0,0.0,0.0,0.0,0.0,0.0,0.0,0.0,0.0,0.0,0.0,0.0,0.0,0.0,0.0,0.0,0.0,0.0,0.0,0.0,0.0,0.0,0.0,0.0,0.0,0.0,0.0,0.0,0.0,0.0,0.0,0.0,0.0,0.0,0.0,0.0,0.0,0.0,0.0,0.0,0.0,-2.8124,-2.8196,-2.8124,0.0,-2.5824,0.0,0.0,0.0,0.0,0.0,0.0,0.0,0.0,0.0,0.0,0.0,0.0,0.0,0.0,0.0,0.0,0.0,0.0,0.0,0.0,0.0,0.0,0.0,0.0,0.0,0.0,0.0,0.0,0.0,0.0,0.0,0.0,0.0,0.0,0.0,0.0,0.0,0.0,0.0,0.0,0.0,0.0,0.0,0.0,0.0,0.0,0.0,0.0,0.0,0.0,0.0,0.0,0.0,0.0,0.0,0.0,0.0,0.0,0.0,0.0,0.0,0.0,0.0,0.0,0.0,0.0,0.0,0.0,0.0,0.0,0.0,0.0,0.0,0.0,0.0,0.0,0.0,0.0,0.0,0.0,0.0,0.0,0.0,0.0,0.0,0.0,0.0,0.0,0.0,0.0,0.0,0.0,0.0,0.0,0.0,0.0,0.0,0.0,0.0,0.0,0.0,0.0,0.0,0.0,0.0,0.0,0.0,0.0,0.0,0.0,-2.8196,-2.8196,-2.7732,-2.6973,0.0,0.0,0.0,0.0,0.0,0.0,0.0,0.0,0.0,0.0,0.0,0.0,0.0,0.0,0.0,0.0,0.0,0.0,0.0,0.0,0.0,0.0,0.0,0.0,0.0,0.0,0.0,0.0,0.0,0.0,0.0,0.0,0.0,0.0,0.0,0.0,0.0,0.0,0.0,0.0,0.0,0.0,0.0,0.0,0.0,0.0,0.0,0.0,0.0,0.0,0.0,0.0,0.0,0.0,0.0,0.0,0.0,0.0,0.0,0.0,0.0,0.0,0.0,0.0,0.0,0.0,0.0,0.0,0.0,0.0,0.0,0.0,0.0,0.0,0.0,0.0,0.0,0.0,0.0,0.0,0.0,0.0,0.0,0.0,0.0,0.0,0.0,0.0,0.0,0.0,0.0,0.0,0.0,0.0,0.0,0.0,0.0,0.0,0.0,0.0,0.0,0.0,0.0,0.0,0.0,0.0,0.0,0.0,0.0,0.0,-2.8196,-2.8196,-2.8169,-2.725,-2.6483,-2.593,0.0,0.0,0.0,0.0,0.0,0.0,0.0,0.0,0.0,0.0,0.0,0.0,0.0,0.0,0.0,0.0,0.0,0.0,0.0,0.0,0.0,0.0,0.0,0.0,0.0,0.0,0.0,0.0,0.0,0.0,0.0,0.0,0.0,0.0,0.0,0.0,0.0,0.0,0.0,0.0,0.0,0.0,0.0,0.0,0.0,0.0,0.0,0.0,0.0,0.0,0.0,0.0,0.0,0.0,0.0,0.0,0.0,0.0,0.0,0.0,0.0,0.0,0.0,0.0,0.0,0.0,0.0,0.0,0.0,0.0,0.0,0.0,0.0,0.0,0.0,0.0,0.0,0.0,0.0,0.0,0.0,0.0,0.0,0.0,0.0,0.0,0.0,0.0,0.0,0.0,0.0,0.0,0.0,0.0,0.0,0.0,0.0,0.0,0.0,0.0,0.0,0.0,0.0,0.0,0.0,0.0,0.0,0.0,0.0,-2.8196,-2.8237,-2.8264,-2.6846,-2.6045,0.0,0.0,0.0,0.0,0.0,0.0,0.0,0.0,0.0,0.0,0.0,0.0,0.0,0.0,0.0,0.0,0.0,0.0,0.0,0.0,0.0,0.0,0.0,0.0,0.0,0.0,0.0,0.0,0.0,0.0,0.0,0.0,0.0,0.0,0.0,0.0,0.0,0.0,0.0,0.0,0.0,0.0,0.0,0.0,0.0,0.0,0.0,0.0,0.0,0.0,0.0,0.0,0.0,0.0,0.0,0.0,0.0,0.0,0.0,0.0,0.0,0.0,0.0,0.0,0.0,0.0,0.0,0.0,0.0,0.0,0.0,0.0,0.0,0.0,0.0,0.0,0.0,0.0,0.0,0.0,0.0,0.0,0.0,0.0,0.0,0.0,0.0,0.0,0.0,0.0,0.0,0.0,0.0,0.0,0.0,0.0,0.0,0.0,0.0,0.0,0.0,0.0,0.0,0.0,0.0,0.0,0.0,0.0,0.0,-2.8313,-2.8313,-2.8327,-2.8349,-2.732,-2.6579,0.0,0.0,0.0,0.0,0.0,0.0,0.0,0.0,0.0,0.0,0.0,0.0,0.0,0.0,0.0,0.0,0.0,0.0,0.0,0.0,0.0,0.0,0.0,0.0,0.0,0.0,0.0,0.0,0.0,0.0,0.0,0.0,0.0,0.0,0.0,0.0,0.0,0.0,0.0,0.0,0.0,0.0,0.0,0.0,0.0,0.0,0.0,0.0,0.0,0.0,0.0,0.0,0.0,0.0,0.0,0.0,0.0,0.0,0.0,0.0,0.0,0.0,0.0,0.0,0.0,0.0,0.0,0.0,0.0,0.0,0.0,0.0,0.0,0.0,0.0,0.0,0.0,0.0,0.0,0.0,0.0,0.0,0.0,0.0,0.0,0.0,0.0,0.0,0.0,0.0,0.0,0.0,0.0,0.0,0.0,0.0,0.0,0.0,0.0,0.0,0.0,0.0,0.0,0.0,0.0,0.0,0.0,0.0,0.0,-2.8411,0.0,-2.8476,0.0,-2.7469,-2.6718,0.0,0.0,0.0,0.0,0.0,0.0,0.0,0.0,0.0,0.0,0.0,0.0,0.0,0.0,0.0,0.0,0.0,0.0,0.0,0.0,0.0,0.0,0.0,0.0,0.0,0.0,0.0,0.0,0.0,0.0,0.0,0.0,0.0,0.0,0.0,0.0,0.0,0.0,0.0,0.0,0.0,0.0,0.0,0.0,0.0,0.0,0.0,0.0,0.0,0.0,0.0,0.0,0.0,0.0,0.0,0.0,0.0,0.0,0.0,0.0,0.0,0.0,0.0,0.0,0.0,0.0,0.0,0.0,0.0,0.0,0.0,0.0,0.0,0.0,0.0,0.0,0.0,0.0,0.0,0.0,0.0,0.0,0.0,0.0,0.0,0.0,0.0,0.0,0.0,0.0,0.0,0.0,0.0,0.0,0.0,0.0,0.0,0.0,0.0,0.0,0.0,0.0,0.0,0.0,0.0,0.0,0.0,0.0,-2.8471,-2.8406,-2.8523,-2.8592,-2.8469,-2.7174,-2.6406,0.0,0.0,0.0,0.0,0.0,0.0,0.0,0.0,0.0,0.0,0.0,0.0,0.0,0.0,0.0,0.0,0.0,0.0,0.0,0.0,0.0,0.0,0.0,0.0,0.0,0.0,0.0,0.0,0.0,0.0,0.0,0.0,0.0,0.0,0.0,0.0,0.0,0.0,0.0,0.0,0.0,0.0,0.0,0.0,0.0,0.0,0.0,0.0,0.0,0.0,0.0,0.0,0.0,0.0,0.0,0.0,0.0,0.0,0.0,0.0,0.0,0.0,0.0,0.0,0.0,0.0,0.0,0.0,0.0,0.0,0.0,0.0,0.0,0.0,0.0,0.0,0.0,0.0,0.0,0.0,0.0,0.0,0.0,0.0,0.0,0.0,0.0,0.0,0.0,0.0,0.0,0.0,0.0,0.0,0.0,0.0,0.0,0.0,0.0,0.0,0.0,0.0,0.0,0.0,0.0,0.0,0.0,0.0,0.0,-2.8594,-2.8662,-2.8687,-2.8676,-2.7735,-2.6979,0.0,0.0,0.0,0.0,0.0,0.0,0.0,0.0,0.0,0.0,0.0,0.0,0.0,0.0,0.0,0.0,0.0,0.0,0.0,0.0,0.0,0.0,0.0,0.0,0.0,0.0,0.0,0.0,0.0,0.0,0.0,0.0,0.0,0.0,0.0,0.0,0.0,0.0,0.0,0.0,0.0,0.0,0.0,0.0,0.0,0.0,0.0,0.0,0.0,0.0,0.0,0.0,0.0,0.0,0.0,0.0,0.0,0.0,0.0,0.0,0.0,0.0,0.0,0.0,0.0,0.0,0.0,0.0,0.0,0.0,0.0,0.0,0.0,0.0,0.0,0.0,0.0,0.0,0.0,0.0,0.0,0.0,0.0,0.0,0.0,0.0,0.0,0.0,0.0,0.0,0.0,0.0,0.0,0.0,0.0,0.0,0.0,0.0,0.0,0.0,0.0,0.0,0.0,0.0,0.0,0.0,0.0,0.0,0.0,-2.8694,-2.8676,-2.8706,-2.8743,-2.8026,-2.7433,-2.6937,0.0,0.0,0.0,0.0,0.0,0.0,0.0,0.0,0.0,0.0,0.0,0.0,0.0,0.0,0.0,0.0,0.0,0.0,0.0,0.0,0.0,0.0,0.0,0.0,0.0,0.0,0.0,0.0,0.0,0.0,0.0,0.0,0.0,0.0,0.0,0.0,0.0,0.0,0.0,0.0,0.0,0.0,0.0,0.0,0.0,0.0,0.0,0.0,0.0,0.0,0.0,0.0,0.0,0.0,0.0,0.0,0.0,0.0,0.0,0.0,0.0,0.0,0.0,0.0,0.0,0.0,0.0,0.0,0.0,0.0,0.0,0.0,0.0,0.0,0.0,0.0,0.0,0.0,0.0,0.0,0.0,0.0,0.0,0.0,0.0,0.0,0.0,0.0,0.0,0.0,0.0,0.0,0.0,0.0,0.0,0.0,0.0,0.0,0.0,0.0,0.0,0.0,0.0,0.0,0.0,0.0,0.0,0.0,-2.8682,-2.8694,-2.8694,-2.8688,-2.8104,-2.7741,0.0,0.0,0.0,0.0,0.0,0.0,0.0,0.0,0.0,0.0,0.0,0.0,0.0,0.0,0.0,0.0,0.0,0.0,0.0,0.0,0.0,0.0,0.0,0.0,0.0,0.0,0.0,0.0,0.0,0.0,0.0,0.0,0.0,0.0,0.0,0.0,0.0,0.0,0.0,0.0,0.0,0.0,0.0,0.0,0.0,0.0,0.0,0.0,0.0,0.0,0.0,0.0,0.0,0.0,0.0,0.0,0.0,0.0,0.0,0.0,0.0,0.0,0.0,0.0,0.0,0.0,0.0,0.0,0.0,0.0,0.0,0.0,0.0,0.0,0.0,0.0,0.0,0.0,0.0,0.0,0.0,0.0,0.0,0.0,0.0,0.0,0.0,0.0,0.0,0.0,0.0,0.0,0.0,0.0,0.0,0.0,0.0,0.0,0.0,0.0,0.0,0.0,0.0,0.0,0.0,0.0,0.0,0.0,0.0,-2.8625,-2.8625,-2.8693,-2.8773,-2.8657,-2.829,0.0,0.0,0.0,0.0,0.0,0.0,0.0,0.0,0.0,0.0,0.0,0.0,0.0,0.0,0.0,0.0,0.0,0.0,0.0,0.0,0.0,0.0,0.0,0.0,0.0,0.0,0.0,0.0,0.0,0.0,0.0,0.0,0.0,0.0,0.0,0.0,0.0,0.0,0.0,0.0,0.0,0.0,0.0,0.0,0.0,0.0,0.0,0.0,0.0,0.0,0.0,0.0,0.0,0.0,0.0,0.0,0.0,0.0,0.0,0.0,0.0,0.0,0.0,0.0,0.0,0.0,0.0,0.0,0.0,0.0,0.0,0.0,0.0,0.0,0.0,0.0,0.0,0.0,0.0,0.0,0.0,0.0,0.0,0.0,0.0,0.0,0.0,0.0,0.0,0.0,0.0,0.0,0.0,0.0,0.0,0.0,0.0,0.0,0.0,0.0,0.0,0.0,0.0,0.0,0.0,0.0,0.0,0.0,-2.86,-2.86,-2.86,-2.8637,-2.8712,-2.8785,-2.8627,0.0,0.0,0.0,0.0,0.0,0.0,0.0,0.0,0.0,0.0,0.0,0.0,0.0,0.0,0.0,0.0,0.0,0.0,0.0,0.0,0.0,0.0,0.0,0.0,0.0,0.0,0.0,0.0,0.0,0.0,0.0,0.0,0.0,0.0,0.0,0.0,0.0,0.0,0.0,0.0,0.0,0.0,0.0,0.0,0.0,0.0,0.0,0.0,0.0,0.0,0.0,0.0,0.0,0.0,0.0,0.0,0.0,0.0,0.0,0.0,0.0,0.0,0.0,0.0,0.0,0.0,0.0,0.0,0.0,0.0,0.0,0.0,0.0,0.0,0.0,0.0,0.0,0.0,0.0,0.0,0.0,0.0,0.0,0.0,0.0,0.0,0.0,0.0,0.0,0.0,0.0,0.0,0.0,0.0,0.0,0.0,0.0,0.0,0.0,0.0,0.0,0.0,0.0,0.0,0.0,0.0,0.0,0.0,-2.86,-2.86,-2.86,-2.86,-2.86,-2.8657,-2.8773,0.0,0.0,0.0,0.0,0.0,0.0,0.0,0.0,0.0,0.0,0.0,0.0,0.0,0.0,0.0,0.0,0.0,0.0,0.0,0.0,0.0,0.0,0.0,0.0,0.0,0.0,0.0,0.0,0.0,0.0,0.0,0.0,0.0,0.0,0.0,0.0,0.0,0.0,0.0,0.0,0.0,0.0,0.0,0.0,0.0,0.0,0.0,0.0,0.0,0.0,0.0,0.0,0.0,0.0,0.0,0.0,0.0,0.0,0.0,0.0,0.0,0.0,0.0,0.0,0.0,0.0,0.0,0.0,0.0,0.0,0.0,0.0,0.0,0.0,0.0,0.0,0.0,0.0,0.0,0.0,0.0,0.0,0.0,0.0,0.0,0.0,0.0,0.0,0.0,0.0,0.0,0.0,0.0,0.0,0.0,0.0,0.0,0.0,0.0,0.0,0.0,0.0,0.0,0.0,0.0,0.0,0.0,0.0,-2.86,-2.86,-2.86,-2.86,-2.86,-2.8657,-2.8706,0.0,0.0,0.0,0.0,0.0,0.0,0.0,0.0,0.0,0.0,0.0,0.0,0.0,0.0,0.0,0.0,0.0,0.0,0.0,0.0,0.0,0.0,0.0,0.0,0.0,0.0,0.0,0.0,0.0,0.0,0.0,0.0,0.0,0.0,0.0,0.0,0.0,0.0,0.0,0.0,0.0,0.0,0.0,0.0,0.0,0.0,0.0,0.0,-3.1517,0.0,0.0,0.0,0.0,0.0,0.0,0.0,0.0,0.0,0.0,0.0,0.0,0.0,0.0,0.0,0.0,0.0,0.0,0.0,0.0,0.0,0.0,0.0,0.0,0.0,0.0,0.0,0.0,0.0,0.0,0.0,0.0,0.0,0.0,0.0,0.0,0.0,0.0,0.0,0.0,0.0,0.0,0.0,0.0,0.0,0.0,0.0,0.0,0.0,0.0,0.0,0.0,0.0,0.0,0.0,0.0,0.0,0.0,0.0,-2.8941,-2.858,-2.8562,-2.8562,-2.86,-2.8619,-2.8675,0.0,0.0,0.0,0.0,0.0,0.0,0.0,0.0,0.0,0.0,0.0,0.0,0.0,0.0,0.0,0.0,0.0,0.0,0.0,0.0,0.0,0.0,0.0,0.0,0.0,0.0,0.0,0.0,0.0,0.0,0.0,0.0,0.0,0.0,0.0,0.0,0.0,0.0,0.0,0.0,0.0,0.0,0.0,0.0,0.0,0.0,0.0,0.0,0.0,0.0,0.0,0.0,0.0,0.0,0.0,0.0,0.0,0.0,0.0,0.0,0.0,0.0,0.0,0.0,0.0,0.0,0.0,0.0,0.0,0.0,0.0,0.0,0.0,0.0,0.0,0.0,0.0,0.0,0.0,0.0,0.0,0.0,0.0,0.0,0.0,0.0,0.0,0.0,0.0,0.0,0.0,0.0,0.0,0.0,0.0,0.0,0.0,0.0,0.0,0.0,0.0,0.0,0.0,0.0,0.0,0.0,0.0,-2.9125,-2.917,-2.8533,-2.8497,-2.8523,-2.8574,-2.8574,-2.8625,-2.8663,0.0,0.0,0.0,0.0,0.0,0.0,0.0,0.0,0.0,0.0,0.0,0.0,0.0,0.0,0.0,0.0,0.0,0.0,0.0,0.0,0.0,0.0,0.0,0.0,0.0,0.0,0.0,0.0,0.0,0.0,0.0,0.0,0.0,0.0,0.0,0.0,0.0,0.0,-2.6082,-2.803,0.0,0.0,0.0,0.0,0.0,0.0,0.0,0.0,-3.3656,0.0,0.0,0.0,0.0,0.0,0.0,0.0,0.0,0.0,0.0,0.0,0.0,0.0,0.0,0.0,0.0,0.0,0.0,0.0,0.0,0.0,0.0,0.0,0.0,0.0,0.0,0.0,0.0,0.0,0.0,0.0,0.0,0.0,0.0,0.0,0.0,0.0,0.0,0.0,0.0,0.0,0.0,0.0,0.0,0.0,0.0,0.0,0.0,0.0,0.0,0.0,0.0,0.0,0.0,0.0,0.0,-2.8313,-2.8505,-2.855,-2.8437,-2.8406,-2.8445,-2.8523,-2.8505,-2.8543,-2.854,0.0,0.0,0.0,0.0,0.0,0.0,0.0,0.0,0.0,0.0,0.0,0.0,0.0,0.0,0.0,0.0,0.0,0.0,0.0,0.0,0.0,0.0,0.0,0.0,0.0,0.0,0.0,0.0,0.0,0.0,0.0,0.0,0.0,0.0,0.0,0.0,0.0,0.0,0.0,-2.9822,-3.1198,0.0,0.0,0.0,0.0,0.0,0.0,0.0,0.0,-3.5245,0.0,0.0,0.0,0.0,0.0,0.0,0.0,0.0,0.0,0.0,0.0,0.0,0.0,0.0,0.0,0.0,0.0,0.0,0.0,0.0,0.0,0.0,0.0,0.0,0.0,0.0,0.0,0.0,0.0,0.0,0.0,0.0,0.0,0.0,0.0,0.0,0.0,0.0,0.0,0.0,0.0,0.0,0.0,0.0,0.0,0.0,0.0,0.0,0.0,0.0,0.0,0.0,0.0,0.0,0.0,-2.8241,-2.8671,-2.873,-2.8322,-2.8291,-2.8358,-2.8445,-2.8445,-2.8476,0.0,0.0,0.0,0.0,0.0,0.0,0.0,0.0,0.0,0.0,0.0,0.0,0.0,0.0,0.0,0.0,0.0,0.0,0.0,0.0,0.0,0.0,0.0,0.0,0.0,0.0,0.0,0.0,0.0,0.0,0.0,0.0,0.0,0.0,0.0,0.0,0.0,0.0,0.0,0.0,-3.0554,-3.1543,-3.24,0.0,0.0,0.0,0.0,0.0,0.0,-3.5346,-3.5616,0.0,0.0,0.0,0.0,0.0,0.0,0.0,0.0,0.0,0.0,0.0,0.0,0.0,0.0,0.0,0.0,0.0,0.0,0.0,0.0,0.0,0.0,0.0,0.0,0.0,0.0,0.0,0.0,0.0,0.0,0.0,0.0,0.0,0.0,0.0,0.0,0.0,0.0,0.0,0.0,0.0,0.0,0.0,0.0,0.0,0.0,0.0,0.0,0.0,0.0,0.0,0.0,0.0,0.0,0.0,-2.8092,-2.8713,-2.8777,-2.8144,-2.8126,-2.8196,-2.8327,-2.8358,-2.8353,0.0,0.0,0.0,0.0,0.0,0.0,0.0,0.0,0.0,0.0,0.0,0.0,0.0,0.0,0.0,0.0,0.0,0.0,0.0,0.0,0.0,0.0,0.0,0.0,0.0,0.0,0.0,0.0,0.0,0.0,0.0,0.0,0.0,0.0,0.0,0.0,0.0,0.0,0.0,0.0,0.0,-3.2004,-3.2785,-3.4058,0.0,0.0,0.0,0.0,-3.5616,-3.5616,0.0,0.0,0.0,0.0,0.0,0.0,0.0,0.0,0.0,0.0,0.0,0.0,0.0,0.0,0.0,0.0,0.0,0.0,0.0,0.0,0.0,0.0,0.0,0.0,0.0,0.0,0.0,0.0,0.0,0.0,0.0,0.0,0.0,0.0,0.0,0.0,0.0,0.0,0.0,0.0,0.0,0.0,0.0,0.0,0.0,0.0,0.0,0.0,0.0,0.0,0.0,0.0,0.0,0.0,0.0,0.0,-2.785,-2.7953,-2.7935,-2.7847,-2.7864,-2.7936,-2.814,-2.8182,-2.8264,0.0,0.0,0.0,0.0,0.0,0.0,0.0,0.0,0.0,0.0,0.0,0.0,0.0,0.0,0.0,0.0,0.0,0.0,0.0,0.0,0.0,0.0,0.0,0.0,0.0,0.0,0.0,0.0,0.0,0.0,0.0,0.0,0.0,0.0,0.0,0.0,0.0,0.0,0.0,0.0,0.0,-3.3444,-3.4155,-3.4984,-3.5487,0.0,0.0,-3.56,-3.5616,-3.5616,0.0,0.0,0.0,0.0,0.0,0.0,0.0,0.0,0.0,0.0,0.0,0.0,0.0,0.0,0.0,0.0,0.0,0.0,0.0,0.0,0.0,0.0,0.0,0.0,0.0,0.0,0.0,0.0,0.0,0.0,0.0,0.0,0.0,0.0,0.0,0.0,0.0,0.0,0.0,0.0,0.0,0.0,0.0,0.0,0.0,0.0,0.0,0.0,0.0,0.0,0.0,0.0,0.0,0.0,0.0,-2.7751,-2.7689,-2.7689,-2.7689,-2.7689,-2.7689,-2.7566,-2.7299,-2.7734,-2.7812,0.0,0.0,0.0,0.0,0.0,0.0,0.0,0.0,0.0,0.0,0.0,0.0,0.0,0.0,0.0,0.0,0.0,0.0,0.0,0.0,0.0,0.0,0.0,0.0,0.0,0.0,0.0,0.0,0.0,0.0,0.0,0.0,0.0,0.0,0.0,0.0,0.0,0.0,0.0,0.0,0.0,0.0,-3.4387,-3.5148,0.0,0.0,0.0,-3.4979,-3.4979,0.0,0.0,0.0,0.0,0.0,0.0,0.0,0.0,0.0,0.0,0.0,0.0,0.0,0.0,0.0,0.0,0.0,0.0,0.0,0.0,0.0,0.0,0.0,0.0,0.0,0.0,0.0,0.0,0.0,0.0,0.0,0.0,0.0,0.0,0.0,0.0,0.0,0.0,0.0,0.0,0.0,0.0,0.0,0.0,0.0,0.0,0.0,0.0,0.0,0.0,0.0,0.0,0.0,0.0,0.0,0.0,0.0,-2.7511,-2.7478,-2.7463,-2.7463,-2.732,-2.7028,-2.6592,-2.6971,0.0,0.0,0.0,0.0,0.0,0.0,0.0,0.0,0.0,0.0,0.0,0.0,0.0,0.0,0.0,0.0,0.0,0.0,0.0,0.0,0.0,0.0,0.0,0.0,0.0,0.0,0.0,-2.1817,0.0,0.0,0.0,0.0,0.0,0.0,0.0,0.0,0.0,0.0,0.0,0.0,0.0,0.0,-3.366,-3.4409,-3.4979,-3.5312,0.0,0.0,-3.4556,-3.4742,-3.4624,-3.4556,0.0,0.0,0.0,0.0,0.0,0.0,0.0,0.0,0.0,0.0,0.0,0.0,0.0,0.0,0.0,0.0,0.0,0.0,0.0,0.0,0.0,0.0,0.0,0.0,0.0,0.0,0.0,0.0,0.0,0.0,0.0,0.0,0.0,0.0,0.0,0.0,0.0,0.0,0.0,0.0,0.0,0.0,0.0,0.0,0.0,0.0,0.0,0.0,0.0,0.0,0.0,0.0,0.0,0.0,-2.734,-2.7228,-2.7182,-2.7133,-2.7133,-2.6525,-2.6219,-2.6222,-2.574,-2.546,0.0,0.0,0.0,0.0,0.0,0.0,0.0,0.0,0.0,0.0,0.0,0.0,0.0,0.0,0.0,0.0,0.0,0.0,0.0,0.0,0.0,0.0,0.0,0.0,0.0,0.0,0.0,0.0,0.0,0.0,0.0,0.0,0.0,0.0,0.0,0.0,0.0,0.0,0.0,0.0,0.0,-3.3677,-3.4387,-3.4539,-3.4573,0.0,-3.4523,-3.4742,-3.5414,-3.4962,-3.4742,-3.5419,0.0,0.0,0.0,0.0,0.0,0.0,0.0,0.0,0.0,0.0,0.0,0.0,0.0,0.0,0.0,0.0,0.0,0.0,0.0,0.0,0.0,0.0,0.0,0.0,0.0,0.0,0.0,0.0,0.0,0.0,0.0,0.0,0.0,0.0,0.0,0.0,0.0,0.0,0.0,0.0,0.0,0.0,0.0,0.0,0.0,0.0,0.0,0.0,0.0,0.0,0.0,0.0,0.0,-2.7198,-2.7133,-2.7087,-2.7039,-2.7022,-2.6352,-2.5779,-2.5338,-2.5149,-2.4861,0.0,0.0,0.0,0.0,0.0,0.0,0.0,0.0,0.0,0.0,0.0,0.0,0.0,0.0,0.0,0.0,0.0,0.0,0.0,0.0,0.0,0.0,0.0,0.0,0.0,0.0,0.0,0.0,-2.5152,-2.615,-2.7537,0.0,0.0,0.0,0.0,0.0,0.0,0.0,0.0,0.0,0.0,-3.3463,-3.4207,-3.4391,0.0,0.0,-3.4484,-3.459,-3.4895,-3.4692,-3.459,-3.4878,-3.5301,0.0,0.0,0.0,0.0,0.0,0.0,0.0,0.0,0.0,0.0,0.0,0.0,0.0,0.0,0.0,0.0,0.0,0.0,0.0,0.0,0.0,0.0,0.0,0.0,0.0,0.0,0.0,0.0,0.0,0.0,0.0,0.0,0.0,0.0,0.0,0.0,0.0,0.0,0.0,0.0,0.0,0.0,0.0,0.0,0.0,0.0,0.0,0.0,0.0,0.0,0.0,0.0,-2.7071,-2.7038,-2.6957,-2.679,-2.6585,-2.5884,-2.5162,-2.4438,-2.4259,-2.3955,0.0,0.0,0.0,0.0,0.0,0.0,0.0,0.0,0.0,0.0,0.0,0.0,0.0,0.0,0.0,0.0,0.0,0.0,0.0,0.0,0.0,0.0,0.0,0.0,0.0,0.0,0.0,0.0,-2.5812,-2.7063,-2.9111,0.0,0.0,0.0,0.0,0.0,0.0,0.0,0.0,0.0,0.0,-3.3178,-3.3745,-3.3896,-3.4051,-3.4314,-3.4418,-3.4513,-3.4776,-3.4658,-3.4573,-3.4793,0.0,0.0,0.0,0.0,0.0,0.0,0.0,0.0,0.0,0.0,0.0,0.0,0.0,0.0,0.0,0.0,0.0,0.0,0.0,0.0,0.0,0.0,0.0,0.0,0.0,0.0,0.0,-2.4618,0.0,0.0,-2.4557,0.0,0.0,0.0,0.0,0.0,0.0,0.0,0.0,0.0,0.0,0.0,0.0,0.0,0.0,0.0,0.0,0.0,0.0,0.0,0.0,0.0,0.0,-2.6975,-2.6926,-2.6792,-2.6369,-2.5659,-2.4978,-2.4294,-2.3561,-2.29,-2.2552,-2.2535,0.0,0.0,0.0,0.0,0.0,0.0,0.0,0.0,0.0,0.0,0.0,0.0,0.0,0.0,0.0,0.0,0.0,0.0,0.0,0.0,0.0,0.0,0.0,0.0,0.0,0.0,-2.6589,-2.7317,-2.8348,0.0,0.0,0.0,0.0,0.0,0.0,0.0,0.0,0.0,-3.4006,-3.325,-3.2779,-3.2923,-3.2928,-3.33,-3.4152,-3.4314,-3.461,-3.543,-3.4979,-3.4742,0.0,0.0,0.0,0.0,0.0,0.0,0.0,0.0,0.0,0.0,0.0,0.0,0.0,0.0,0.0,0.0,0.0,0.0,0.0,0.0,0.0,0.0,0.0,0.0,0.0,0.0,0.0,-2.7402,-2.6825,0.0,0.0,0.0,0.0,0.0,0.0,0.0,0.0,0.0,0.0,0.0,-2.6293,-2.6703,0.0,0.0,0.0,0.0,0.0,0.0,0.0,0.0,0.0,0.0,0.0,0.0,-2.7453,-2.691,-2.6758,-2.6336,-2.5625,-2.4913,-2.4182,-2.3471,-2.2739,-2.238,-2.238,0.0,0.0,0.0,0.0,0.0,0.0,0.0,0.0,0.0,0.0,0.0,0.0,0.0,0.0,0.0,0.0,0.0,0.0,0.0,0.0,0.0,0.0,0.0,0.0,0.0,-2.7385,0.0,0.0,0.0,0.0,0.0,0.0,0.0,0.0,0.0,0.0,0.0,-3.4393,-3.4233,-3.3521,-3.3086,-3.3202,-3.3386,-3.3667,0.0,0.0,0.0,0.0,0.0,0.0,0.0,0.0,0.0,0.0,0.0,0.0,0.0,0.0,-3.6541,-3.5735,-3.5616,-3.5616,-3.5616,0.0,0.0,0.0,0.0,0.0,0.0,0.0,0.0,0.0,0.0,0.0,0.0,0.0,0.0,-2.883,-2.8319,-2.7741,0.0,0.0,0.0,0.0,0.0,0.0,0.0,0.0,-2.6825,-2.6405,-2.635,-2.6789,-2.721,0.0,-2.8548,-2.9259,0.0,0.0,0.0,0.0,0.0,0.0,0.0,0.0,-2.7777,-2.7233,-2.6877,-2.6218,-2.5253,-2.4745,-2.4034,-2.3054,-2.2547,-2.2313,-2.2313,-2.2313,-2.2313,0.0,0.0,0.0,0.0,0.0,0.0,0.0,0.0,0.0,0.0,0.0,0.0,0.0,0.0,0.0,0.0,0.0,0.0,0.0,0.0,0.0,0.0,0.0,-2.8446,0.0,0.0,0.0,0.0,0.0,0.0,0.0,0.0,0.0,-3.4077,-3.4339,-3.4317,-3.3835,-3.3323,-3.3064,-3.3233,0.0,0.0,0.0,0.0,0.0,0.0,0.0,-3.5616,-3.5616,-3.5819,-3.6282,-3.7043,-3.7584,-3.7669,-3.6931,0.0,0.0,-3.5735,-3.5616,-3.5616,-3.5616,-3.5616,-3.5616,-3.5616,-3.5616,-3.5616,0.0,0.0,0.0,0.0,-3.1512,0.0,0.0,0.0,-2.9492,-2.915,0.0,-2.901,0.0,0.0,0.0,0.0,-2.8622,-2.8477,0.0,0.0,-2.7224,-2.6779,-2.6552,-2.6701,-2.7209,-2.8007,-2.8916,-2.9822,-3.0579,-2.9721,0.0,0.0,0.0,0.0,0.0,0.0,-2.7946,-2.7773,-2.7063,-2.5997,-2.4591,-2.4508,-2.3782,-2.2381,-2.2313,-2.2313,-2.2313,-2.2313,-2.2313,-2.2313,-2.2313,0.0,0.0,0.0,0.0,0.0,0.0,0.0,0.0,0.0,0.0,0.0,0.0,0.0,0.0,0.0,0.0,0.0,0.0,0.0,0.0,-2.8443,0.0,0.0,0.0,0.0,0.0,0.0,0.0,0.0,0.0,0.0,-3.4503,-3.4325,-3.3767,-3.2956,0.0,0.0,0.0,0.0,-3.3646,-3.4736,-3.5128,-3.5314,-3.5469,-3.5549,-3.56,-3.56,0.0,0.0,-3.7686,-3.7797,-3.755,-3.6874,-3.6728,-3.6524,-3.5752,-3.5616,-3.5616,-3.5616,-3.5616,-3.5616,-3.5616,-3.5616,-3.5616,-3.1542,0.0,0.0,0.0,0.0,-3.1149,-3.0951,-3.0774,-3.0649,-3.0296,-2.9786,-2.977,0.0,0.0,0.0,0.0,0.0,0.0,-2.8007,-2.7778,-2.6996,-2.628,-2.5696,-2.6181,-2.6913,-2.7786,-2.8682,-2.963,-3.0518,-3.0359,-3.0395,-3.0624,0.0,0.0,0.0,0.0,-2.8455,-2.7824,-2.708,-2.5997,-2.4525,-2.4508,-2.3797,-2.233,-2.2313,-2.2313,-2.2313,-2.2313,-2.2313,-2.2313,-2.2313,0.0,0.0,0.0,0.0,0.0,0.0,0.0,0.0,0.0,0.0,0.0,0.0,0.0,0.0,0.0,0.0,0.0,0.0,0.0,-2.9106,-2.9336,-2.9772,0.0,0.0,0.0,0.0,0.0,0.0,0.0,0.0,0.0,-3.3832,-3.3745,-3.3553,0.0,0.0,-3.3201,-3.3482,-3.3693,-3.4056,-3.4658,-3.4883,0.0,-3.5331,-3.5452,-3.552,-3.552,-3.5757,-3.6028,-3.6208,-3.6242,-3.6191,-3.5994,-3.596,-3.5836,-3.5667,-3.5616,-3.5616,-3.5616,-3.5616,-3.5616,-3.5616,-3.5616,-3.5616,-3.1308,-3.1445,-3.1346,-3.121,-3.1092,-3.1134,-3.1058,-3.0972,-3.1055,-3.0895,-3.047,-3.0454,-3.0145,-2.9667,-2.9532,0.0,0.0,0.0,-2.8443,-2.7922,-2.7128,-2.6302,-2.558,-2.595,-2.6506,-2.7154,-2.8362,-2.927,-2.9926,-3.0377,-3.0773,-3.1055,0.0,0.0,-3.0575,-2.9593,-2.881,-2.8264,-2.7249,-2.6116,-2.4965,-2.4372,-2.3494,-2.2364,-2.2313,-2.2313,-2.2313,-2.2313,-2.2313,-2.2313,-2.2313,-2.2313,0.0,0.0,0.0,0.0,0.0,0.0,0.0,0.0,0.0,0.0,0.0,-2.6117,-2.6421,0.0,0.0,0.0,-2.8718,-2.9242,-2.9546,-2.9822,0.0,0.0,0.0,0.0,0.0,0.0,0.0,-3.3299,-3.3283,-3.321,-3.3245,-3.3187,-3.3134,-3.315,-3.3139,-3.3229,-3.3503,0.0,-3.4,-3.4399,-3.4667,-3.4899,-3.5111,-3.5354,-3.5514,-3.556,-3.5554,-3.56,-3.5616,-3.5616,-3.5616,-3.5616,-3.5616,-3.5616,-3.5616,-3.5616,-3.5616,-3.5616,-3.5616,-3.5616,-3.5616,-3.5616,-3.5616,-3.119,-3.1154,-3.1072,-3.0972,-3.0912,-3.0912,-3.0892,-3.0892,-3.0955,-3.1012,-3.1012,-3.1012,-3.0975,-3.0935,-3.0613,0.0,-3.0167,-2.9897,-2.9177,-2.8182,-2.7438,-2.6598,-2.5733,-2.5836,-2.6007,-2.6229,-2.7835,-2.8739,-2.9069,-2.9947,-3.0563,-3.0871,-3.0935,-3.1035,-3.1106,-2.9738,-2.8993,-2.8958,-2.7469,-2.6319,-2.5576,-2.4206,-2.3156,-2.2516,-2.2415,-2.2398,-2.2381,-2.233,-2.2313,-2.2381,-2.2398,-2.2415,-2.2479,0.0,0.0,0.0,0.0,0.0,0.0,0.0,0.0,0.0,0.0,0.0,0.0,0.0,0.0,0.0,-2.9276,0.0,-2.9439,-2.9968,0.0,0.0,0.0,-3.1433,-3.266,-3.2232,-3.2265,-3.3348,0.0,0.0,-3.2674,-3.2548,-3.2493,-3.2687,-3.2761,-3.2884,-3.3098,-3.3192,-3.3473,-3.3775,-3.4211,-3.4534,-3.4561,-3.5004,-3.538,-3.5538,-3.56,-3.56,-3.5616,-3.5616,-3.5616,-3.5616,-3.5616,-3.5616,-3.5616,-3.5616,-3.5616,-3.5616,-3.5616,-3.5616,-3.5616,-3.5616,-3.5616,-3.1151,-3.1052,-3.1015,-3.0955,-3.0912,-3.0912,-3.0834,-3.0753,-3.0915,-3.1012,-3.1012,-3.1012,-3.0855,-3.0593,-3.038,-3.013,-2.9892,-2.9665,-2.8786,-2.7406,-2.7087,-2.6256,-2.5069,-2.5058,-2.5467,-2.6197,-2.6675,-2.7607,-2.8967,-2.9288,-2.9861,-3.0716,-3.0773,-3.0915,-3.114,-2.9738,-2.8956,-2.8864,-2.7364,-2.6219,-2.538,-2.4588,-2.408,-2.3912,-2.3397,-2.311,-2.3066,-2.2572,-2.2538,-2.3017,-2.311,-2.3408,-2.3949,-2.3983,0.0,0.0,0.0,0.0,0.0,0.0,0.0,0.0,0.0,-2.7463,-2.7558,0.0,-2.916,0.0,-2.9786,-2.9927,-2.9572,-2.9674,0.0,0.0,-2.9794,-3.0078,-3.0918,-3.0696,-3.0789,-3.1546,-3.1287,-3.1052,-3.112,-3.1036,-3.0931,-3.0984,-3.1537,-3.1846,-3.1614,-3.1656,-3.1865,-3.2305,-3.2562,-3.2749,-3.3133,-3.3889,-3.4712,-3.543,-3.5571,-3.56,-3.56,-3.5616,-3.5616,-3.5616,-3.5616,-3.5616,-3.5616,-3.5616,-3.5616,-3.5616,-3.5616,-3.5616,-3.5616,-3.5616,-3.56,-3.1151,-3.1092,-3.1015,-3.0975,-3.0935,-3.0851,-3.0749,-3.0613,-3.0855,-3.0915,-3.0871,-3.0855,-3.0712,-3.0443,-3.0274,-3.0038,-2.9738,-2.957,-2.8596,-2.704,-2.6916,-2.6157,-2.4833,-2.4818,-2.5091,-2.5691,-2.6082,-2.7005,-2.835,-2.8878,-2.9613,-3.0593,-3.0671,-3.0794,-3.0942,-2.9852,-2.9128,-2.8755,-2.731,-2.6151,-2.533,-2.4978,-2.4658,-2.4322,-2.3933,-2.3747,-2.3701,-2.3345,-2.3311,-2.3684,-2.3747,-2.3978,-2.4429,-2.4447,-2.4613,0.0,0.0,0.0,0.0,0.0,0.0,0.0,0.0,0.0,0.0,0.0,-2.944,-2.9625,-2.9789,-2.976,-2.9425,-2.938,-2.9462,-2.9704,-2.965,-2.9864,-3.0511,-3.016,-3.0141,-3.0738,-3.0441,-3.0237,-3.0469,-3.0438,-3.0279,-3.0002,-3.0341,-3.0696,-3.0898,-3.0977,-3.1176,-3.163,-3.1805,-3.2064,-3.25,-3.3223,-3.3879,-3.4415,-3.457,-3.4619,-3.4619,-3.4895,-3.5092,-3.5131,-3.5363,-3.56,-3.5616,-3.5616,-3.5616,-3.5566,-3.5329,-3.5245,-3.5532,-3.5616,-3.5532,-3.121,-3.119,-3.0991,-3.0881,-3.0841,-3.058,-3.0418,-3.0419,-3.0543,-3.055,-3.0446,-3.0529,-3.0419,-3.0243,-3.022,-2.9995,-2.9697,-2.9563,-2.8621,-2.7095,-2.6926,-2.6204,-2.4943,-2.4849,-2.4882,-2.5037,-2.5807,-2.6687,-2.7614,-2.8502,-2.9453,-3.0431,-3.0589,-3.063,-3.0597,-2.9962,-2.9235,-2.8507,-2.7135,-2.6098,-2.5397,-2.538,-2.508,-2.4462,-2.4345,-2.4295,-2.4312,-2.4211,-2.4195,-2.4279,-2.4311,-2.4426,-2.4623,-2.4656,-2.4974,0.0,-2.5663,0.0,0.0,0.0,0.0,0.0,0.0,0.0,0.0,-2.9173,-2.9306,-2.9611,-2.9525,-2.935,-2.9052,-2.9029,-2.9234,-2.9735,-2.9789,-2.9976,-3.0407,-2.9986,-2.9797,-3.0252,-2.9803,-2.9629,-3.0027,-3.014,-2.9894,-2.9396,-2.9344,-2.9654,-3.032,-3.0489,-3.0656,-3.1254,-3.1477,-3.1681,-3.2292,-3.274,-3.3041,-3.3249,-3.3457,-3.3389,-3.3474,-3.3964,-3.4353,-3.4421,-3.4844,-3.5228,-3.5312,-3.5278,-3.5278,-3.5177,-3.4759,-3.4607,-3.5177,-3.5261,-3.5092,-3.1252,-3.114,-3.0528,-3.0217,-3.0056,-2.9429,-2.9434,-2.9805,-2.9389,-2.9156,-2.9111,-2.9602,-2.9632,-2.9411,-2.9948,-3.0033,-2.9697,-2.9563,-2.8936,-2.7851,-2.719,-2.6476,-2.5691,-2.5069,-2.4882,-2.5021,-2.5345,-2.6222,-2.7598,-2.7952,-2.8854,-3.022,-3.0274,-3.0295,-3.0246,0.0,0.0,0.0,-2.6471,-2.5959,-2.5793,-2.5848,-2.58,-2.5635,-2.5126,0.0,-2.4761,-2.4249,-2.4216,-2.4727,-2.4929,0.0,0.0,0.0,0.0,0.0,0.0,0.0,0.0,0.0,0.0,0.0,-2.7595,-2.8009,-2.8865,-2.9345,-2.9492,-2.922,-2.919,-2.9052,-2.8716,-2.8692,-2.8707,-2.8687,-2.8702,-2.874,-2.8839,-2.8746,-2.8715,-2.8774,-2.8722,-2.8667,-2.8812,-2.8781,-2.8765,-2.8673,-2.8693,-2.8861,-2.916,-2.9247,-2.9375,-2.9826,-3.0332,-3.0795,-3.1467,-3.1921,-3.2416,-3.294,-3.3275,-3.3334,-3.3339,-3.3457,-3.3609,-3.3609,-3.3744,-3.3863,-3.3863,-3.3812,-3.3914,-3.3829,-3.3728,-3.3829,-3.4523,-3.4235,-3.3778,-3.1051,-3.0632,-3.026,-2.9869,0.0,-2.8613,-2.8476,-2.8757,-2.8792,-2.8736,-2.873,-2.8951,-2.8887,-2.8677,-2.9358,-2.9517,-2.927,-2.9492,-2.909,-2.8167,-2.7389,-2.6651,-2.591,-2.5217,-2.4926,-2.5005,-2.5217,-2.5878,-2.6953,-2.7587,-2.8478,-2.9597,-3.002,-2.9966,-2.9484,-2.8297,-2.7425,-2.6904,-2.6185,-2.5791,-2.5791,-2.5828,-2.5864,-2.5848,-2.5488,0.0,0.0,0.0,0.0,0.0,0.0,0.0,0.0,0.0,0.0,-2.6485,-2.6434,-2.6363,-2.6203,-2.6026,-2.6466,-2.7612,-2.8184,-2.8705,-2.9145,-2.9383,-2.9373,-2.9013,-2.8975,-2.8811,-2.8541,-2.8493,-2.8468,-2.8411,-2.8411,-2.8411,-2.8411,-2.8411,-2.8411,-2.8411,-2.8411,-2.8411,-2.8411,-2.8411,-2.8411,-2.8411,-2.8517,-2.8645,-2.8771,-2.8826,-2.9021,-2.945,-2.9902,-3.032,-3.0712,-3.1153,-3.1562,-3.1951,-3.218,-3.2303,-3.2324,-3.2611,-3.2865,-3.2865,-3.3136,-3.3389,-3.3389,-3.3389,-3.3389,-3.3355,-3.3102,-3.2966,-3.3359,-3.3389,-3.3271,-3.0849,-3.011,-2.9973,-2.9465,-2.8739,-2.7943,-2.7604,-2.7655,-2.819,0.0,0.0,-2.8317,-2.8177,-2.805,-2.8661,-2.889,-2.8843,-2.9318,-2.9133,-2.8331,-2.7561,-2.6798,-2.6013,-2.5338,-2.5005,-2.5005,-2.5182,-2.5611,-2.6302,-2.7179,-2.8066,-2.889,-2.9561,-2.942,-2.8462,-2.704,-2.6298,-2.6344,-2.5878,-2.5626,-2.5626,-2.5607,-2.5591,-2.5607,-2.553,-2.5492,-2.5511,-2.5511,-2.5549,-2.5626,-2.5663,-2.5826,-2.6078,-2.615,-2.6239,-2.6398,-2.6312,-2.6224,-2.615,-2.5881,-2.6262,-2.7567,-2.8664,-2.9305,-2.9428,-2.9305,-2.9167,-2.8897,-2.885,-2.87,-2.842,-2.8411,-2.8411,-2.8411,-2.8411,-2.8411,-2.8411,-2.8411,-2.8411,-2.8411,-2.8411,-2.8411,-2.8411,-2.8411,-2.8436,-2.8444,-2.8565,-2.8692,-2.885,-2.8998,-2.9144,-2.9473,-2.9886,-3.0227,-3.0269,-3.0638,-3.0871,-3.1029,-3.1156,-3.119,-3.1275,-3.1701,-3.2056,-3.209,-3.2611,-3.2882,-3.2983,-3.2916,-3.3017,-3.3,-3.2544,-3.2107,-3.2158,-3.256,-3.2747,-3.0961,-3.0136,-2.9434,-2.8704,-2.7908,-2.7182,-2.6843,-2.686,-2.6893,-2.6891,-2.6837,-2.7331,-2.745,-2.7292,-2.8017,-2.8534,-2.8879,-2.8908,-2.8801,-2.8522,-2.7609,-2.6819,-2.6132,-2.5358,-2.5005,-2.5005,-2.5068,-2.5512,-2.6154,-2.6419,-2.7201,-2.8426,-2.8683,-2.8303,-2.7418,-2.6616,-2.585,-2.51,-2.5265,-2.5352,-2.5355,-2.5227,-2.5188,-2.5188,-2.5143,-2.5123,-2.5185,-2.5185,-2.5224,-2.5352,-2.5524,-2.5637,-2.5691,-2.5915,-2.6028,-2.6063,-2.6063,-2.6008,-2.5952,-2.5791,-2.6186,-2.7357,-2.8488,-2.9137,-2.9144,-2.9137,-2.9045,-2.8826,-2.8818,-2.87,-2.846,-2.8411,-2.8396,-2.8411,-2.8411,-2.8411,-2.8411,-2.8411,-2.8411,-2.8411,-2.8411,-2.8411,-2.8411,-2.8411,-2.8444,-2.8565,-2.87,-2.8873,-2.9137,-2.9344,-2.9428,-2.9525,-2.9886,-3.0184,-3.0253,-3.0589,-3.0871,-3.0912,-3.1055,-3.119,-3.119,-3.1309,-3.1464,-3.136,-3.1579,-3.1613,-3.1613,-3.1512,-3.163,-3.1664,-3.1529,-3.141,-3.1427,-3.1562,-3.1562,-3.098,-3.0121,-2.9334,-2.8535,-2.7739,-2.6995,-2.6708,-2.6708,-2.6657,-2.6606,-2.6571,-2.6819,-2.6828,-2.6733,-2.7333,-2.7747,-2.7941,-2.8188,-2.8244,-2.8038,-2.7123,-2.652,-2.6136,-2.5377,-2.5005,-2.5005,-2.5068,-2.5266,-2.564,-2.607,-2.6643,-2.7262,-2.7273,-2.7243,-2.7127,-2.6039,-2.5237,-2.4818,-2.5025,-2.51,-2.5041,-2.4966,-2.4946,-2.493,-2.4906,-2.4906,-2.4946,-2.5005,-2.5103,-2.5201,-2.5352,-2.5502,-2.5597,-2.5752,-2.5901,-2.6008,-2.5972,-2.5936,-2.5915,-2.6389,-2.6889,-2.7411,-2.8592,-2.9275,-2.9213,-2.9144,-2.9045,-2.8865,-2.8842,-2.8763,-2.8541,-2.8517,-2.8484,-2.8411,-2.8411,-2.8411,-2.8411,-2.8411,-2.8411,-2.8411,-2.8411,-2.8411,-2.8411,-2.8444,-2.8517,-2.8597,-2.8803,-2.9045,-2.9282,-2.948,-2.9614,-2.9687,-2.9989,-3.0189,-3.0312,-3.0647,-3.0871,-3.0912,-3.1072,-3.1171,-3.119,-3.119,-3.119,-3.119,-3.119,-3.119,-3.119,-3.119,-3.119,-3.119,-3.119,-3.119,-3.119,-3.119,-3.119,-3.1016,-3.0175,-2.9538,-2.8687,-2.7739,-2.7012,-2.6708,-2.6708,-2.6708,-2.6674,-2.6606,-2.6554,-2.6434,-2.6344,-2.6748,-2.6984,-2.7142,-2.7493,-2.7635,-2.7413,-2.67,-2.6218,-2.5958,-2.5318,-2.5005,-2.5005,-2.5048,-2.5088,-2.5151,-2.5707,-2.6178,-2.6429,-2.6416,-2.674,-2.7327,-2.5816,-2.5017,-2.4961,-2.4921,-2.4846,-2.4746,-2.4742,-2.4742,-2.4762,-2.4742,-2.4742,-2.4786,-2.4902,-2.5005,-2.5091,-2.522,-2.5391,-2.5543,-2.568,-2.5809,-2.5954,-2.5936,-2.5899,-2.5926,-2.6911,-2.7499,-2.7443,-2.8718,-2.945,-2.935,-2.9252,-2.9098,-2.8928,-2.8904,-2.8826,-2.8668,-2.866,-2.8597,-2.8508,-2.8444,-2.8444,-2.8444,-2.842,-2.8411,-2.8411,-2.8411,-2.8411,-2.8444,-2.8541,-2.8636,-2.874,-2.8959,-2.919,-2.9373,-2.957,-2.9726,-2.9892,-3.0081,-3.0231,-3.0396,-3.0688,-3.0871,-3.0912,-3.1072,-3.1171,-3.119,-3.119,-3.119,-3.119,-3.119,-3.119,-3.119,-3.119,-3.119,-3.119,-3.119,-3.119,-3.119,-3.119,-3.119,-3.1073,-3.0405,-3.0082,-2.9125,-2.7773,-2.7029,-2.6725,-2.6708,-2.6708,-2.6708,-2.6674,-2.6606,-2.6486,-2.6313,-2.6361,-2.6636,-2.7048,-2.7014,-2.6967,-2.6883,-2.6606,-2.6097,-2.5451,-2.5194,-2.5048,-2.5005,-2.5005,-2.5005,-2.5025,-2.512,-2.5801,-2.6883,-2.7025,-2.7277,-2.7608,-2.6424,-2.5629,-2.5433,-2.4865,-2.4564,-2.4625,-2.4544,-2.4544,-2.4609,-2.458,-2.462,-2.4798,-2.4822,-2.4906,-2.5088,-2.522,-2.5352,-2.5451,-2.5715,-2.5897,-2.5915,-2.5937,-2.5903,-2.5852,-2.6935,-2.7623,-2.7596,-2.8762,-2.9496,-2.9473,-2.9473,-2.9305,-2.9013,-2.8904,-2.8873,-2.8779,-2.8771,-2.8771,-2.8723,-2.8636,-2.8589,-2.8549,-2.8468,-2.8411,-2.8411,-2.8436,-2.846,-2.8565,-2.8621,-2.874,-2.8998,-2.919,-2.9373,-2.957,-2.9697,-2.9836,-3.006,-3.0205,-3.0253,-3.0417,-3.0688,-3.0888,-3.0912,-3.1072,-3.1171,-3.119,-3.119,-3.119,-3.119,-3.119,-3.119,-3.119,-3.119,-3.119,-3.119,-3.119,-3.119,-3.119,-3.119,-3.119,-3.1274,-3.0876,-3.0334,-2.921,-2.7841,-2.7469,-2.7114,-2.6708,-2.6708,-2.6708,-2.6708,-2.6674,-2.6589,-2.6486,-2.6348,-2.6426,-2.6619,-2.6455,-2.6325,-2.6229,-2.6075,-2.5722,-2.533,-2.5166,-2.5068,-2.5005,-2.5005,-2.5005,-2.5049,-2.53,-2.6005,-2.6881,-2.691,-2.7167,-2.7639,-2.6745,-2.6159,-2.6072,-2.5342,-2.4987,-2.4946,-2.4601,-2.4421,-2.4523,-2.4544,-2.4625,-2.4782,-2.4882,-2.4985,-2.5091,-2.524,-2.5333,-2.5397,-2.5642,-2.5809,-2.5897,-2.5972,-2.6135,-2.6466,-2.7372,-2.8046,-2.8391,-2.9259,-2.9754,-2.9687,-2.9637,-2.9502,-2.9282,-2.9175,-2.9098,-2.899,-2.8905,-2.8834,-2.8803,-2.8747,-2.8723,-2.8723,-2.8676,-2.8652,-2.8628,-2.8652,-2.8652,-2.8708,-2.8811,-2.8982,-2.919,-2.9396,-2.957,-2.9681,-2.9792,-2.9968,-3.0146,-3.0253,-3.0359,-3.0464,-3.0692,-3.0871,-3.0932,-3.1072,-3.119,-3.119,-3.119,-3.119,-3.119,-3.119,-3.119,-3.119,-3.119,-3.119,-3.119,-3.119,-3.119,-3.119,-3.119,-3.119,-3.1406,-3.1176,-3.0434,-2.9465,-2.8432,-2.8213,-2.7824,-2.7368,-2.7334,-2.7317,-2.7317,-2.7351,-2.7299,-2.7179,-2.6635,-2.6347,-2.6278,-2.6082,-2.5972,-2.5881,-2.5712,-2.5508,-2.5333,-2.522,-2.5107,-2.5045,-2.5005,-2.5076,-2.5242,-2.5586,-2.6245,-2.697,-2.7023,-2.7283,-2.779,-2.717,-2.6777,-2.6693,-2.6008,-2.5595,-2.5549,-2.5139,-2.4792,-2.4565,-2.4625,-2.4726,-2.4862,-2.4966,-2.5048,-2.5146,-2.5275,-2.5375,-2.5492,-2.5645,-2.5828,-2.5987,-2.6224,-2.6554,-2.7019,-2.7853,-2.8571,-2.9091,-2.9695,-3.0017,-2.9935,-2.9864,-2.9792,-2.9704,-2.9531,-2.938,-2.9213,-2.9121,-2.9045,-2.8944,-2.892,-2.8873,-2.8834,-2.8818,-2.881,-2.881,-2.8771,-2.8818,-2.8912,-2.9045,-2.9229,-2.9412,-2.9614,-2.9748,-2.9792,-2.993,-3.0103,-3.0231,-3.0354,-3.0422,-3.0506,-3.0712,-3.0871,-3.0952,-3.1052,-3.119,-3.119,-3.119,-3.119,-3.119,-3.119,-3.119,-3.119,-3.119,-3.119,-3.119,-3.119,-3.119,-3.119,-3.119,-3.119,-3.1406,-3.121,-3.0434,-3.0038,-2.9903,-2.9228,-2.8925,-2.8739,-2.8824,-2.884,-2.8773,-2.8807,-2.8857,-2.8686,-2.726,-2.6484,-2.6328,-2.6216,-2.6104,-2.6012,-2.5852,-2.5619,-2.5397,-2.5317,-2.5236,-2.5183,-2.512,-2.5336,-2.5759,-2.5837,-2.6438,-2.7578,-2.7633,-2.7961,-2.8341,-2.7853,-2.7489,-2.7296,-2.6688,-2.6371,-2.6341,-2.6359,-2.5765,-2.4838,-2.4753,-2.4936,-2.5013,-2.5064,-2.5162,-2.5294,-2.5355,-2.5473,-2.5663,-2.5826,-2.602,-2.6249,-2.6866,-2.721,-2.7361,-2.8428,-2.9194,-2.9227,-2.9796,-3.0189,-3.0167,-3.0124,-3.0141,-3.0162,-2.9913,-2.9694,-2.9525,-2.9434,-2.9366,-2.9259,-2.9144,-2.9052,-2.8943,-2.8905,-2.8818,-2.8842,-2.8865,-2.8936,-2.9091,-2.919,-2.9412,-2.9598,-2.9738,-2.9832,-2.9957,-3.0103,-3.0248,-3.0333,-3.0396,-3.0438,-3.0489,-3.0733,-3.0892,-3.0952,-3.1072,-3.119,-3.119,-3.119,-3.119,-3.119,-3.119,-3.119,-3.119,-3.119,-3.119,-3.119,-3.119,-3.119,-3.119,-3.119,-3.119,-3.1385,-3.1215,-3.0939,-3.0548,-3.0072,-2.982,-2.945,-2.901,-2.8993,-2.8993,-2.8993,-2.8993,-2.8993,-2.8941,-2.8236,-2.7875,-2.7838,-2.7634,-2.7429,-2.724,-2.7185,-2.7046,-2.6772,-2.6234,-2.5895,-2.5811,-2.569,-2.5931,-2.6481,-2.6767,-2.7107,-2.7542,-2.7953,-2.8285,-2.8415,-2.8222,-2.809,-2.798,-2.738,-2.7072,-2.7117,-2.6827,-2.6424,-2.6103,-2.612,-2.5979,-2.5665,-2.5746,-2.566,-2.531,-2.5448,-2.5584,-2.5749,-2.6342,-2.6735,-2.6965,-2.7597,-2.8174,-2.8563,-2.9039,-2.9567,-2.9972,-3.0194,-3.0333,-3.0333,-3.0253,-3.0227,-3.0205,-3.0124,-3.0017,-2.9908,-2.9697,-2.9473,-2.945,-2.9366,-2.9337,-2.9298,-2.9268,-2.9245,-2.9245,-2.9245,-2.9291,-2.9344,-2.948,-2.9598,-2.9738,-2.987,-2.9995,-3.0103,-3.0231,-3.0354,-3.0417,-3.0522,-3.0589,-3.0609,-3.0773,-3.0895,-3.0975,-3.1075,-3.1171,-3.119,-3.119,-3.119,-3.119,-3.119,-3.119,-3.119,-3.119,-3.119,-3.119,-3.119,-3.119,-3.119,-3.119,-3.119,-3.1325,-3.121,-3.119,-3.0937,-3.0478,-3.0463,-3.0176,-2.9738,-2.9721,-2.9721,-2.9704,-2.9721,-2.9721,-2.9683,-2.9496,-2.9401,-2.9298,-2.8738,-2.8259,-2.801,-2.7994,-2.783,-2.7517,-2.6956,-2.6593,-2.6511,-2.6361,-2.6576,-2.7111,-2.7386,-2.7589,-2.7844,-2.822,-2.8411,-2.8411,-2.8411,-2.8411,-2.8304,-2.7997,-2.7821,-2.7876,-2.7593,-2.7471,-2.7516,-2.7561,-2.7202,-2.6419,-2.6497,-2.6413,-2.6066,-2.6218,-2.6395,-2.6564,-2.7161,-2.759,-2.775,-2.842,-2.9037,-2.9483,-2.9732,-3.0098,-3.0563,-3.0589,-3.0564,-3.0522,-3.0417,-3.0359,-3.0316,-3.0253,-3.0253,-3.0189,-2.9946,-2.9704,-2.9637,-2.9614,-2.957,-2.9496,-2.9496,-2.9496,-2.9473,-2.9473,-2.9518,-2.9592,-2.9665,-2.9798,-2.9913,-3.006,-3.0167,-3.0253,-3.038,-3.0501,-3.0506,-3.0651,-3.0753,-3.0794,-3.0895,-3.0935,-3.0995,-3.1095,-3.1171,-3.119,-3.119,-3.119,-3.119,-3.119,-3.119,-3.119,-3.119,-3.119,-3.119,-3.119,-3.119,-3.119,-3.119,-3.119,-3.121,-3.119,-3.119,-3.1173,-3.1089,-3.1089,-3.1159,-3.1021,-3.1055,-3.0954,-3.0903,-3.1055,-3.0937,-3.1033,-3.0703,-3.0758,-3.0433,-2.9234,-2.8487,-2.8223,-2.819,-2.8009,-2.7713,-2.7512,-2.7327,-2.7185,-2.6987,-2.7212,-2.7703,-2.7666,-2.7836,-2.8273,-2.835,-2.8411,-2.8411,-2.8411,-2.8411,-2.8405,-2.8448,-2.8535,-2.8605,-2.8662,-2.8716,-2.8802,-2.8871,-2.8388,-2.7225,-2.7312,-2.7337,-2.732,-2.7575,-2.7938,-2.8003,-2.831,-2.8508,-2.8608,-2.934,-2.9764,-2.9897,-3.0436,-3.0754,-3.0871,-3.0888,-3.081,-3.0708,-3.0671,-3.063,-3.051,-3.0443,-3.0401,-3.038,-3.0269,-3.0065,-2.9837,-2.981,-2.9738,-2.9592,-2.9541,-2.9518,-2.9547,-2.9586,-2.9598,-2.9744,-2.9832,-2.9919,-3.0146,-3.0274,-3.0375,-3.0401,-3.0547,-3.0688,-3.0729,-3.0794,-3.0875,-3.0935,-3.1012,-3.0995,-3.1015,-3.1114,-3.119,-3.119,-3.119,-3.119,-3.119,-3.119,-3.119,-3.119,-3.119,-3.119,-3.119,-3.119,-3.119,-3.119,-3.119,-3.119,-3.119,-3.119,-3.119,-3.119,-3.119,-3.119,-3.119,-3.119,-3.119,-3.119,-3.119,-3.119,-3.1151,-3.1072,-3.0935,-3.0851,-3.0699,-3.0046,-2.9683,-2.9489,-2.9484,-2.9279,-2.8914,-2.8415,-2.8024,-2.7806,-2.7563,-2.7788,-2.8303,-2.8224,-2.8251,-2.8365,-2.8411,-2.8411,-2.8396,-2.8411,-2.8444,-2.8541,-2.8589,-2.8653,-2.8779,-2.8873,-2.8943,-2.9013,-2.9075,-2.8907,-2.8618,-2.8279,-2.7908,-2.7596,-2.7806,-2.8086,-2.8381,-2.8935,-2.9243,-2.9362,-3.0078,-3.0557,-3.0573,-3.0741,-3.0912,-3.0912,-3.0912,-3.0892,-3.0851,-3.0831,-3.081,-3.0753,-3.0671,-3.0609,-3.0589,-3.0485,-3.03,-3.0087,-3.0065,-3.0038,-2.9951,-2.9946,-2.9973,-2.9973,-2.9989,-3.0017,-3.006,-3.0065,-3.013,-3.0295,-3.0396,-3.0459,-3.0605,-3.0671,-3.0753,-3.0814,-3.0895,-3.0975,-3.1015,-3.1072,-3.1092,-3.1075,-3.1151,-3.119,-3.119,-3.119,-3.119,-3.119,-3.119,-3.119,-3.119,-3.119,-3.119,-3.119,-3.119,-3.119,-3.119,-3.119,-3.119,-3.119,-3.119,-3.119,-3.119,-3.119,-3.119,-3.119,-3.119,-3.119,-3.119,-3.119,-3.1151,-3.1092,-3.0995,-3.0892,-3.0753,-3.0609,-3.0443,-3.0295,-3.0146,-3.0124,-2.993,-2.9605,-2.9019,-2.8608,-2.8406,-2.82,-2.8319,-2.8692,-2.8517,-2.8411,-2.8411,-2.8411,-2.8444,-2.8468,-2.8493,-2.8541,-2.866,-2.8716,-2.8771,-2.8881,-2.8943,-2.9013,-2.9075,-2.9114,-2.919,-2.9335,-2.901,-2.8672,-2.8516,-2.871,-2.8992,-2.9277,-2.9779,-3.0092,-3.0232,-3.0633,-3.0995,-3.1029,-3.0998,-3.1012,-3.1012,-3.1012,-3.0975,-3.0935,-3.0952,-3.0932,-3.0892,-3.0831,-3.0773,-3.0753,-3.0712,-3.0551,-3.0384,-3.0295,-3.0269,-3.0227,-3.0227,-3.0205,-3.0184,-3.0205,-3.021,-3.0253,-3.029,-3.0338,-3.048,-3.0506,-3.0568,-3.0733,-3.081,-3.0855,-3.0935,-3.1015,-3.1072,-3.1092,-3.1131,-3.1171,-3.1171,-3.1171,-3.119,-3.119,-3.119,-3.119,-3.119,-3.119,-3.119,-3.119,-3.119,-3.119,-3.119,-3.119,-3.119,-3.119,-3.119,-3.119,-3.119,-3.119,-3.119,-3.119,-3.119,-3.119,-3.119,-3.119,-3.119,-3.119,-3.1171,-3.1075,-3.0995,-3.0935,-3.081,-3.0651,-3.0506,-3.0401,-3.0231,-3.0038,-2.9989,-2.9814,-2.9464,-2.918,-2.8949,-2.8826,-2.8756,-2.87,-2.8636,-2.8468,-2.8411,-2.8411,-2.842,-2.8468,-2.8565,-2.8612,-2.8684,-2.8779,-2.8865,-2.8881,-2.8928,-2.9013,-2.9075,-2.9114,-2.9137,-2.9252,-2.9434,-2.9467,-2.9601,-2.9821,-3.0013,-3.0249,-3.0588,-3.0814,-3.0828,-3.0874,-3.1114,-3.1171,-3.119,-3.1151,-3.1171,-3.1151,-3.1151,-3.1151,-3.1035,-3.1015,-3.0995,-3.0952,-3.0932,-3.0912,-3.0912,-3.0871,-3.081,-3.0729,-3.0506,-3.0359,-3.0248,-3.0231,-3.0269,-3.0231,-3.0227,-3.0269,-3.038,-3.0417,-3.0506,-3.0626,-3.0708,-3.077,-3.0834,-3.0915,-3.0975,-3.1055,-3.1112,-3.1131,-3.1151,-3.1151,-3.119,-3.119,-3.119,-3.119,-3.119,-3.119,-3.119,-3.119,-3.119,-3.119,-3.119,-3.119,-3.119,-3.119,-3.119,-3.119,-3.1173,-3.1173,-3.1123,-3.119,-3.119,-3.119,-3.119,-3.119,-3.119,-3.119,-3.119,-3.119,-3.119,-3.1171,-3.1055,-3.0955,-3.0895,-3.077,-3.0605,-3.0422,-3.0295,-3.0108,-2.9875,-2.9798,-2.9637,-2.9389,-2.919,-2.9029,-2.8897,-2.8811,-2.8732,-2.8612,-2.8484,-2.8411,-2.8411,-2.8477,-2.8549,-2.8612,-2.8684,-2.8803,-2.8865,-2.8897,-2.8967,-2.9029,-2.9075,-2.9114,-2.9114,-2.9206,-2.9328,-2.9518,-2.9836,-3.0017,-3.0103,-3.0274,-3.0501,-3.0708,-3.0831,-3.0952,-3.1032,-3.1131,-3.119,-3.119,-3.119,-3.119,-3.119,-3.119,-3.1188,-3.1151,-3.1151,-3.1131,-3.1112,-3.1035,-3.0992,-3.0955,-3.0932,-3.0892,-3.0831,-3.063,-3.0485,-3.0426,-3.0405,-3.0422,-3.0422,-3.0405,-3.0464,-3.0506,-3.0568,-3.063,-3.0729,-3.081,-3.0892,-3.0972,-3.0995,-3.1035,-3.1114,-3.1171,-3.1171,-3.119,-3.119,-3.119,-3.119,-3.119,-3.119,-3.119,-3.119,-3.119,-3.119,-3.119,-3.119,-3.119,-3.119,-3.119,-3.1038,-3.0954,-3.0852,-3.1055,-3.1123,-3.1004,-3.119,-3.119,-3.119,-3.119,-3.119,-3.119,-3.119,-3.119,-3.119,-3.1171,-3.1112,-3.0995,-3.0895,-3.081,-3.0667,-3.0485,-3.0333,-3.0167,-2.9995,-2.9776,-2.9598,-2.9441,-2.9266,-2.9106,-2.8959,-2.8881,-2.8755,-2.8652,-2.8517,-2.8436,-2.8436,-2.8493,-2.8549,-2.8645,-2.8748,-2.8795,-2.8889,-2.8943,-2.899,-2.9013,-2.9091,-2.9114,-2.9114,-2.9137,-2.9236,-2.9396,-2.9643,-2.9995,-3.0189,-3.0269,-3.0417,-3.0626,-3.079,-3.0875,-3.0992,-3.1055,-3.1151,-3.119,-3.119,-3.119,-3.119,-3.119,-3.119,-3.119,-3.119,-3.119,-3.119,-3.1171,-3.1114,-3.1075,-3.1055,-3.1012,-3.0952,-3.0915,-3.079,-3.0671,-3.0671,-3.0671,-3.0671,-3.0671,-3.0671,-3.0671,-3.0688,-3.0733,-3.0773,-3.0851,-3.0912,-3.0992,-3.1055,-3.1075,-3.1075,-3.1151,-3.119,-3.119,-3.119,-3.119,-3.119,-3.119,-3.119,-3.119,-3.119,-3.119,-3.119,-3.119,-3.119,-3.1157,-3.1106,-3.0954,-3.0683,-3.0548,-3.0514,-3.0381,-3.0398,-3.062,-3.055,-3.119,-3.119,-3.119,-3.119,-3.119,-3.119,-3.119,-3.119,-3.1171,-3.1112,-3.1012,-3.0932,-3.0814,-3.0708,-3.0526,-3.0333,-3.0205,-3.006,-2.9842,-2.9621,-2.9418,-2.9259,-2.9198,-2.902,-2.8889,-2.8803,-2.866,-2.8541,-2.8444,-2.8411,-2.8468,-2.8565,-2.8612,-2.874,-2.885,-2.8904,-2.899,-2.9068,-2.9091,-2.9091,-2.9114,-2.9114,-2.9114,-2.9183,-2.9321,-2.9515,-2.9804,-3.0065,-3.021,-3.0231,-3.0543,-3.0733,-3.0855,-3.0955,-3.1055,-3.1151,-3.119,-3.119,-3.119,-3.119,-3.119,-3.119,-3.119,-3.119,-3.119,-3.119,-3.119,-3.119,-3.119,-3.1171,-3.1171,-3.1092,-3.1052,-3.1015,-3.0955,-3.0932,-3.0932,-3.0912,-3.0912,-3.0912,-3.0892,-3.0912,-3.0912,-3.0912,-3.0932,-3.0915,-3.0992,-3.1072,-3.1114,-3.1151,-3.1151,-3.1171,-3.119,-3.119,-3.119,-3.119,-3.119,-3.119,-3.119,-3.119,-3.119,-3.119,-3.119,-3.119,-3.119,-3.1055,-3.0852,-3.0615,-3.0262,-2.9959,-2.9844,-2.9471,-2.9182,-2.9554,-2.9656,-3.119,-3.119,-3.119,-3.119,-3.119,-3.119,-3.119,-3.119,-3.1092,-3.1015,-3.0955,-3.0831,-3.0733,-3.0688,-3.0464,-3.0316,-3.0146,-2.9935,-2.9694,-2.9373,-2.9236,-2.9098,-2.9013,-2.8904,-2.8842,-2.8779,-2.8645,-2.8525,-2.842,-2.8436,-2.8484,-2.8612,-2.8732,-2.8811,-2.8897,-2.899,-2.9075,-2.9098,-2.9114,-2.9114,-2.9114,-2.9114,-2.9144,-2.9275,-2.948,-2.971,-2.993,-3.0103,-3.0274,-3.0443,-3.0626,-3.0773,-3.0892,-3.0992,-3.1092,-3.1171,-3.119,-3.119,-3.119,-3.119,-3.119,-3.119,-3.119,-3.119,-3.119,-3.119,-3.119,-3.119,-3.119,-3.119,-3.119,-3.1171,-3.1134,-3.1131,-3.1131,-3.1112,-3.1112,-3.1012,-3.0932,-3.0929,-3.0932,-3.0912,-3.0912,-3.0972,-3.0995,-3.1015,-3.1055,-3.1134,-3.1171,-3.119,-3.119,-3.119,-3.119,-3.119,-3.119,-3.119,-3.119,-3.119,-3.119,-3.119,-3.119,-3.119,-3.119,-3.119,-3.119,-3.097,-3.0637,-3.0202,-2.9813,-2.9527,-2.9171,-2.8865,-2.8695,-2.8847,-2.876,-3.119,-3.119,-3.119,-3.119,-3.119,-3.1131,-3.1112,-3.1092,-3.1012,-3.0915,-3.0834,-3.0749,-3.0651,-3.0564,-3.038,-3.021,-2.9995,-2.9716,-2.9454,-2.9266,-2.9106,-2.8967,-2.8897,-2.8803,-2.874,-2.8668,-2.8565,-2.8468,-2.8436,-2.8484,-2.8565,-2.8684,-2.8787,-2.8905,-2.8967,-2.9075,-2.9114,-2.9114,-2.9114,-2.9114,-2.9114,-2.9114,-2.9229,-2.9389,-2.9592,-2.9814,-3.006,-3.0167,-3.0338,-3.0547,-3.0712,-3.0851,-3.0952,-3.1035,-3.1131,-3.1171,-3.119,-3.119,-3.119,-3.119,-3.119,-3.119,-3.119,-3.119,-3.119,-3.119,-3.119,-3.119,-3.119,-3.119,-3.119,-3.119,-3.119,-3.119,-3.119,-3.119,-3.1171,-3.1092,-3.1032,-3.1032,-3.1035,-3.1035,-3.1055,-3.1055,-3.1075,-3.1095,-3.1095,-3.119,-3.119,-3.119,-3.119,-3.119,-3.119,-3.119,-3.119,-3.119,-3.119,-3.119,-3.119,-3.119,-3.119,-3.119,-3.119,-3.114,-3.1075,-3.0658,-3.0287,-2.9852,-2.9275,-2.8782,-2.8442,-2.8305,-2.8135,-2.7964,-2.7845,-3.119,-3.119,-3.1171,-3.1171,-3.1151,-3.1035,-3.0992,-3.0975,-3.0895,-3.0773,-3.0692,-3.0651,-3.0526,-3.038,-3.0231,-3.0022,-2.9738,-2.9493,-2.9305,-2.9198,-2.9036,-2.892,-2.885,-2.874,-2.8597,-2.8565,-2.8484,-2.8411,-2.8468,-2.8565,-2.8645,-2.8803,-2.8865,-2.8959,-2.9052,-2.9114,-2.9114,-2.9114,-2.9114,-2.9114,-2.9114,-2.9137,-2.9275,-2.9518,-2.9681,-2.9902,-3.0124,-3.0248,-3.0401,-3.0712,-3.0814,-3.0952,-3.1052,-3.1114,-3.119,-3.119,-3.119,-3.119,-3.119,-3.119,-3.119,-3.119,-3.119,-3.119,-3.119,-3.119,-3.119,-3.119,-3.119,-3.119,-3.119,-3.119,-3.119,-3.119,-3.119,-3.119,-3.119,-3.119,-3.1171,-3.1171,-3.1151,-3.1131,-3.1151,-3.1151,-3.1171,-3.119,-3.119,-3.119,-3.119,-3.119,-3.119,-3.119,-3.119,-3.119,-3.119,-3.119,-3.119,-3.119,-3.119,-3.119,-3.119,-3.119,-3.1157,-3.1007,-3.0823,-3.0389,-2.9818,-2.9174,-2.8613,-2.8032,-2.7775,-2.7722,-2.7449,-2.7092,-2.7111,-3.119,-3.119,-3.1092,-3.1035,-3.1032,-3.0952,-3.0912,-3.0912,-3.079,-3.0651,-3.0547,-3.048,-3.0359,-3.021,-3.0081,-2.9842,-2.9592,-2.935,-2.922,-2.9106,-2.8967,-2.8889,-2.8787,-2.866,-2.8525,-2.8444,-2.8436,-2.8468,-2.8541,-2.8597,-2.8724,-2.885,-2.892,-2.899,-2.9091,-2.9114,-2.9114,-2.9114,-2.9114,-2.9114,-2.9137,-2.9229,-2.9389,-2.9653,-2.9814,-3.0011,-3.0167,-3.0333,-3.0506,-3.0831,-3.0871,-3.0992,-3.1112,-3.1171,-3.119,-3.119,-3.119,-3.119,-3.119,-3.119,-3.119,-3.119,-3.119,-3.119,-3.119,-3.119,-3.119,-3.119,-3.119,-3.119,-3.119,-3.119,-3.119,-3.119,-3.119,-3.119,-3.119,-3.119,-3.119,-3.119,-3.119,-3.119,-3.119,-3.119,-3.119,-3.119,-3.119,-3.119,-3.119,-3.119,-3.119,-3.119,-3.119,-3.119,-3.119,-3.119,-3.119,-3.119,-3.119,-3.121,-3.121,-3.119,-3.1142,-3.1099,-3.0628,-3.0003,-2.9361,-2.8664,-2.81,-2.7619,-2.7393,-2.7218,-2.7186,-2.7154,-2.7072,-3.1151,-3.1092,-3.1035,-3.0975,-3.0932,-3.0834,-3.0753,-3.0675,-3.0605,-3.0464,-3.0342,-3.0295,-3.021,-3.0081,-2.9957,-2.9694,-2.9441,-2.9259,-2.9106,-2.899,-2.8889,-2.8787,-2.8684,-2.8565,-2.8541,-2.8493,-2.8517,-2.8541,-2.8597,-2.8724,-2.8803,-2.8897,-2.8967,-2.9052,-2.9075,-2.9114,-2.9114,-2.9114,-2.9114,-2.9114,-2.9137,-2.9298,-2.9502,-2.9681,-2.988,-3.006,-3.0189,-3.0333,-3.0564,-3.0814,-3.0912,-3.1012,-3.1131,-3.119,-3.119,-3.119,-3.119,-3.119,-3.119,-3.119,-3.119,-3.119,-3.119,-3.119,-3.119,-3.119,-3.119,-3.119,-3.119,-3.119,-3.119,-3.119,-3.119,-3.119,-3.119,-3.119,-3.119,-3.119,-3.119,-3.119,-3.119,-3.119,-3.119,-3.119,-3.119,-3.119,-3.119,-3.119,-3.119,-3.119,-3.119,-3.119,-3.119,-3.119,-3.119,-3.119,-3.119,-3.119,-3.121,-3.123,-3.1252,-3.1252,-3.1308,-3.1332,-3.0672,-2.9702,-2.9143,-2.8545,-2.7891,-2.7304,-2.7302,-2.7283,-2.7283,-2.7234,-2.717,-3.1112,-3.1012,-3.0955,-3.0895,-3.081,-3.0708,-3.0568,-3.0443,-3.038,-3.0312,-3.0167,-3.0124,-3.0038,-2.9913,-2.976,-2.956,-2.9305,-2.9183,-2.9036,-2.892,-2.8834,-2.8747,-2.8612,-2.8517,-2.8477,-2.8573,-2.8653,-2.8653,-2.87,-2.8803,-2.8897,-2.8982,-2.9068,-2.9114,-2.9114,-2.9114,-2.9114,-2.9114,-2.9114,-2.9114,-2.9229,-2.9412,-2.9608,-2.9742,-2.9924,-3.0081,-3.0189,-3.0354,-3.0568,-3.081,-3.0932,-3.0975,-3.1151,-3.121,-3.123,-3.123,-3.1193,-3.119,-3.119,-3.119,-3.119,-3.119,-3.119,-3.119,-3.119,-3.119,-3.119,-3.119,-3.119,-3.119,-3.119,-3.119,-3.119,-3.119,-3.119,-3.119,-3.119,-3.119,-3.119,-3.119,-3.119,-3.119,-3.119,-3.119,-3.119,-3.119,-3.119,-3.119,-3.119,-3.119,-3.119,-3.119,-3.119,-3.119,-3.119,-3.119,-3.119,-3.119,-3.1213,-3.1252,-3.131,-3.1312,-3.1406,-3.1413,-3.027,-2.9366,-2.887,-2.8389,-2.7716,-2.7318,-2.7316,-2.7315,-2.7299,-2.7351,-2.7355,-3.1015,-3.0958,-3.0814,-3.0671,-3.0547,-3.0464,-3.0359,-3.0231,-3.021,-3.0146,-3.0017,-2.9875,-2.9804,-2.9704,-2.9486,-2.9373,-2.9259,-2.9144,-2.9006,-2.8873,-2.8787,-2.8708,-2.8636,-2.8589,-2.8573,-2.8645,-2.8779,-2.8834,-2.8858,-2.8881,-2.8967,-2.9052,-2.9091,-2.9114,-2.9114,-2.9114,-2.9114,-2.9114,-2.9114,-2.9206,-2.9412,-2.957,-2.972,-2.9896,-3.0055,-3.0167,-3.021,-3.038,-3.0609,-3.0851,-3.0912,-3.1012,-3.1171,-3.1237,-3.1276,-3.1257,-3.1232,-3.119,-3.121,-3.121,-3.119,-3.119,-3.119,-3.119,-3.119,-3.119,-3.119,-3.119,-3.119,-3.119,-3.119,-3.119,-3.119,-3.119,-3.119,-3.119,-3.119,-3.119,-3.119,-3.119,-3.119,-3.119,-3.119,-3.119,-3.119,-3.119,-3.119,-3.119,-3.119,-3.119,-3.119,-3.119,-3.119,-3.119,-3.119,-3.119,-3.1193,-3.1193,-3.1232,-3.1293,-3.137,-3.1428,-3.1485,-3.1199,-3.0104,-2.9402,-2.9111,-2.8543,-2.7678,-2.7315,-2.7315,-2.7315,-2.7315,-2.7402,-2.761,-3.0912,-3.0797,-3.0671,-3.0526,-3.0422,-3.0316,-3.0227,-3.0081,-3.0,-2.9913,-2.9814,-2.9687,-2.9576,-2.9441,-2.9312,-2.9259,-2.9167,-2.9036,-2.8936,-2.8834,-2.8732,-2.866,-2.8612,-2.8597,-2.8645,-2.8771,-2.885,-2.8959,-2.8967,-2.9013,-2.9052,-2.9091,-2.9114,-2.9114,-2.9114,-2.9114,-2.9114,-2.9137,-2.919,-2.9321,-2.9496,-2.963,-2.9748,-2.988,-3.0081,-3.0184,-3.0253,-3.0401,-3.063,-3.0851,-3.0912,-3.1015,-3.1193,-3.1276,-3.1315,-3.1406,-3.1385,-3.1346,-3.1271,-3.1271,-3.1232,-3.121,-3.119,-3.119,-3.119,-3.119,-3.119,-3.119,-3.119,-3.119,-3.119,-3.119,-3.119,-3.119,-3.119,-3.119,-3.119,-3.119,-3.119,-3.119,-3.119,-3.119,-3.119,-3.119,-3.119,-3.119,-3.119,-3.119,-3.119,-3.119,-3.119,-3.119,-3.119,-3.119,-3.119,-3.119,-3.1215,-3.1235,-3.1254,-3.1332,-3.1466,-3.1542,-3.1598,-3.1465,-3.0762,-3.0108,-2.9558,-2.856,-2.7558,-2.7384,-2.7315,-2.7366,-2.747,-2.7971,-2.8249,-3.0729,-3.0609,-3.0526,-3.0401,-3.029,-3.0167,-3.0055,-2.9908,-2.9782,-2.9687,-2.9614,-2.9502,-2.9389,-2.9282,-2.922,-2.9152,-2.9036,-2.8928,-2.8842,-2.874,-2.8668,-2.8645,-2.8645,-2.8645,-2.8771,-2.8904,-2.8943,-2.9006,-2.9068,-2.9114,-2.9091,-2.9114,-2.9114,-2.9114,-2.9114,-2.9114,-2.9114,-2.9137,-2.9259,-2.9389,-2.9518,-2.9675,-2.9808,-2.9924,-3.0038,-3.0184,-3.0227,-3.038,-3.0589,-3.0851,-3.0912,-3.1015,-3.1254,-3.1332,-3.1408,-3.15,-3.1538,-3.1502,-3.1408,-3.1351,-3.1293,-3.1232,-3.119,-3.119,-3.119,-3.119,-3.119,-3.119,-3.119,-3.119,-3.119,-3.119,-3.119,-3.119,-3.119,-3.119,-3.119,-3.119,-3.119,-3.119,-3.119,-3.119,-3.119,-3.119,-3.119,-3.119,-3.119,-3.119,-3.119,-3.119,-3.119,-3.119,-3.119,-3.119,-3.119,-3.1193,-3.1235,-3.1293,-3.1332,-3.1389,-3.1523,-3.1617,-3.1673,-3.1453,-3.118,-3.0679,-3.0023,-2.8714,-2.7506,-2.7401,-2.7349,-2.7505,-2.773,-2.8334,-2.8921,-3.0485,-3.0417,-3.0417,-3.0269,-3.0033,-2.9875,-2.9798,-2.972,-2.957,-2.9541,-2.9496,-2.9389,-2.9236,-2.916,-2.9121,-2.9036,-2.8904,-2.8904,-2.8779,-2.8716,-2.8723,-2.8708,-2.8716,-2.8779,-2.8873,-2.8943,-2.9006,-2.9075,-2.9075,-2.9114,-2.9114,-2.9114,-2.9114,-2.9114,-2.9114,-2.9114,-2.9137,-2.9183,-2.9344,-2.9457,-2.9586,-2.9742,-2.9874,-2.9902,-2.9989,-3.0076,-3.0205,-3.0354,-3.0584,-3.0871,-3.0912,-3.1072,-3.1274,-3.1404,-3.15,-3.1614,-3.1688,-3.1653,-3.1596,-3.1502,-3.1423,-3.1329,-3.1235,-3.1193,-3.1213,-3.119,-3.119,-3.119,-3.119,-3.119,-3.119,-3.119,-3.119,-3.119,-3.119,-3.119,-3.119,-3.119,-3.119,-3.119,-3.119,-3.119,-3.119,-3.119,-3.119,-3.119,-3.119,-3.119,-3.119,-3.119,-3.119,-3.119,-3.119,-3.119,-3.119,-3.1213,-3.1271,-3.1351,-3.1426,-3.1485,-3.1579,-3.169,-3.1746,-3.1609,-3.1351,-3.0938,-3.049,-2.9454,-2.8505,-2.7677,-2.7487,-2.8023,-2.8644,-2.9334,-2.9833,-3.0405,-3.0269,-3.0108,-2.9979,-2.9875,-2.9776,-2.9681,-2.9586,-2.9434,-2.9321,-2.9252,-2.9206,-2.9144,-2.9075,-2.899,-2.8928,-2.8881,-2.8771,-2.8716,-2.8708,-2.8708,-2.8716,-2.8756,-2.885,-2.8943,-2.9029,-2.9091,-2.9114,-2.9114,-2.9114,-2.9114,-2.9114,-2.9114,-2.9114,-2.9114,-2.9114,-2.916,-2.9252,-2.9389,-2.9518,-2.9653,-2.9786,-2.9896,-2.9918,-2.9968,-3.006,-3.0189,-3.0338,-3.0568,-3.081,-3.0892,-3.1112,-3.1349,-3.1479,-3.1557,-3.1707,-3.1781,-3.1763,-3.1726,-3.1615,-3.1521,-3.1443,-3.1329,-3.1254,-3.1254,-3.1232,-3.121,-3.119,-3.121,-3.121,-3.119,-3.119,-3.119,-3.119,-3.119,-3.119,-3.119,-3.119,-3.119,-3.119,-3.119,-3.119,-3.119,-3.119,-3.119,-3.119,-3.119,-3.119,-3.119,-3.119,-3.119,-3.121,-3.121,-3.1193,-3.1193,-3.1252,-3.131,-3.1406,-3.1519,-3.1578,-3.1653,-3.1709,-3.1765,-3.1662,-3.1558,-3.1214,-3.08,-3.0265,-2.9506,-2.8627,-2.861,-2.9058,-2.9696,-3.0282,-3.0588,-3.0279,-3.0065,-2.987,-2.9782,-2.976,-2.9637,-2.9525,-2.9434,-2.9282,-2.9152,-2.9052,-2.9052,-2.9021,-2.8998,-2.8912,-2.8865,-2.8818,-2.874,-2.8732,-2.8732,-2.8763,-2.8795,-2.8873,-2.8967,-2.9013,-2.9091,-2.9114,-2.9114,-2.9114,-2.9114,-2.9114,-2.9114,-2.9114,-2.9114,-2.9114,-2.9114,-2.9167,-2.9305,-2.9434,-2.9563,-2.9697,-2.983,-2.9896,-2.9896,-2.9946,-3.0038,-3.0167,-3.0295,-3.0543,-3.077,-3.0952,-3.1112,-3.1346,-3.1519,-3.1595,-3.1726,-3.18,-3.18,-3.1781,-3.169,-3.1596,-3.1538,-3.1426,-3.1387,-3.1349,-3.131,-3.1308,-3.1288,-3.1305,-3.1269,-3.1232,-3.1232,-3.1213,-3.1193,-3.119,-3.119,-3.119,-3.119,-3.119,-3.119,-3.119,-3.121,-3.1252,-3.1271,-3.1249,-3.123,-3.119,-3.119,-3.119,-3.119,-3.119,-3.121,-3.1213,-3.1232,-3.1215,-3.131,-3.1406,-3.1466,-3.1578,-3.1634,-3.1709,-3.1781,-3.18,-3.1748,-3.1627,-3.1472,-3.1248,-3.092,-3.03,-2.9575,-2.973,-2.9955,-3.0231,-3.073,-3.1053,-3.0065,-2.981,-2.971,-2.9697,-2.9659,-2.9418,-2.9305,-2.9282,-2.9167,-2.9036,-2.8928,-2.8904,-2.8873,-2.8834,-2.8834,-2.8834,-2.8811,-2.8779,-2.8794,-2.8803,-2.8842,-2.8881,-2.8943,-2.9029,-2.9075,-2.9114,-2.9114,-2.9114,-2.9114,-2.9114,-2.9114,-2.9114,-2.9114,-2.9114,-2.9114,-2.9114,-2.9183,-2.9305,-2.9434,-2.9563,-2.972,-2.9852,-2.9896,-2.9896,-2.9918,-3.0011,-3.0167,-3.0227,-3.048,-3.0831,-3.0892,-3.1112,-3.144,-3.1498,-3.1595,-3.1746,-3.18,-3.18,-3.18,-3.1654,-3.1617,-3.1596,-3.1521,-3.1481,-3.1481,-3.1479,-3.146,-3.1404,-3.146,-3.1404,-3.1368,-3.1276,-3.1271,-3.1252,-3.1249,-3.1249,-3.1269,-3.1269,-3.1269,-3.1288,-3.1249,-3.1249,-3.131,-3.1351,-3.1327,-3.1288,-3.121,-3.121,-3.123,-3.1249,-3.1269,-3.1288,-3.1308,-3.131,-3.1349,-3.1406,-3.1502,-3.156,-3.1617,-3.1709,-3.1746,-3.1781,-3.18,-3.18,-3.1748,-3.1627,-3.1696,-3.1714,-3.1024,-3.0437,-3.0524,-3.0748,-3.0938,-3.1126,-3.1379,-3.0044,-2.9788,-2.9637,-2.9525,-2.9418,-2.935,-2.9259,-2.9144,-2.9036,-2.8928,-2.8904,-2.8904,-2.8897,-2.8889,-2.8865,-2.8865,-2.8842,-2.8818,-2.8818,-2.8865,-2.892,-2.8982,-2.9029,-2.9068,-2.9114,-2.9114,-2.9114,-2.9114,-2.9114,-2.9114,-2.9114,-2.9114,-2.9114,-2.9114,-2.9114,-2.9137,-2.919,-2.9389,-2.9496,-2.9608,-2.9808,-2.9874,-2.9896,-2.9896,-2.9896,-2.9989,-3.0167,-3.0205,-3.0459,-3.0831,-3.0912,-3.1128,-3.1421,-3.1481,-3.1612,-3.1744,-3.18,-3.18,-3.18,-3.1746,-3.1727,-3.169,-3.1634,-3.1595,-3.1578,-3.1536,-3.1517,-3.15,-3.1519,-3.1481,-3.1443,-3.1426,-3.1404,-3.1404,-3.1421,-3.1421,-3.1421,-3.1421,-3.1404,-3.144,-3.1402,-3.1385,-3.1443,-3.1483,-3.1481,-3.146,-3.1404,-3.1366,-3.1385,-3.1404,-3.1423,-3.1421,-3.144,-3.1423,-3.1445,-3.1521,-3.1559,-3.1615,-3.169,-3.1763,-3.18,-3.18,-3.18,-3.18,-3.18,-3.18,-3.18,-3.1765,-3.1627,-3.1369,-3.1265,-3.1266,-3.1369,-3.1453,-3.157,-2.9973,-2.971,-2.9547,-2.9389,-2.9236,-2.922,-2.9167,-2.9098,-2.899,-2.8928,-2.8904,-2.8904,-2.8873,-2.8889,-2.8865,-2.8897,-2.8897,-2.8881,-2.8897,-2.8967,-2.899,-2.9029,-2.9091,-2.9114,-2.9114,-2.9114,-2.9114,-2.9114,-2.9114,-2.9114,-2.9114,-2.9114,-2.9114,-2.9114,-2.9114,-2.9167,-2.9275,-2.9473,-2.9541,-2.9697,-2.983,-2.9896,-2.9896,-2.9896,-2.9918,-2.9989,-3.0141,-3.0274,-3.0422,-3.077,-3.0952,-3.1109,-3.1366,-3.1517,-3.1612,-3.1726,-3.18,-3.18,-3.18,-3.18,-3.1781,-3.1781,-3.1709,-3.169,-3.1671,-3.1634,-3.1632,-3.1614,-3.1576,-3.1557,-3.1538,-3.1538,-3.1519,-3.1536,-3.1517,-3.1517,-3.1517,-3.1498,-3.1498,-3.1517,-3.1517,-3.1536,-3.1555,-3.1612,-3.1614,-3.1631,-3.1612,-3.1557,-3.1519,-3.1519,-3.1519,-3.1536,-3.1519,-3.1521,-3.1559,-3.1615,-3.1653,-3.1671,-3.1727,-3.18,-3.18,-3.18,-3.18,-3.18,-3.18,-3.18,-3.18,-3.1748,-3.1662,-3.1662,-3.1662,-3.1696,-3.18,-3.1763,-3.1726,-2.9814,-2.9518,-2.9496,-2.9344,-2.9137,-2.9137,-2.9114,-2.9114,-2.9075,-2.9013,-2.8904,-2.8904,-2.8873,-2.8826,-2.8803,-2.8881,-2.892,-2.892,-2.899,-2.9052,-2.9091,-2.9114,-2.9114,-2.9114,-2.9114,-2.9114,-2.9114,-2.9114,-2.9114,-2.9114,-2.9114,-2.9114,-2.9114,-2.9114,-2.9137,-2.9252,-2.9366,-2.9496,-2.9608,-2.9742,-2.9874,-2.9896,-2.9896,-2.9896,-2.9918,-3.0011,-3.0141,-3.0248,-3.0501,-3.0749,-3.0912,-3.1168,-3.1344,-3.1479,-3.1631,-3.1726,-3.18,-3.18,-3.18,-3.18,-3.18,-3.18,-3.18,-3.18,-3.1781,-3.1746,-3.1726,-3.1726,-3.1726,-3.1671,-3.1617,-3.1615,-3.1596,-3.1576,-3.1555,-3.1555,-3.1555,-3.1555,-3.1555,-3.1555,-3.1555,-3.1593,-3.1651,-3.1688,-3.1707,-3.1707,-3.1688,-3.1651,-3.1614,-3.1576,-3.1576,-3.1576,-3.1578,-3.1598,-3.1635,-3.1709,-3.1709,-3.1727,-3.1763,-3.18,-3.18,-3.18,-3.18,-3.18,-3.18,-3.18,-3.18,-3.18,-3.1783,-3.18,-3.18,-3.18,-3.18,-3.18,-3.1763,-2.9814,-2.9496,-2.9496,-2.9344,-2.9137,-2.9114,-2.9114,-2.9114,-2.899,-2.8904,-2.8904,-2.8904,-2.8897,-2.8873,-2.8959,-2.9006,-2.9029,-2.9068,-2.9052,-2.9114,-2.9114,-2.9114,-2.9114,-2.9114,-2.9114,-2.9114,-2.9114,-2.9114,-2.9114,-2.9114,-2.9114,-2.9114,-2.9114,-2.9114,-2.9183,-2.9321,-2.9428,-2.9518,-2.9653,-2.9786,-2.9874,-2.9896,-2.9896,-2.9896,-2.9896,-3.0011,-3.0141,-3.0189,-3.0443,-3.079,-3.0892,-3.1055,-3.1329,-3.1443,-3.1593,-3.1763,-3.18,-3.18,-3.18,-3.18,-3.18,-3.18,-3.18,-3.18,-3.18,-3.18,-3.18,-3.18,-3.18,-3.1727,-3.1709,-3.169,-3.169,-3.167,-3.1651,-3.1651,-3.1651,-3.1651,-3.1651,-3.1668,-3.1668,-3.1687,-3.1744,-3.1744,-3.1763,-3.1781,-3.1781,-3.1744,-3.1726,-3.167,-3.1651,-3.1651,-3.167,-3.169,-3.1727,-3.1763,-3.1781,-3.18,-3.18,-3.18,-3.18,-3.18,-3.18,-3.18,-3.18,-3.18,-3.18,-3.18,-3.18,-3.18,-3.18,-3.18,-3.18,-3.18,-3.1744,-2.9726,-2.9496,-2.945,-2.9298,-2.9137,-2.9114,-2.9114,-2.9091,-2.9013,-2.8967,-2.8982,-2.899,-2.8967,-2.899,-2.9052,-2.9091,-2.9091,-2.9091,-2.9114,-2.9114,-2.9114,-2.9114,-2.9114,-2.9114,-2.9114,-2.9114,-2.9114,-2.9114,-2.9114,-2.9114,-2.9114,-2.9114,-2.9114,-2.9114,-2.9183,-2.936,-2.9473,-2.9563,-2.9675,-2.9808,-2.9874,-2.9896,-2.9896,-2.9896,-2.9896,-2.9989,-3.0103,-3.0146,-3.0401,-3.0729,-3.0794,-3.0995,-3.1271,-3.1443,-3.1595,-3.1763,-3.18,-3.18,-3.18,-3.18,-3.18,-3.18,-3.18,-3.18,-3.18,-3.18,-3.18,-3.18,-3.18,-3.18,-3.18,-3.18,-3.18,-3.18,-3.18,-3.18,-3.18,-3.18,-3.1781,-3.1781,-3.1781,-3.1781,-3.18,-3.18,-3.18,-3.18,-3.18,-3.1781,-3.1763,-3.1763,-3.1744,-3.1744,-3.1763,-3.1781,-3.18,-3.18,-3.18,-3.18,-3.18,-3.18,-3.18,-3.18,-3.18,-3.18,-3.18,-3.18,-3.18,-3.18,-3.18,-3.18,-3.18,-3.18,-3.18,-3.18,-3.1707,-2.963,-2.9496,-2.935,-2.9213,-2.9114,-2.9114,-2.9114,-2.9114,-2.9114,-2.9114,-2.9114,-2.9114,-2.9098,-2.9091,-2.9114,-2.9114,-2.9114,-2.9114,-2.9114,-2.9114,-2.9114,-2.9114,-2.9114,-2.9114,-2.9114,-2.9114,-2.9114,-2.9114,-2.9114,-2.9114,-2.9114,-2.9114,-2.9114,-2.9114,-2.9206,-2.9382,-2.9518,-2.9586,-2.9742,-2.9896,-2.9896,-2.9896,-2.9896,-2.9896,-2.9918,-2.9946,-3.0033,-3.0146,-3.0279,-3.051,-3.0753,-3.0992,-3.1269,-3.1443,-3.1615,-3.1727,-3.18,-3.18,-3.18,-3.18,-3.18,-3.18,-3.18,-3.18,-3.18,-3.18,-3.18,-3.18,-3.18,-3.18,-3.18,-3.18,-3.18,-3.18,-3.18,-3.18,-3.18,-3.18,-3.18,-3.18,-3.18,-3.18,-3.18,-3.18,-3.18,-3.18,-3.18,-3.18,-3.18,-3.18,-3.18,-3.18,-3.18,-3.18,-3.18,-3.18,-3.18,-3.18,-3.18,-3.18,-3.18,-3.18,-3.18,-3.18,-3.18,-3.18,-3.18,-3.18,-3.18,-3.18,-3.18,-3.18,-3.18,-3.18,-3.1688,-2.963,-2.9473,-2.9252,-2.9137,-2.9114,-2.9114,-2.9114,-2.9114,-2.9114,-2.9114,-2.9114,-2.9114,-2.9114,-2.9114,-2.9114,-2.9114,-2.9114,-2.9114,-2.9114,-2.9114,-2.9114,-2.9114,-2.9114,-2.9114,-2.9114,-2.9114,-2.9114,-2.9114,-2.9114,-2.9114,-2.9114,-2.9114,-2.9114,-2.9137,-2.9236,-2.9434,-2.9541,-2.963,-2.9786,-2.9896,-2.9896,-2.9896,-2.9896,-2.9896,-2.9918,-2.9924,-3.0011,-3.0141,-3.0316,-3.0506,-3.0753,-3.1072,-3.1404,-3.1481,-3.1614,-3.1763,-3.18,-3.18,-3.18,-3.18,-3.18,-3.18,-3.18,-3.18,-3.18,-3.18,-3.18,-3.18,-3.18,-3.18,-3.18,-3.18,-3.18,-3.18,-3.18,-3.18,-3.18,-3.18,-3.18,-3.18,-3.18,-3.18,-3.18,-3.18,-3.18,-3.18,-3.18,-3.18,-3.18,-3.18,-3.18,-3.18,-3.18,-3.18,-3.18,-3.18,-3.18,-3.18,-3.18,-3.18,-3.18,-3.18,-3.18,-3.18,-3.18,-3.18,-3.18,-3.18,-3.18,-3.18,-3.18,-3.18,-3.18,-3.18,-3.167,-2.963,-2.9473,-2.9229,-2.9114,-2.9114,-2.9114,-2.9114,-2.9114,-2.9114,-2.9114,-2.9114,-2.9114,-2.9114,-2.9114,-2.9114,-2.9114,-2.9114,-2.9114,-2.9114,-2.9114,-2.9114,-2.9114,-2.9114,-2.9114,-2.9114,-2.9114,-2.9114,-2.9114,-2.9114,-2.9114,-2.9114,-2.9114,-2.9114,-2.9167,-2.9305,-2.9434,-2.9563,-2.9697,-2.983,-2.9896,-2.9896,-2.9896,-2.9896,-2.9896,-2.9918,-2.9924,-2.9989,-3.0119,-3.0269,-3.0443,-3.0708,-3.1035,-3.131,-3.1479,-3.1557,-3.1688,-3.1763,-3.18,-3.18,-3.18,-3.18,-3.18,-3.18,-3.18,-3.18,-3.18,-3.18,-3.18,-3.18,-3.18,-3.18,-3.18,-3.18,-3.18,-3.18,-3.18,-3.18,-3.18,-3.18,-3.18,-3.18,-3.18,-3.18,-3.18,-3.18,-3.18,-3.18,-3.18,-3.18,-3.18,-3.18,-3.18,-3.18,-3.18,-3.18,-3.18,-3.18,-3.18,-3.18,-3.18,-3.18,-3.18,-3.18,-3.18,-3.18,-3.18,-3.18,-3.18,-3.18,-3.18,-3.18,-3.18,-3.18,-3.18,-3.1688,-2.9608,-2.945,-2.9206,-2.9114,-2.9114,-2.9114,-2.9114,-2.9114,-2.9114,-2.9114,-2.9114,-2.9114,-2.9114,-2.9114,-2.9114,-2.9114,-2.9114,-2.9114,-2.9114,-2.9114,-2.9114,-2.9114,-2.9114,-2.9114,-2.9114,-2.9114,-2.9114,-2.9114,-2.9114,-2.9114,-2.9114,-2.9098,-2.9144,-2.9206,-2.9344,-2.9496,-2.9624,-2.9742,-2.9852,-2.9896,-2.9896,-2.9896,-2.9896,-2.9896,-2.9896,-2.9896,-2.9962,-3.0055,-3.0184,-3.0396,-3.0667,-3.1015,-3.1254,-3.1443,-3.1521,-3.1634,-3.1763,-3.1781,-3.18,-3.18,-3.18,-3.18,-3.18,-3.18,-3.18,-3.18,-3.18,-3.18,-3.18,-3.18,-3.18,-3.18,-3.18,-3.18,-3.18,-3.18,-3.18,-3.18,-3.18,-3.18,-3.18,-3.18,-3.18,-3.18,-3.18,-3.18,-3.18,-3.18,-3.18,-3.18,-3.18,-3.18,-3.18,-3.18,-3.18,-3.18,-3.18,-3.18,-3.18,-3.18,-3.18,-3.18,-3.18,-3.18,-3.18,-3.18,-3.18,-3.18,-3.18,-3.18,-3.18,-3.18,-3.18,-3.1781,-3.1688,-2.957,-2.9328,-2.9167,-2.9114,-2.9114,-2.9114,-2.9114,-2.9114,-2.9114,-2.9114,-2.9114,-2.9114,-2.9114,-2.9114,-2.9114,-2.9114,-2.9114,-2.9114,-2.9114,-2.9114,-2.9114,-2.9114,-2.9114,-2.9114,-2.9114,-2.9114,-2.9114,-2.9114,-2.916,-2.9137,-2.9167,-2.9259,-2.9259,-2.9373,-2.9592,-2.9675,-2.9697,-2.9808,-2.9852,-2.9896,-2.9896,-2.9896,-2.9896,-2.9896,-2.9896,-2.9896,-2.9962,-3.0098,-3.0184,-3.0354,-3.063,-3.0995,-3.1252,-3.1406,-3.1502,-3.1596,-3.1726,-3.1781,-3.18,-3.18,-3.18,-3.18,-3.18,-3.18,-3.18,-3.18,-3.18,-3.18,-3.18,-3.18,-3.18,-3.18,-3.18,-3.18,-3.18,-3.18,-3.18,-3.18,-3.18,-3.18,-3.18,-3.18,-3.18,-3.18,-3.18,-3.18,-3.18,-3.18,-3.18,-3.18,-3.18,-3.18,-3.18,-3.18,-3.18,-3.18,-3.18,-3.18,-3.18,-3.18,-3.18,-3.18,-3.18,-3.18,-3.18,-3.18,-3.18,-3.18,-3.18,-3.18,-3.18,-3.18,-3.18,-3.1781,-3.1707]},{"header":{"parameterUnit":"m.s-1","parameterCategory":1,"la1":31.0,"la2":29.5877,"lo1":-88.7671,"lo2":-86.6584,"dy":0.0162,"dx":0.0185,"nx":115,"ny":88,"refTime":"2024-07-22T00:00:00:Z","depth":0,"parameterNumber":3,"parameterNumberName":"V-component_of_WINDS"},"data":[0.0,0.0,0.0,0.0,0.0,0.0,0.0,0.0,0.0,0.0,0.0,0.0,0.0,0.0,0.0,0.0,0.0,0.0,0.0,0.0,0.0,0.0,0.0,0.0,0.0,0.0,0.0,0.0,0.0,0.0,0.0,0.0,0.0,0.0,0.0,0.0,0.0,0.0,0.0,0.0,0.0,0.0,0.0,0.0,0.0,0.0,0.0,0.0,0.0,0.0,0.0,0.0,0.0,0.0,0.0,0.0,0.0,0.0,0.0,0.0,0.0,0.0,0.0,0.0,0.0,0.0,0.0,0.0,0.0,0.0,0.0,0.0,0.0,0.0,0.0,0.0,0.0,0.0,0.0,0.0,0.0,0.0,0.0,0.0,0.0,0.0,0.0,0.0,0.0,0.0,0.0,0.0,0.0,0.0,0.0,0.0,0.0,0.0,0.0,0.0,0.0,0.0,0.0,0.0,0.0,0.0,0.0,0.0,0.0,0.0,0.0,0.0,0.0,0.0,0.0,0.0,0.0,0.0,0.0,0.0,0.0,0.0,0.0,0.0,0.0,0.0,0.0,0.0,0.0,0.0,0.0,0.0,0.0,0.0,0.0,0.0,0.0,0.0,0.0,0.0,0.0,0.0,0.0,0.0,0.0,0.0,0.0,0.0,0.0,0.0,0.0,0.0,0.0,0.0,0.0,0.0,0.0,0.0,0.0,0.0,0.0,0.0,0.0,0.0,0.0,0.0,0.0,0.0,0.0,0.0,0.0,0.0,0.0,0.0,0.0,0.0,0.0,0.0,0.0,0.0,0.0,0.0,0.0,0.0,0.0,0.0,0.0,0.0,0.0,0.0,0.0,0.0,0.0,0.0,0.0,0.0,0.0,0.0,0.0,0.0,0.0,0.0,0.0,0.0,0.0,0.0,0.0,0.0,0.0,0.0,0.0,0.0,0.0,0.0,0.0,0.0,0.0,0.0,0.0,0.0,0.0,0.0,0.0,0.0,0.0,0.0,0.0,0.0,0.0,0.0,0.0,0.0,0.0,0.0,0.0,0.0,0.0,0.0,0.0,0.0,0.0,0.0,0.0,0.0,0.0,0.0,0.0,0.0,0.0,0.0,0.0,0.0,0.0,0.0,0.0,0.0,0.0,0.0,0.0,0.0,0.0,0.0,0.0,0.0,0.0,0.0,0.0,0.0,0.0,0.0,0.0,0.0,0.0,0.0,0.0,0.0,0.0,0.0,0.0,0.0,0.0,0.0,0.0,0.0,0.0,0.0,0.0,0.0,0.0,0.0,0.0,0.0,0.0,0.0,0.0,0.0,0.0,0.0,0.0,0.0,0.0,0.0,0.0,0.0,0.0,0.0,0.0,0.0,0.0,0.0,0.0,0.0,0.0,0.0,0.0,0.0,0.0,0.0,0.0,0.0,0.0,0.0,0.0,0.0,0.0,0.0,0.0,0.0,0.0,0.0,0.0,0.0,0.0,0.0,0.0,0.0,0.0,0.0,0.0,0.0,0.0,0.0,0.0,0.0,0.0,0.0,0.0,0.0,0.0,0.0,0.0,0.0,0.0,0.0,0.0,0.0,0.0,0.0,0.0,0.0,0.0,0.0,0.0,0.0,0.0,0.0,0.0,0.0,0.0,0.0,0.0,0.0,0.0,0.0,0.0,0.0,0.0,0.0,0.0,0.0,0.0,0.0,0.0,0.0,0.0,0.0,0.0,0.0,0.0,0.0,0.0,0.0,0.0,0.0,0.0,0.0,0.0,0.0,0.0,0.0,0.0,0.0,0.0,0.0,0.0,0.0,0.0,0.0,0.0,0.0,0.0,0.0,0.0,0.0,0.0,0.0,0.0,0.0,0.0,0.0,0.0,0.0,0.0,0.0,0.0,0.0,0.0,0.0,0.0,0.0,0.0,0.0,0.0,0.0,0.0,0.0,0.0,0.0,0.0,0.0,0.0,0.0,0.0,0.0,0.0,0.0,0.0,0.0,0.0,0.0,0.0,0.0,0.0,0.0,0.0,0.0,0.0,0.0,0.0,0.0,0.0,0.0,0.0,0.0,0.0,0.0,0.0,0.0,0.0,0.0,0.0,0.0,0.0,0.0,0.0,0.0,0.0,0.0,0.0,0.0,0.0,0.0,0.0,0.0,0.0,0.0,0.0,0.0,0.0,0.0,0.0,0.0,0.0,0.0,0.0,0.0,0.0,0.0,0.0,0.0,0.0,0.0,0.0,0.0,0.0,0.0,0.0,0.0,0.0,0.0,0.0,0.0,0.0,0.0,0.0,0.0,0.0,0.0,0.0,0.0,0.0,0.0,0.0,0.0,0.0,0.0,0.0,0.0,0.0,0.0,0.0,0.0,0.0,0.0,0.0,0.0,0.0,0.0,0.0,0.0,0.0,0.0,0.0,0.0,0.0,0.0,0.0,0.0,0.0,0.0,0.0,0.0,0.0,0.0,0.0,0.0,0.0,0.0,0.0,0.0,0.0,0.0,0.0,0.0,0.0,0.0,0.0,0.0,0.0,0.0,0.0,0.0,0.0,0.0,0.0,0.0,0.0,0.0,0.0,0.0,0.0,0.0,0.0,0.0,0.0,0.0,0.0,0.0,0.0,0.0,0.0,0.0,0.0,0.0,0.0,0.0,0.0,0.0,0.0,0.0,0.0,0.0,0.0,0.0,0.0,0.0,0.0,0.0,0.0,0.0,0.0,0.0,0.0,0.0,0.0,0.0,0.0,0.0,0.0,0.0,0.0,0.0,0.0,0.0,0.0,0.0,0.0,0.0,0.0,0.0,0.0,0.0,0.0,0.0,0.0,0.0,0.0,0.0,0.0,0.0,0.0,0.0,0.0,0.0,0.0,0.0,0.0,0.0,0.0,0.0,0.0,0.0,0.0,0.0,0.0,0.0,0.0,0.0,0.0,0.0,0.0,0.0,0.0,0.0,0.0,0.0,0.0,0.0,0.0,0.0,0.0,0.0,0.0,0.0,0.0,0.0,0.0,0.0,0.0,0.0,0.0,0.0,0.0,0.0,0.0,0.0,0.0,0.0,0.0,0.0,0.0,0.0,0.0,0.0,0.0,0.0,0.0,0.0,0.0,0.0,0.0,0.0,0.0,0.0,0.0,0.0,0.0,0.0,0.0,0.0,0.0,0.0,0.0,0.0,0.0,0.0,0.0,0.0,0.0,0.0,0.0,0.0,0.0,0.0,0.0,0.0,0.0,0.0,0.0,0.0,0.0,0.0,0.0,0.0,0.0,0.0,0.0,0.0,0.0,0.0,0.0,0.0,0.0,0.0,0.0,0.0,0.0,0.0,0.0,0.0,0.0,0.0,0.0,0.0,0.0,0.0,0.0,0.0,0.0,0.0,0.0,0.0,0.0,0.0,0.0,0.0,0.0,0.0,0.0,0.0,0.0,0.0,0.0,0.0,0.0,0.0,0.0,0.0,0.0,0.0,0.0,0.0,0.0,0.0,0.0,0.0,0.0,0.0,0.0,0.0,0.0,0.0,0.0,0.0,0.0,0.0,0.0,0.0,0.0,0.0,0.0,0.0,0.0,0.0,0.0,0.0,0.0,0.0,0.0,0.0,0.0,0.0,0.0,0.0,0.0,0.0,0.0,0.0,0.0,0.0,0.0,0.0,0.0,0.0,0.0,0.0,0.0,0.0,0.0,0.0,0.0,0.0,0.0,0.0,0.0,0.0,0.0,0.0,0.0,0.0,0.0,0.0,0.0,0.0,0.0,0.0,0.0,0.0,0.0,0.0,0.0,0.0,0.0,0.0,0.0,0.0,0.0,0.0,0.0,0.0,0.0,0.0,0.0,0.0,0.0,0.0,0.0,0.0,0.0,0.0,0.0,0.0,0.0,0.0,0.0,0.0,0.0,0.0,0.0,0.0,0.0,0.0,0.0,0.0,0.0,0.0,0.0,0.0,0.0,0.0,0.0,0.0,0.0,0.0,0.0,0.0,0.0,0.0,0.0,0.0,0.0,0.0,0.0,0.0,0.0,0.0,0.0,0.0,0.0,0.0,0.0,0.0,0.0,0.0,0.0,0.0,0.0,0.0,0.0,0.0,0.0,0.0,0.0,0.0,0.0,0.0,0.0,0.0,0.0,0.0,0.0,0.0,0.0,0.0,0.0,0.0,0.0,0.0,0.0,0.0,0.0,0.0,0.0,0.0,0.0,0.0,0.0,0.0,0.0,0.0,0.0,0.0,0.0,0.0,0.0,0.0,0.0,0.0,0.0,0.0,0.0,0.0,0.0,0.0,0.0,0.0,1.0931,0.0,0.0,0.0,0.0,0.0,0.0,0.0,0.0,0.0,0.0,0.0,0.0,0.0,0.0,0.0,0.0,0.0,0.0,0.0,0.0,0.0,0.0,0.0,0.0,0.0,0.0,0.0,0.0,0.0,0.0,0.0,0.0,0.0,0.0,0.0,0.0,0.0,0.0,0.0,0.0,0.0,0.0,0.0,0.0,0.0,0.0,0.0,0.0,0.0,0.0,0.0,0.0,0.0,0.0,0.0,0.0,0.0,0.0,0.0,0.0,0.0,0.0,0.0,0.0,0.0,0.0,0.0,0.0,0.0,0.0,0.0,0.0,0.0,0.0,0.0,0.0,0.0,0.0,0.0,0.0,0.0,0.0,0.0,0.0,0.0,0.0,0.0,0.0,0.0,0.0,0.0,0.0,0.0,0.0,0.0,0.0,0.0,0.0,0.0,0.0,0.0,0.0,0.0,0.0,0.0,0.0,0.0,0.0,0.0,0.0,1.1897,1.2089,1.1876,1.1614,1.1265,0.0,0.0,0.0,0.0,0.0,0.0,0.0,0.0,0.0,0.0,0.0,0.0,0.0,0.0,0.0,0.0,0.0,0.0,0.0,0.0,0.0,0.0,0.0,0.0,0.0,0.0,0.0,0.0,0.0,0.0,0.0,0.0,0.0,0.0,0.0,0.0,0.0,0.0,0.0,0.0,0.0,0.0,0.0,0.0,0.0,0.0,0.0,0.0,0.0,0.0,0.0,0.0,0.0,0.0,0.0,0.0,0.0,0.0,0.0,0.0,0.0,0.0,0.0,0.0,0.0,0.0,0.0,0.0,0.0,0.0,0.0,0.0,0.0,0.0,0.0,0.0,0.0,0.0,0.0,0.0,0.0,0.0,0.0,0.0,0.0,0.0,0.0,0.0,0.0,0.0,0.0,0.0,0.0,0.0,0.0,0.0,0.0,0.0,0.0,0.0,0.0,0.0,0.0,0.0,0.0,0.0,0.0,0.0,0.0,0.0,0.0,0.0,1.2289,1.194,1.1495,0.0,0.0,0.0,0.0,0.0,0.0,0.0,0.0,0.0,0.0,0.0,0.0,0.0,0.0,0.0,0.0,0.0,0.0,0.0,0.0,0.0,0.0,0.0,0.0,0.0,0.0,0.0,0.0,0.0,0.0,0.0,0.0,0.0,0.0,0.0,0.0,0.0,0.0,0.0,0.0,0.0,0.0,0.0,0.0,0.0,0.0,0.0,0.0,0.0,0.0,0.0,0.0,0.0,0.0,0.0,0.0,0.0,0.0,0.0,0.0,0.0,0.0,0.0,0.0,0.0,0.0,0.0,0.0,0.0,0.0,0.0,0.0,0.0,0.0,0.0,0.0,0.0,0.0,0.0,0.0,0.0,0.0,0.0,0.0,0.0,0.0,0.0,0.0,0.0,0.0,0.0,0.0,0.0,0.0,0.0,0.0,0.0,0.0,0.0,0.0,0.0,0.0,0.0,0.0,0.0,0.0,0.0,0.0,0.0,0.0,1.2558,1.259,1.2558,0.0,1.1531,0.0,0.0,0.0,0.0,0.0,0.0,0.0,0.0,0.0,0.0,0.0,0.0,0.0,0.0,0.0,0.0,0.0,0.0,0.0,0.0,0.0,0.0,0.0,0.0,0.0,0.0,0.0,0.0,0.0,0.0,0.0,0.0,0.0,0.0,0.0,0.0,0.0,0.0,0.0,0.0,0.0,0.0,0.0,0.0,0.0,0.0,0.0,0.0,0.0,0.0,0.0,0.0,0.0,0.0,0.0,0.0,0.0,0.0,0.0,0.0,0.0,0.0,0.0,0.0,0.0,0.0,0.0,0.0,0.0,0.0,0.0,0.0,0.0,0.0,0.0,0.0,0.0,0.0,0.0,0.0,0.0,0.0,0.0,0.0,0.0,0.0,0.0,0.0,0.0,0.0,0.0,0.0,0.0,0.0,0.0,0.0,0.0,0.0,0.0,0.0,0.0,0.0,0.0,0.0,0.0,0.0,0.0,0.0,0.0,0.0,1.259,1.259,1.2383,1.1974,0.0,0.0,0.0,0.0,0.0,0.0,0.0,0.0,0.0,0.0,0.0,0.0,0.0,0.0,0.0,0.0,0.0,0.0,0.0,0.0,0.0,0.0,0.0,0.0,0.0,0.0,0.0,0.0,0.0,0.0,0.0,0.0,0.0,0.0,0.0,0.0,0.0,0.0,0.0,0.0,0.0,0.0,0.0,0.0,0.0,0.0,0.0,0.0,0.0,0.0,0.0,0.0,0.0,0.0,0.0,0.0,0.0,0.0,0.0,0.0,0.0,0.0,0.0,0.0,0.0,0.0,0.0,0.0,0.0,0.0,0.0,0.0,0.0,0.0,0.0,0.0,0.0,0.0,0.0,0.0,0.0,0.0,0.0,0.0,0.0,0.0,0.0,0.0,0.0,0.0,0.0,0.0,0.0,0.0,0.0,0.0,0.0,0.0,0.0,0.0,0.0,0.0,0.0,0.0,0.0,0.0,0.0,0.0,0.0,0.0,1.259,1.259,1.2505,1.2026,1.1584,1.1241,0.0,0.0,0.0,0.0,0.0,0.0,0.0,0.0,0.0,0.0,0.0,0.0,0.0,0.0,0.0,0.0,0.0,0.0,0.0,0.0,0.0,0.0,0.0,0.0,0.0,0.0,0.0,0.0,0.0,0.0,0.0,0.0,0.0,0.0,0.0,0.0,0.0,0.0,0.0,0.0,0.0,0.0,0.0,0.0,0.0,0.0,0.0,0.0,0.0,0.0,0.0,0.0,0.0,0.0,0.0,0.0,0.0,0.0,0.0,0.0,0.0,0.0,0.0,0.0,0.0,0.0,0.0,0.0,0.0,0.0,0.0,0.0,0.0,0.0,0.0,0.0,0.0,0.0,0.0,0.0,0.0,0.0,0.0,0.0,0.0,0.0,0.0,0.0,0.0,0.0,0.0,0.0,0.0,0.0,0.0,0.0,0.0,0.0,0.0,0.0,0.0,0.0,0.0,0.0,0.0,0.0,0.0,0.0,0.0,1.259,1.2498,1.229,1.1534,1.1122,0.0,0.0,0.0,0.0,0.0,0.0,0.0,0.0,0.0,0.0,0.0,0.0,0.0,0.0,0.0,0.0,0.0,0.0,0.0,0.0,0.0,0.0,0.0,0.0,0.0,0.0,0.0,0.0,0.0,0.0,0.0,0.0,0.0,0.0,0.0,0.0,0.0,0.0,0.0,0.0,0.0,0.0,0.0,0.0,0.0,0.0,0.0,0.0,0.0,0.0,0.0,0.0,0.0,0.0,0.0,0.0,0.0,0.0,0.0,0.0,0.0,0.0,0.0,0.0,0.0,0.0,0.0,0.0,0.0,0.0,0.0,0.0,0.0,0.0,0.0,0.0,0.0,0.0,0.0,0.0,0.0,0.0,0.0,0.0,0.0,0.0,0.0,0.0,0.0,0.0,0.0,0.0,0.0,0.0,0.0,0.0,0.0,0.0,0.0,0.0,0.0,0.0,0.0,0.0,0.0,0.0,0.0,0.0,0.0,1.2274,1.2274,1.2243,1.2143,1.1667,1.1214,0.0,0.0,0.0,0.0,0.0,0.0,0.0,0.0,0.0,0.0,0.0,0.0,0.0,0.0,0.0,0.0,0.0,0.0,0.0,0.0,0.0,0.0,0.0,0.0,0.0,0.0,0.0,0.0,0.0,0.0,0.0,0.0,0.0,0.0,0.0,0.0,0.0,0.0,0.0,0.0,0.0,0.0,0.0,0.0,0.0,0.0,0.0,0.0,0.0,0.0,0.0,0.0,0.0,0.0,0.0,0.0,0.0,0.0,0.0,0.0,0.0,0.0,0.0,0.0,0.0,0.0,0.0,0.0,0.0,0.0,0.0,0.0,0.0,0.0,0.0,0.0,0.0,0.0,0.0,0.0,0.0,0.0,0.0,0.0,0.0,0.0,0.0,0.0,0.0,0.0,0.0,0.0,0.0,0.0,0.0,0.0,0.0,0.0,0.0,0.0,0.0,0.0,0.0,0.0,0.0,0.0,0.0,0.0,0.0,1.2096,0.0,1.1941,0.0,1.1413,1.093,0.0,0.0,0.0,0.0,0.0,0.0,0.0,0.0,0.0,0.0,0.0,0.0,0.0,0.0,0.0,0.0,0.0,0.0,0.0,0.0,0.0,0.0,0.0,0.0,0.0,0.0,0.0,0.0,0.0,0.0,0.0,0.0,0.0,0.0,0.0,0.0,0.0,0.0,0.0,0.0,0.0,0.0,0.0,0.0,0.0,0.0,0.0,0.0,0.0,0.0,0.0,0.0,0.0,0.0,0.0,0.0,0.0,0.0,0.0,0.0,0.0,0.0,0.0,0.0,0.0,0.0,0.0,0.0,0.0,0.0,0.0,0.0,0.0,0.0,0.0,0.0,0.0,0.0,0.0,0.0,0.0,0.0,0.0,0.0,0.0,0.0,0.0,0.0,0.0,0.0,0.0,0.0,0.0,0.0,0.0,0.0,0.0,0.0,0.0,0.0,0.0,0.0,0.0,0.0,0.0,0.0,0.0,0.0,1.1903,1.2058,1.1778,1.1661,1.1756,1.0738,1.0236,0.0,0.0,0.0,0.0,0.0,0.0,0.0,0.0,0.0,0.0,0.0,0.0,0.0,0.0,0.0,0.0,0.0,0.0,0.0,0.0,0.0,0.0,0.0,0.0,0.0,0.0,0.0,0.0,0.0,0.0,0.0,0.0,0.0,0.0,0.0,0.0,0.0,0.0,0.0,0.0,0.0,0.0,0.0,0.0,0.0,0.0,0.0,0.0,0.0,0.0,0.0,0.0,0.0,0.0,0.0,0.0,0.0,0.0,0.0,0.0,0.0,0.0,0.0,0.0,0.0,0.0,0.0,0.0,0.0,0.0,0.0,0.0,0.0,0.0,0.0,0.0,0.0,0.0,0.0,0.0,0.0,0.0,0.0,0.0,0.0,0.0,0.0,0.0,0.0,0.0,0.0,0.0,0.0,0.0,0.0,0.0,0.0,0.0,0.0,0.0,0.0,0.0,0.0,0.0,0.0,0.0,0.0,0.0,0.0,1.1553,1.1435,1.1373,1.1296,1.0751,1.0323,0.0,0.0,0.0,0.0,0.0,0.0,0.0,0.0,0.0,0.0,0.0,0.0,0.0,0.0,0.0,0.0,0.0,0.0,0.0,0.0,0.0,0.0,0.0,0.0,0.0,0.0,0.0,0.0,0.0,0.0,0.0,0.0,0.0,0.0,0.0,0.0,0.0,0.0,0.0,0.0,0.0,0.0,0.0,0.0,0.0,0.0,0.0,0.0,0.0,0.0,0.0,0.0,0.0,0.0,0.0,0.0,0.0,0.0,0.0,0.0,0.0,0.0,0.0,0.0,0.0,0.0,0.0,0.0,0.0,0.0,0.0,0.0,0.0,0.0,0.0,0.0,0.0,0.0,0.0,0.0,0.0,0.0,0.0,0.0,0.0,0.0,0.0,0.0,0.0,0.0,0.0,0.0,0.0,0.0,0.0,0.0,0.0,0.0,0.0,0.0,0.0,0.0,0.0,0.0,0.0,0.0,0.0,0.0,0.0,1.1303,1.1296,1.1272,1.1178,1.0758,1.0393,1.0105,0.0,0.0,0.0,0.0,0.0,0.0,0.0,0.0,0.0,0.0,0.0,0.0,0.0,0.0,0.0,0.0,0.0,0.0,0.0,0.0,0.0,0.0,0.0,0.0,0.0,0.0,0.0,0.0,0.0,0.0,0.0,0.0,0.0,0.0,0.0,0.0,0.0,0.0,0.0,0.0,0.0,0.0,0.0,0.0,0.0,0.0,0.0,0.0,0.0,0.0,0.0,0.0,0.0,0.0,0.0,0.0,0.0,0.0,0.0,0.0,0.0,0.0,0.0,0.0,0.0,0.0,0.0,0.0,0.0,0.0,0.0,0.0,0.0,0.0,0.0,0.0,0.0,0.0,0.0,0.0,0.0,0.0,0.0,0.0,0.0,0.0,0.0,0.0,0.0,0.0,0.0,0.0,0.0,0.0,0.0,0.0,0.0,0.0,0.0,0.0,0.0,0.0,0.0,0.0,0.0,0.0,0.0,0.0,1.1334,1.1303,1.1303,1.1264,1.0718,1.0407,0.0,0.0,0.0,0.0,0.0,0.0,0.0,0.0,0.0,0.0,0.0,0.0,0.0,0.0,0.0,0.0,0.0,0.0,0.0,0.0,0.0,0.0,0.0,0.0,0.0,0.0,0.0,0.0,0.0,0.0,0.0,0.0,0.0,0.0,0.0,0.0,0.0,0.0,0.0,0.0,0.0,0.0,0.0,0.0,0.0,0.0,0.0,0.0,0.0,0.0,0.0,0.0,0.0,0.0,0.0,0.0,0.0,0.0,0.0,0.0,0.0,0.0,0.0,0.0,0.0,0.0,0.0,0.0,0.0,0.0,0.0,0.0,0.0,0.0,0.0,0.0,0.0,0.0,0.0,0.0,0.0,0.0,0.0,0.0,0.0,0.0,0.0,0.0,0.0,0.0,0.0,0.0,0.0,0.0,0.0,0.0,0.0,0.0,0.0,0.0,0.0,0.0,0.0,0.0,0.0,0.0,0.0,0.0,0.0,1.1529,1.1529,1.1411,1.1153,1.0857,1.0612,0.0,0.0,0.0,0.0,0.0,0.0,0.0,0.0,0.0,0.0,0.0,0.0,0.0,0.0,0.0,0.0,0.0,0.0,0.0,0.0,0.0,0.0,0.0,0.0,0.0,0.0,0.0,0.0,0.0,0.0,0.0,0.0,0.0,0.0,0.0,0.0,0.0,0.0,0.0,0.0,0.0,0.0,0.0,0.0,0.0,0.0,0.0,0.0,0.0,0.0,0.0,0.0,0.0,0.0,0.0,0.0,0.0,0.0,0.0,0.0,0.0,0.0,0.0,0.0,0.0,0.0,0.0,0.0,0.0,0.0,0.0,0.0,0.0,0.0,0.0,0.0,0.0,0.0,0.0,0.0,0.0,0.0,0.0,0.0,0.0,0.0,0.0,0.0,0.0,0.0,0.0,0.0,0.0,0.0,0.0,0.0,0.0,0.0,0.0,0.0,0.0,0.0,0.0,0.0,0.0,0.0,0.0,0.0,1.1591,1.1591,1.1591,1.1498,1.131,1.1122,1.0881,0.0,0.0,0.0,0.0,0.0,0.0,0.0,0.0,0.0,0.0,0.0,0.0,0.0,0.0,0.0,0.0,0.0,0.0,0.0,0.0,0.0,0.0,0.0,0.0,0.0,0.0,0.0,0.0,0.0,0.0,0.0,0.0,0.0,0.0,0.0,0.0,0.0,0.0,0.0,0.0,0.0,0.0,0.0,0.0,0.0,0.0,0.0,0.0,0.0,0.0,0.0,0.0,0.0,0.0,0.0,0.0,0.0,0.0,0.0,0.0,0.0,0.0,0.0,0.0,0.0,0.0,0.0,0.0,0.0,0.0,0.0,0.0,0.0,0.0,0.0,0.0,0.0,0.0,0.0,0.0,0.0,0.0,0.0,0.0,0.0,0.0,0.0,0.0,0.0,0.0,0.0,0.0,0.0,0.0,0.0,0.0,0.0,0.0,0.0,0.0,0.0,0.0,0.0,0.0,0.0,0.0,0.0,0.0,1.1591,1.1591,1.1591,1.1591,1.1591,1.1397,1.1153,0.0,0.0,0.0,0.0,0.0,0.0,0.0,0.0,0.0,0.0,0.0,0.0,0.0,0.0,0.0,0.0,0.0,0.0,0.0,0.0,0.0,0.0,0.0,0.0,0.0,0.0,0.0,0.0,0.0,0.0,0.0,0.0,0.0,0.0,0.0,0.0,0.0,0.0,0.0,0.0,0.0,0.0,0.0,0.0,0.0,0.0,0.0,0.0,0.0,0.0,0.0,0.0,0.0,0.0,0.0,0.0,0.0,0.0,0.0,0.0,0.0,0.0,0.0,0.0,0.0,0.0,0.0,0.0,0.0,0.0,0.0,0.0,0.0,0.0,0.0,0.0,0.0,0.0,0.0,0.0,0.0,0.0,0.0,0.0,0.0,0.0,0.0,0.0,0.0,0.0,0.0,0.0,0.0,0.0,0.0,0.0,0.0,0.0,0.0,0.0,0.0,0.0,0.0,0.0,0.0,0.0,0.0,0.0,1.1591,1.1591,1.1591,1.1591,1.1591,1.1397,1.1272,0.0,0.0,0.0,0.0,0.0,0.0,0.0,0.0,0.0,0.0,0.0,0.0,0.0,0.0,0.0,0.0,0.0,0.0,0.0,0.0,0.0,0.0,0.0,0.0,0.0,0.0,0.0,0.0,0.0,0.0,0.0,0.0,0.0,0.0,0.0,0.0,0.0,0.0,0.0,0.0,0.0,0.0,0.0,0.0,0.0,0.0,0.0,0.0,1.8105,0.0,0.0,0.0,0.0,0.0,0.0,0.0,0.0,0.0,0.0,0.0,0.0,0.0,0.0,0.0,0.0,0.0,0.0,0.0,0.0,0.0,0.0,0.0,0.0,0.0,0.0,0.0,0.0,0.0,0.0,0.0,0.0,0.0,0.0,0.0,0.0,0.0,0.0,0.0,0.0,0.0,0.0,0.0,0.0,0.0,0.0,0.0,0.0,0.0,0.0,0.0,0.0,0.0,0.0,0.0,0.0,0.0,0.0,0.0,1.184,1.1692,1.1685,1.1685,1.1591,1.149,1.1404,0.0,0.0,0.0,0.0,0.0,0.0,0.0,0.0,0.0,0.0,0.0,0.0,0.0,0.0,0.0,0.0,0.0,0.0,0.0,0.0,0.0,0.0,0.0,0.0,0.0,0.0,0.0,0.0,0.0,0.0,0.0,0.0,0.0,0.0,0.0,0.0,0.0,0.0,0.0,0.0,0.0,0.0,0.0,0.0,0.0,0.0,0.0,0.0,0.0,0.0,0.0,0.0,0.0,0.0,0.0,0.0,0.0,0.0,0.0,0.0,0.0,0.0,0.0,0.0,0.0,0.0,0.0,0.0,0.0,0.0,0.0,0.0,0.0,0.0,0.0,0.0,0.0,0.0,0.0,0.0,0.0,0.0,0.0,0.0,0.0,0.0,0.0,0.0,0.0,0.0,0.0,0.0,0.0,0.0,0.0,0.0,0.0,0.0,0.0,0.0,0.0,0.0,0.0,0.0,0.0,0.0,0.0,1.2213,1.2157,1.1855,1.184,1.1778,1.1654,1.1654,1.1529,1.1327,0.0,0.0,0.0,0.0,0.0,0.0,0.0,0.0,0.0,0.0,0.0,0.0,0.0,0.0,0.0,0.0,0.0,0.0,0.0,0.0,0.0,0.0,0.0,0.0,0.0,0.0,0.0,0.0,0.0,0.0,0.0,0.0,0.0,0.0,0.0,0.0,0.0,0.0,1.5059,1.598,0.0,0.0,0.0,0.0,0.0,0.0,0.0,0.0,1.948,0.0,0.0,0.0,0.0,0.0,0.0,0.0,0.0,0.0,0.0,0.0,0.0,0.0,0.0,0.0,0.0,0.0,0.0,0.0,0.0,0.0,0.0,0.0,0.0,0.0,0.0,0.0,0.0,0.0,0.0,0.0,0.0,0.0,0.0,0.0,0.0,0.0,0.0,0.0,0.0,0.0,0.0,0.0,0.0,0.0,0.0,0.0,0.0,0.0,0.0,0.0,0.0,0.0,0.0,0.0,0.0,1.2274,1.2173,1.2119,1.2034,1.2058,1.1965,1.1778,1.1771,1.1677,1.1531,0.0,0.0,0.0,0.0,0.0,0.0,0.0,0.0,0.0,0.0,0.0,0.0,0.0,0.0,0.0,0.0,0.0,0.0,0.0,0.0,0.0,0.0,0.0,0.0,0.0,0.0,0.0,0.0,0.0,0.0,0.0,0.0,0.0,0.0,0.0,0.0,0.0,0.0,0.0,1.7174,1.7876,0.0,0.0,0.0,0.0,0.0,0.0,0.0,0.0,2.04,0.0,0.0,0.0,0.0,0.0,0.0,0.0,0.0,0.0,0.0,0.0,0.0,0.0,0.0,0.0,0.0,0.0,0.0,0.0,0.0,0.0,0.0,0.0,0.0,0.0,0.0,0.0,0.0,0.0,0.0,0.0,0.0,0.0,0.0,0.0,0.0,0.0,0.0,0.0,0.0,0.0,0.0,0.0,0.0,0.0,0.0,0.0,0.0,0.0,0.0,0.0,0.0,0.0,0.0,0.0,1.2537,1.2578,1.2492,1.2352,1.2375,1.222,1.1965,1.1965,1.1941,0.0,0.0,0.0,0.0,0.0,0.0,0.0,0.0,0.0,0.0,0.0,0.0,0.0,0.0,0.0,0.0,0.0,0.0,0.0,0.0,0.0,0.0,0.0,0.0,0.0,0.0,0.0,0.0,0.0,0.0,0.0,0.0,0.0,0.0,0.0,0.0,0.0,0.0,0.0,0.0,1.7507,1.7982,1.8331,0.0,0.0,0.0,0.0,0.0,0.0,2.0458,2.0615,0.0,0.0,0.0,0.0,0.0,0.0,0.0,0.0,0.0,0.0,0.0,0.0,0.0,0.0,0.0,0.0,0.0,0.0,0.0,0.0,0.0,0.0,0.0,0.0,0.0,0.0,0.0,0.0,0.0,0.0,0.0,0.0,0.0,0.0,0.0,0.0,0.0,0.0,0.0,0.0,0.0,0.0,0.0,0.0,0.0,0.0,0.0,0.0,0.0,0.0,0.0,0.0,0.0,0.0,0.0,1.2913,1.301,1.2963,1.2752,1.2744,1.259,1.2243,1.222,1.2182,0.0,0.0,0.0,0.0,0.0,0.0,0.0,0.0,0.0,0.0,0.0,0.0,0.0,0.0,0.0,0.0,0.0,0.0,0.0,0.0,0.0,0.0,0.0,0.0,0.0,0.0,0.0,0.0,0.0,0.0,0.0,0.0,0.0,0.0,0.0,0.0,0.0,0.0,0.0,0.0,0.0,1.8199,1.8643,1.9367,0.0,0.0,0.0,0.0,2.0615,2.0615,0.0,0.0,0.0,0.0,0.0,0.0,0.0,0.0,0.0,0.0,0.0,0.0,0.0,0.0,0.0,0.0,0.0,0.0,0.0,0.0,0.0,0.0,0.0,0.0,0.0,0.0,0.0,0.0,0.0,0.0,0.0,0.0,0.0,0.0,0.0,0.0,0.0,0.0,0.0,0.0,0.0,0.0,0.0,0.0,0.0,0.0,0.0,0.0,0.0,0.0,0.0,0.0,0.0,0.0,0.0,0.0,1.3246,1.3258,1.325,1.3208,1.3216,1.3064,1.2713,1.2621,1.2436,0.0,0.0,0.0,0.0,0.0,0.0,0.0,0.0,0.0,0.0,0.0,0.0,0.0,0.0,0.0,0.0,0.0,0.0,0.0,0.0,0.0,0.0,0.0,0.0,0.0,0.0,0.0,0.0,0.0,0.0,0.0,0.0,0.0,0.0,0.0,0.0,0.0,0.0,0.0,0.0,0.0,1.926,1.967,2.0147,2.0488,0.0,0.0,2.0605,2.0615,2.0615,0.0,0.0,0.0,0.0,0.0,0.0,0.0,0.0,0.0,0.0,0.0,0.0,0.0,0.0,0.0,0.0,0.0,0.0,0.0,0.0,0.0,0.0,0.0,0.0,0.0,0.0,0.0,0.0,0.0,0.0,0.0,0.0,0.0,0.0,0.0,0.0,0.0,0.0,0.0,0.0,0.0,0.0,0.0,0.0,0.0,0.0,0.0,0.0,0.0,0.0,0.0,0.0,0.0,0.0,0.0,1.3498,1.358,1.358,1.358,1.358,1.358,1.3296,1.2766,1.2896,1.2821,0.0,0.0,0.0,0.0,0.0,0.0,0.0,0.0,0.0,0.0,0.0,0.0,0.0,0.0,0.0,0.0,0.0,0.0,0.0,0.0,0.0,0.0,0.0,0.0,0.0,0.0,0.0,0.0,0.0,0.0,0.0,0.0,0.0,0.0,0.0,0.0,0.0,0.0,0.0,0.0,0.0,0.0,1.9853,2.0293,0.0,0.0,0.0,2.0195,2.0195,0.0,0.0,0.0,0.0,0.0,0.0,0.0,0.0,0.0,0.0,0.0,0.0,0.0,0.0,0.0,0.0,0.0,0.0,0.0,0.0,0.0,0.0,0.0,0.0,0.0,0.0,0.0,0.0,0.0,0.0,0.0,0.0,0.0,0.0,0.0,0.0,0.0,0.0,0.0,0.0,0.0,0.0,0.0,0.0,0.0,0.0,0.0,0.0,0.0,0.0,0.0,0.0,0.0,0.0,0.0,0.0,0.0,1.398,1.4001,1.4031,1.4031,1.3883,1.3549,1.2934,1.3046,0.0,0.0,0.0,0.0,0.0,0.0,0.0,0.0,0.0,0.0,0.0,0.0,0.0,0.0,0.0,0.0,0.0,0.0,0.0,0.0,0.0,0.0,0.0,0.0,0.0,0.0,0.0,1.2564,0.0,0.0,0.0,0.0,0.0,0.0,0.0,0.0,0.0,0.0,0.0,0.0,0.0,0.0,1.9434,1.9816,2.0195,2.0439,0.0,0.0,1.9951,2.0059,1.999,1.9951,0.0,0.0,0.0,0.0,0.0,0.0,0.0,0.0,0.0,0.0,0.0,0.0,0.0,0.0,0.0,0.0,0.0,0.0,0.0,0.0,0.0,0.0,0.0,0.0,0.0,0.0,0.0,0.0,0.0,0.0,0.0,0.0,0.0,0.0,0.0,0.0,0.0,0.0,0.0,0.0,0.0,0.0,0.0,0.0,0.0,0.0,0.0,0.0,0.0,0.0,0.0,0.0,0.0,0.0,1.427,1.444,1.4567,1.4617,1.4617,1.4141,1.3758,1.3541,1.2939,1.2624,0.0,0.0,0.0,0.0,0.0,0.0,0.0,0.0,0.0,0.0,0.0,0.0,0.0,0.0,0.0,0.0,0.0,0.0,0.0,0.0,0.0,0.0,0.0,0.0,0.0,0.0,0.0,0.0,0.0,0.0,0.0,0.0,0.0,0.0,0.0,0.0,0.0,0.0,0.0,0.0,0.0,1.9443,1.9853,1.9941,1.9961,0.0,1.9932,2.0059,2.0498,2.0185,2.0059,2.0449,0.0,0.0,0.0,0.0,0.0,0.0,0.0,0.0,0.0,0.0,0.0,0.0,0.0,0.0,0.0,0.0,0.0,0.0,0.0,0.0,0.0,0.0,0.0,0.0,0.0,0.0,0.0,0.0,0.0,0.0,0.0,0.0,0.0,0.0,0.0,0.0,0.0,0.0,0.0,0.0,0.0,0.0,0.0,0.0,0.0,0.0,0.0,0.0,0.0,0.0,0.0,0.0,0.0,1.4538,1.4617,1.4784,1.4872,1.4863,1.442,1.396,1.3543,1.3232,1.2942,0.0,0.0,0.0,0.0,0.0,0.0,0.0,0.0,0.0,0.0,0.0,0.0,0.0,0.0,0.0,0.0,0.0,0.0,0.0,0.0,0.0,0.0,0.0,0.0,0.0,0.0,0.0,0.0,1.4521,1.5098,1.5898,0.0,0.0,0.0,0.0,0.0,0.0,0.0,0.0,0.0,0.0,1.981,2.02,2.0157,0.0,0.0,1.9959,1.9971,2.0146,2.0029,1.9971,2.0137,2.0381,0.0,0.0,0.0,0.0,0.0,0.0,0.0,0.0,0.0,0.0,0.0,0.0,0.0,0.0,0.0,0.0,0.0,0.0,0.0,0.0,0.0,0.0,0.0,0.0,0.0,0.0,0.0,0.0,0.0,0.0,0.0,0.0,0.0,0.0,0.0,0.0,0.0,0.0,0.0,0.0,0.0,0.0,0.0,0.0,0.0,0.0,0.0,0.0,0.0,0.0,0.0,0.0,1.4813,1.4834,1.502,1.508,1.4965,1.4459,1.3948,1.3442,1.324,1.2939,0.0,0.0,0.0,0.0,0.0,0.0,0.0,0.0,0.0,0.0,0.0,0.0,0.0,0.0,0.0,0.0,0.0,0.0,0.0,0.0,0.0,0.0,0.0,0.0,0.0,0.0,0.0,0.0,1.4902,1.5625,1.6765,0.0,0.0,0.0,0.0,0.0,0.0,0.0,0.0,0.0,0.0,2.0133,2.0326,2.0266,2.0158,2.0212,2.0072,2.0026,2.0078,2.001,1.9961,2.0088,0.0,0.0,0.0,0.0,0.0,0.0,0.0,0.0,0.0,0.0,0.0,0.0,0.0,0.0,0.0,0.0,0.0,0.0,0.0,0.0,0.0,0.0,0.0,0.0,0.0,0.0,0.0,1.3999,0.0,0.0,1.4107,0.0,0.0,0.0,0.0,0.0,0.0,0.0,0.0,0.0,0.0,0.0,0.0,0.0,0.0,0.0,0.0,0.0,0.0,0.0,0.0,0.0,0.0,1.5068,1.5195,1.5313,1.5186,1.4814,1.4276,1.378,1.333,1.2792,1.2533,1.2524,0.0,0.0,0.0,0.0,0.0,0.0,0.0,0.0,0.0,0.0,0.0,0.0,0.0,0.0,0.0,0.0,0.0,0.0,0.0,0.0,0.0,0.0,0.0,0.0,0.0,0.0,1.5313,1.5771,1.6408,0.0,0.0,0.0,0.0,0.0,0.0,0.0,0.0,0.0,2.0839,2.0576,2.0334,2.0175,2.0129,2.0157,2.0217,2.0212,2.0286,2.0507,2.0195,2.0059,0.0,0.0,0.0,0.0,0.0,0.0,0.0,0.0,0.0,0.0,0.0,0.0,0.0,0.0,0.0,0.0,0.0,0.0,0.0,0.0,0.0,0.0,0.0,0.0,0.0,0.0,0.0,1.5346,1.5177,0.0,0.0,0.0,0.0,0.0,0.0,0.0,0.0,0.0,0.0,0.0,1.6192,1.6605,0.0,0.0,0.0,0.0,0.0,0.0,0.0,0.0,0.0,0.0,0.0,0.0,1.5335,1.5225,1.5332,1.5205,1.4795,1.4311,1.3856,1.3449,1.2997,1.2759,1.2759,0.0,0.0,0.0,0.0,0.0,0.0,0.0,0.0,0.0,0.0,0.0,0.0,0.0,0.0,0.0,0.0,0.0,0.0,0.0,0.0,0.0,0.0,0.0,0.0,0.0,1.5811,0.0,0.0,0.0,0.0,0.0,0.0,0.0,0.0,0.0,0.0,0.0,2.1805,2.2019,2.1717,2.1384,2.1203,2.0912,2.0682,0.0,0.0,0.0,0.0,0.0,0.0,0.0,0.0,0.0,0.0,0.0,0.0,0.0,0.0,2.1044,2.0683,2.0615,2.0615,2.0615,0.0,0.0,0.0,0.0,0.0,0.0,0.0,0.0,0.0,0.0,0.0,0.0,0.0,0.0,1.6353,1.6104,1.5936,0.0,0.0,0.0,0.0,0.0,0.0,0.0,0.0,1.6926,1.6822,1.6908,1.7273,1.7376,0.0,1.7409,1.7364,0.0,0.0,0.0,0.0,0.0,0.0,0.0,0.0,1.5596,1.5525,1.5439,1.5137,1.458,1.425,1.3841,1.3311,1.3018,1.2915,1.2915,1.2915,1.2915,0.0,0.0,0.0,0.0,0.0,0.0,0.0,0.0,0.0,0.0,0.0,0.0,0.0,0.0,0.0,0.0,0.0,0.0,0.0,0.0,0.0,0.0,0.0,1.6589,0.0,0.0,0.0,0.0,0.0,0.0,0.0,0.0,0.0,2.1501,2.2035,2.2499,2.2661,2.2477,2.2197,2.1944,0.0,0.0,0.0,0.0,0.0,0.0,0.0,2.0615,2.0615,2.0732,2.0947,2.1387,2.1699,2.1748,2.1268,0.0,0.0,2.0683,2.0615,2.0615,2.0615,2.0615,2.0615,2.0615,2.0615,2.0615,0.0,0.0,0.0,0.0,1.7154,0.0,0.0,0.0,1.6728,1.6619,0.0,1.6707,0.0,0.0,0.0,0.0,1.7325,1.7451,0.0,0.0,1.7679,1.7682,1.7952,1.7799,1.7881,1.8231,1.8333,1.8544,1.8693,1.7116,0.0,0.0,0.0,0.0,0.0,0.0,1.5932,1.6075,1.5625,1.4972,1.4126,1.4114,1.373,1.2954,1.2915,1.2915,1.2915,1.2915,1.2915,1.2915,1.2915,0.0,0.0,0.0,0.0,0.0,0.0,0.0,0.0,0.0,0.0,0.0,0.0,0.0,0.0,0.0,0.0,0.0,0.0,0.0,0.0,1.6671,0.0,0.0,0.0,0.0,0.0,0.0,0.0,0.0,0.0,0.0,2.214,2.2665,2.2937,2.2703,0.0,0.0,0.0,0.0,2.1955,2.1811,2.1474,2.1167,2.0945,2.0731,2.0605,2.0605,0.0,0.0,2.1758,2.1877,2.168,2.1289,2.1151,2.1034,2.0693,2.0615,2.0615,2.0615,2.0615,2.0615,2.0615,2.0615,2.0615,1.7304,0.0,0.0,0.0,0.0,1.7489,1.76,1.7947,1.7695,1.7447,1.7197,1.7187,0.0,0.0,0.0,0.0,0.0,0.0,1.8231,1.8473,1.8166,1.7935,1.7784,1.8078,1.8324,1.8566,1.8805,1.8922,1.8977,1.8377,1.786,1.7503,0.0,0.0,0.0,0.0,1.6181,1.6064,1.5635,1.4972,1.4124,1.4114,1.3704,1.2925,1.2915,1.2915,1.2915,1.2915,1.2915,1.2915,1.2915,0.0,0.0,0.0,0.0,0.0,0.0,0.0,0.0,0.0,0.0,0.0,0.0,0.0,0.0,0.0,0.0,0.0,0.0,0.0,1.7316,1.754,1.78,0.0,0.0,0.0,0.0,0.0,0.0,0.0,0.0,0.0,2.3361,2.3519,2.3658,0.0,0.0,2.3682,2.3282,2.2941,2.2541,2.208,2.1797,0.0,2.1177,2.0935,2.0819,2.0819,2.0801,2.0801,2.0957,2.0977,2.0948,2.0781,2.0762,2.0742,2.0644,2.0615,2.0615,2.0615,2.0615,2.0615,2.0615,2.0615,2.0615,1.7803,1.752,1.7735,1.7974,1.8178,1.8066,1.8158,1.8381,1.8202,1.7972,1.777,1.776,1.7668,1.7519,1.7745,0.0,0.0,0.0,1.9095,1.9235,1.8907,1.8588,1.8288,1.851,1.8603,1.8663,1.904,1.919,1.9111,1.8982,1.8674,1.8202,0.0,0.0,1.7431,1.6828,1.6466,1.6318,1.5732,1.5078,1.4377,1.4036,1.3564,1.2944,1.2915,1.2915,1.2915,1.2915,1.2915,1.2915,1.2915,1.2915,0.0,0.0,0.0,0.0,0.0,0.0,0.0,0.0,0.0,0.0,0.0,1.5231,1.537,0.0,0.0,0.0,1.7128,1.7658,1.8061,1.832,0.0,0.0,0.0,0.0,0.0,0.0,0.0,2.2513,2.3089,2.3634,2.4154,2.4334,2.4406,2.4418,2.4465,2.4309,2.3897,0.0,2.315,2.2553,2.2138,2.1807,2.1464,2.1138,2.0867,2.079,2.0683,2.0605,2.0615,2.0615,2.0615,2.0615,2.0615,2.0615,2.0615,2.0615,2.0615,2.0615,2.0615,2.0615,2.0615,2.0615,2.0615,1.8008,1.8032,1.8212,1.8381,1.8482,1.8482,1.8516,1.8516,1.8371,1.8313,1.8313,1.8313,1.8337,1.8405,1.8898,0.0,1.9638,1.9977,2.0099,2.0056,1.9753,1.9414,1.9041,1.8901,1.8765,1.8623,1.9086,1.9248,1.9104,1.9078,1.8867,1.8549,1.8405,1.8236,1.7959,1.7126,1.6697,1.6719,1.5859,1.5234,1.4841,1.4011,1.3369,1.3032,1.2974,1.2964,1.2954,1.2925,1.2915,1.2954,1.2964,1.2974,1.2978,0.0,0.0,0.0,0.0,0.0,0.0,0.0,0.0,0.0,0.0,0.0,0.0,0.0,0.0,0.0,1.794,0.0,1.853,1.9046,0.0,0.0,0.0,2.1053,2.2133,2.1894,2.2123,2.3405,0.0,0.0,2.4566,2.4862,2.4933,2.4743,2.4743,2.4612,2.4158,2.3895,2.3602,2.2889,2.2376,2.1947,2.1648,2.1189,2.0788,2.0673,2.0605,2.0605,2.0615,2.0615,2.0615,2.0615,2.0615,2.0615,2.0615,2.0615,2.0615,2.0615,2.0615,2.0615,2.0615,2.0615,2.0615,1.8076,1.8245,1.8269,1.8371,1.8482,1.8482,1.8573,1.8707,1.8438,1.8313,1.8313,1.8313,1.8539,1.8931,1.9308,1.966,2.002,2.0388,2.025,1.973,1.9771,1.9384,1.8592,1.8542,1.8545,1.86,1.8635,1.8797,1.9082,1.902,1.8886,1.8731,1.8674,1.8438,1.7978,1.7126,1.676,1.6918,1.6079,1.5483,1.5174,1.4519,1.4149,1.405,1.3576,1.341,1.3485,1.3131,1.3111,1.3491,1.341,1.348,1.3792,1.3812,0.0,0.0,0.0,0.0,0.0,0.0,0.0,0.0,0.0,1.6258,1.6518,0.0,1.7869,0.0,1.8748,1.9435,1.99,2.0063,0.0,0.0,2.0717,2.1061,2.17,2.1946,2.2318,2.2972,2.3257,2.3506,2.3771,2.3977,2.4112,2.4044,2.4254,2.4107,2.334,2.3052,2.2729,2.2203,2.186,2.1471,2.1057,2.0767,2.0651,2.0818,2.0693,2.0605,2.0605,2.0615,2.0615,2.0615,2.0615,2.0615,2.0615,2.0615,2.0615,2.0615,2.0615,2.0615,2.0615,2.0615,2.0605,1.8076,1.8178,1.8269,1.8337,1.8405,1.8583,1.8751,1.8898,1.8539,1.8438,1.8549,1.8539,1.8774,1.9208,1.9473,1.9835,2.0248,2.0561,2.035,1.9736,1.9872,1.9355,1.8418,1.8406,1.8398,1.8368,1.8391,1.8604,1.8988,1.8933,1.8911,1.8931,1.8841,1.864,1.8317,1.7628,1.7201,1.7065,1.6247,1.5636,1.5295,1.4971,1.4707,1.447,1.4168,1.4023,1.41,1.382,1.38,1.409,1.4023,1.4054,1.4211,1.4257,1.4282,0.0,0.0,0.0,0.0,0.0,0.0,0.0,0.0,0.0,0.0,0.0,1.871,1.9147,1.9717,2.0215,2.07,2.0764,2.0918,2.1285,2.1394,2.1697,2.2269,2.2317,2.2507,2.311,2.3148,2.3254,2.3592,2.3727,2.371,2.3493,2.3598,2.3554,2.3125,2.2922,2.265,2.2045,2.1757,2.1374,2.0705,2.0359,2.0256,2.0272,2.0161,2.0038,2.0038,2.0146,2.0312,2.0283,2.0468,2.0605,2.0615,2.0615,2.0615,2.0586,2.0449,2.04,2.0566,2.0615,2.0566,1.7974,1.8008,1.8118,1.819,1.8257,1.8465,1.8731,1.8916,1.8488,1.8402,1.8611,1.8662,1.8916,1.9267,1.9485,1.99,2.041,2.0604,2.0415,1.9958,1.9924,1.939,1.8499,1.8429,1.8286,1.8107,1.8239,1.8514,1.889,1.8865,1.8945,1.9154,1.8975,1.8908,1.8888,1.8316,1.7784,1.7213,1.6425,1.5837,1.5487,1.5477,1.5256,1.4881,1.4773,1.4742,1.4753,1.4692,1.4682,1.4769,1.4716,1.4677,1.4613,1.4596,1.4711,0.0,1.5041,0.0,0.0,0.0,0.0,0.0,0.0,0.0,0.0,1.8945,1.949,2.0399,2.0625,2.0839,2.1253,2.1285,2.1533,2.2104,2.2194,2.2435,2.2966,2.2648,2.2607,2.3266,2.292,2.289,2.346,2.3601,2.3408,2.2967,2.2875,2.2858,2.2952,2.2923,2.2633,2.2037,2.1684,2.1069,2.0523,2.0063,1.9755,1.9634,1.9511,1.9277,1.9326,1.9609,1.9834,1.9873,2.0117,2.039,2.0439,2.0419,2.0419,2.0361,2.0068,1.998,2.0361,2.041,2.0312,1.7862,1.7978,1.767,1.7622,1.7704,1.7422,1.7642,1.8086,1.7528,1.7346,1.7535,1.8007,1.8516,1.9009,1.9402,1.9878,2.041,2.0604,2.0545,2.0281,2.0028,1.9547,1.8967,1.8592,1.8286,1.8096,1.7912,1.8191,1.8879,1.8633,1.8827,1.9485,1.9473,1.944,1.9408,0.0,0.0,0.0,1.6864,1.6578,1.6511,1.6388,1.6318,1.6214,1.5739,0.0,1.5623,1.5226,1.5205,1.5639,1.5427,0.0,0.0,0.0,0.0,0.0,0.0,0.0,0.0,0.0,0.0,0.0,1.8395,1.8583,1.906,1.9747,2.0364,2.0987,2.1063,2.1253,2.1737,2.1769,2.1879,2.2162,2.2173,2.2253,2.238,2.2308,2.2284,2.2431,2.2339,2.2347,2.251,2.2486,2.2474,2.2402,2.2217,2.2096,2.2024,2.2039,2.1737,2.1079,2.0555,2.0142,2.0289,1.9754,1.9429,1.9695,1.9551,1.9294,1.9248,1.9316,1.9404,1.9404,1.9482,1.9551,1.9551,1.9521,1.958,1.9531,1.9473,1.9531,1.9932,1.9766,1.9502,1.7702,1.7686,1.7471,1.7288,0.0,1.6729,1.6732,1.7024,1.7002,1.7096,1.722,1.7611,1.805,1.849,1.902,1.949,1.9929,2.0364,2.0464,2.0278,1.9854,1.9408,1.8998,1.849,1.8193,1.8084,1.7822,1.8036,1.8611,1.8477,1.876,1.9404,1.9542,1.9553,1.9469,1.8997,1.8368,1.7597,1.7127,1.6909,1.6909,1.6853,1.6797,1.6786,1.6552,0.0,0.0,0.0,0.0,0.0,0.0,0.0,0.0,0.0,0.0,1.5914,1.5961,1.6116,1.6374,1.6581,1.7269,1.858,1.9371,1.982,1.9938,2.0384,2.0807,2.1273,2.1391,2.1612,2.1999,2.2061,2.2092,2.2197,2.2197,2.2197,2.2197,2.2197,2.2197,2.2197,2.2197,2.2197,2.2197,2.2197,2.2197,2.2197,2.203,2.1831,2.173,2.1624,2.1328,2.0765,2.0074,1.969,1.9802,1.9325,1.8917,1.9103,1.8908,1.8697,1.8662,1.8828,1.8975,1.8975,1.9131,1.9277,1.9277,1.9277,1.9277,1.9258,1.9111,1.9033,1.9212,1.9277,1.9209,1.7543,1.734,1.7305,1.7012,1.6551,1.6133,1.5977,1.6007,1.6523,0.0,0.0,1.7225,1.7564,1.7913,1.8479,1.8986,1.9409,1.9962,2.0163,2.0115,1.9614,1.9204,1.8856,1.8324,1.8084,1.8084,1.7838,1.7975,1.8417,1.8419,1.8709,1.9304,1.9566,1.9565,1.9379,1.8759,1.8286,1.7979,1.7414,1.7123,1.7123,1.7151,1.714,1.7151,1.7301,1.7357,1.7329,1.7329,1.7273,1.7123,1.7067,1.6892,1.6573,1.6459,1.6316,1.6058,1.6124,1.6267,1.6459,1.6807,1.7507,1.8682,2.0118,2.0903,2.0797,2.0903,2.1094,2.1431,2.1592,2.1824,2.2154,2.2197,2.2197,2.2197,2.2197,2.2197,2.2197,2.2197,2.2197,2.2197,2.2197,2.2197,2.2197,2.2197,2.2166,2.2123,2.1968,2.1769,2.1592,2.136,2.1126,2.0733,2.0064,1.9583,1.9517,1.9006,1.8549,1.8552,1.8261,1.8008,1.8057,1.8256,1.8461,1.8481,1.8828,1.8984,1.9043,1.9004,1.9062,1.9053,1.8789,1.849,1.852,1.8799,1.8906,1.7384,1.7137,1.6908,1.6572,1.6153,1.5693,1.5498,1.5508,1.5762,1.5959,1.6125,1.6666,1.7069,1.7429,1.7892,1.853,1.9251,1.9453,1.961,1.9741,1.9512,1.9174,1.8726,1.8297,1.8084,1.8084,1.7963,1.8114,1.8526,1.8456,1.887,1.9674,1.9852,1.968,1.9377,1.8854,1.8481,1.832,1.7855,1.7629,1.759,1.7705,1.776,1.776,1.7893,1.792,1.7799,1.7799,1.7744,1.7629,1.7379,1.7211,1.7166,1.679,1.6542,1.6524,1.6524,1.6609,1.6733,1.6909,1.7621,1.9022,2.0367,2.1169,2.1126,2.1169,2.1296,2.1624,2.1667,2.1824,2.2135,2.2197,2.2185,2.2197,2.2197,2.2197,2.2197,2.2197,2.2197,2.2197,2.2197,2.2197,2.2197,2.2197,2.2123,2.1968,2.1824,2.1561,2.1169,2.0882,2.0797,2.0625,2.0064,1.9648,1.9506,1.8975,1.8549,1.8482,1.8202,1.8008,1.8008,1.8076,1.812,1.8105,1.8232,1.8252,1.8252,1.8193,1.8262,1.8281,1.8203,1.8135,1.8144,1.8223,1.8223,1.735,1.7085,1.6808,1.6475,1.6056,1.5625,1.542,1.542,1.5507,1.5633,1.5808,1.6154,1.644,1.6705,1.7329,1.7805,1.8189,1.8702,1.9006,1.9135,1.8948,1.8786,1.8686,1.8269,1.8084,1.8084,1.7963,1.8022,1.8204,1.834,1.8612,1.9089,1.9141,1.9253,1.9349,1.8788,1.8462,1.8406,1.8057,1.7986,1.8068,1.8139,1.8166,1.8154,1.822,1.822,1.8166,1.8084,1.7947,1.781,1.7629,1.7445,1.7306,1.7004,1.674,1.6609,1.6666,1.6722,1.679,1.7633,1.8394,1.9149,2.0254,2.0978,2.1031,2.1126,2.1296,2.1506,2.1537,2.1675,2.1999,2.203,2.2104,2.2197,2.2197,2.2197,2.2197,2.2197,2.2197,2.2197,2.2197,2.2197,2.2197,2.2123,2.203,2.1894,2.1655,2.1296,2.0935,2.069,2.0496,2.0356,1.9944,1.9605,1.945,1.8918,1.8549,1.8482,1.8212,1.8042,1.8008,1.8008,1.8008,1.8008,1.8008,1.8008,1.8008,1.8008,1.8008,1.8008,1.8008,1.8008,1.8008,1.8008,1.8008,1.7326,1.7029,1.6925,1.6562,1.6056,1.5596,1.542,1.542,1.542,1.5478,1.5633,1.5798,1.5961,1.6183,1.6755,1.7149,1.7375,1.7982,1.8335,1.849,1.8393,1.8401,1.8431,1.8185,1.8084,1.8084,1.7991,1.7936,1.7982,1.821,1.8458,1.8678,1.8799,1.9117,1.9673,1.8929,1.8596,1.8639,1.8398,1.8302,1.8437,1.8476,1.8476,1.8449,1.8476,1.8476,1.8383,1.8259,1.8084,1.7897,1.7783,1.7573,1.7351,1.7078,1.6881,1.6694,1.6722,1.6779,1.6917,1.8152,1.8988,1.9171,2.0109,2.0765,2.0839,2.101,2.119,2.1356,2.1388,2.1526,2.18,2.1843,2.1894,2.2073,2.2123,2.2123,2.2123,2.2154,2.2197,2.2197,2.2197,2.2197,2.2123,2.1999,2.1874,2.1706,2.138,2.1063,2.0807,2.0561,2.0335,2.002,1.9769,1.9539,1.9318,1.8852,1.8549,1.8482,1.8212,1.8042,1.8008,1.8008,1.8008,1.8008,1.8008,1.8008,1.8008,1.8008,1.8008,1.8008,1.8008,1.8008,1.8008,1.8008,1.8008,1.7224,1.6897,1.7193,1.6858,1.6075,1.5605,1.543,1.542,1.542,1.542,1.5478,1.5633,1.5836,1.6085,1.6194,1.6603,1.7231,1.7501,1.768,1.7878,1.8115,1.8062,1.7862,1.7888,1.7991,1.8084,1.8084,1.8084,1.8057,1.8125,1.8617,1.9487,1.959,1.9909,2.0382,1.9552,1.9181,1.9472,1.8993,1.8679,1.8598,1.8706,1.8706,1.8587,1.8691,1.8637,1.8433,1.8367,1.822,1.7936,1.7783,1.7629,1.7451,1.706,1.6818,1.679,1.6684,1.6701,1.703,1.8082,1.8808,1.9055,2.0046,2.0701,2.0733,2.0733,2.0903,2.1273,2.1388,2.1463,2.1686,2.173,2.173,2.1792,2.1874,2.1937,2.1956,2.2092,2.2197,2.2197,2.2166,2.2135,2.1968,2.1862,2.1706,2.136,2.1063,2.0807,2.0561,2.041,2.0172,1.9802,1.9615,1.9506,1.9285,1.8852,1.8559,1.8482,1.8212,1.8042,1.8008,1.8008,1.8008,1.8008,1.8008,1.8008,1.8008,1.8008,1.8008,1.8008,1.8008,1.8008,1.8008,1.8008,1.8008,1.7425,1.7336,1.7381,1.6907,1.6114,1.5899,1.5654,1.542,1.542,1.542,1.542,1.5517,1.5662,1.5875,1.6028,1.6273,1.6593,1.6854,1.7055,1.7238,1.7505,1.7678,1.7695,1.7826,1.7963,1.8084,1.8084,1.8084,1.8157,1.8509,1.9067,1.9755,1.9913,2.0287,2.0733,2.0199,1.9937,2.0051,1.9622,1.9347,1.9272,1.9048,1.8866,1.8732,1.8706,1.8598,1.8422,1.8286,1.8111,1.7897,1.7755,1.7656,1.7496,1.7134,1.6881,1.6818,1.6666,1.681,1.7269,1.7989,1.8563,1.8926,1.9736,2.0259,2.0356,2.0464,2.0658,2.0935,2.1051,2.119,2.1403,2.1486,2.158,2.1655,2.1761,2.1792,2.1792,2.1855,2.1886,2.1917,2.1886,2.1886,2.1781,2.1612,2.1348,2.1063,2.0775,2.0561,2.0399,2.0237,1.9976,1.9671,1.9506,1.9341,1.9175,1.8808,1.8549,1.8448,1.8212,1.8008,1.8008,1.8008,1.8008,1.8008,1.8008,1.8008,1.8008,1.8008,1.8008,1.8008,1.8008,1.8008,1.8008,1.8008,1.8008,1.7588,1.7639,1.7482,1.7012,1.6457,1.633,1.6064,1.5761,1.5742,1.5771,1.5771,1.5751,1.5841,1.597,1.6043,1.6066,1.6142,1.6457,1.6666,1.6807,1.7099,1.7368,1.7656,1.7783,1.7909,1.803,1.8084,1.8219,1.8423,1.8846,1.9465,2.0094,2.0317,2.0653,2.1084,2.0801,2.064,2.0621,2.0229,1.9997,1.9961,1.9597,1.9153,1.8807,1.8598,1.8464,1.8313,1.8139,1.7991,1.7854,1.7739,1.7562,1.7357,1.7095,1.6853,1.6715,1.6707,1.6917,1.7421,1.8002,1.851,1.8892,1.9469,1.9868,1.9955,2.0096,2.0237,2.0367,2.0582,2.0764,2.1031,2.1158,2.1296,2.1466,2.1498,2.1561,2.158,2.1667,2.171,2.171,2.173,2.1667,2.1541,2.1296,2.1042,2.0786,2.0496,2.0302,2.0237,1.9998,1.9736,1.9539,1.9384,1.9241,1.9108,1.8774,1.8549,1.8414,1.8245,1.8008,1.8008,1.8008,1.8008,1.8008,1.8008,1.8008,1.8008,1.8008,1.8008,1.8008,1.8008,1.8008,1.8008,1.8008,1.8008,1.7588,1.7658,1.7482,1.7386,1.7308,1.6875,1.6658,1.6551,1.6599,1.6609,1.657,1.659,1.6619,1.6604,1.6178,1.5992,1.6173,1.6501,1.675,1.6892,1.703,1.7239,1.7496,1.7645,1.7794,1.8004,1.8125,1.8492,1.9104,1.9162,1.9697,2.0781,2.087,2.1214,2.1649,2.1324,2.1188,2.1278,2.0851,2.0557,2.0533,2.0318,1.9681,1.8802,1.8526,1.841,1.8173,1.8002,1.7865,1.7711,1.759,1.7385,1.7067,1.6892,1.6736,1.6522,1.6788,1.7085,1.7431,1.8154,1.8733,1.8935,1.935,1.9605,1.9638,1.9704,1.9714,1.9681,1.9987,2.0313,2.0625,2.0754,2.085,2.0967,2.1126,2.1253,2.1368,2.1486,2.1667,2.1635,2.1604,2.1509,2.1233,2.1063,2.0786,2.0485,2.0248,2.0074,1.9922,1.9736,1.955,1.9417,1.9318,1.9252,1.9098,1.8741,1.8516,1.8414,1.8212,1.8008,1.8008,1.8008,1.8008,1.8008,1.8008,1.8008,1.8008,1.8008,1.8008,1.8008,1.8008,1.8008,1.8008,1.8008,1.8008,1.7666,1.7886,1.7818,1.7637,1.7406,1.7217,1.696,1.6707,1.6697,1.6697,1.6697,1.6697,1.6697,1.6709,1.6715,1.6749,1.681,1.7142,1.7432,1.769,1.7739,1.7986,1.8357,1.8242,1.8216,1.8368,1.8537,1.897,1.9639,2.017,2.0659,2.1086,2.1546,2.1851,2.2002,2.1901,2.1848,2.1861,2.1392,2.1056,2.0902,2.0446,1.9912,1.9492,1.9372,1.9136,1.8604,1.8492,1.8176,1.7723,1.749,1.7256,1.7043,1.7066,1.7032,1.685,1.7203,1.7605,1.7978,1.8322,1.8656,1.9002,1.9236,1.9417,1.9417,1.9506,1.9583,1.9615,1.9704,1.9868,2.0031,2.041,2.0733,2.0765,2.085,2.0926,2.0946,2.1022,2.1053,2.1053,2.1053,2.099,2.0882,2.069,2.0485,2.0248,2.0053,1.99,1.9736,1.9539,1.9384,1.9285,1.9119,1.8975,1.8942,1.8674,1.8472,1.8337,1.8168,1.8042,1.8008,1.8008,1.8008,1.8008,1.8008,1.8008,1.8008,1.8008,1.8008,1.8008,1.8008,1.8008,1.8008,1.8008,1.8008,1.7813,1.7974,1.8008,1.7861,1.7641,1.7588,1.7422,1.7126,1.7116,1.7116,1.7106,1.7116,1.7116,1.7181,1.7461,1.7622,1.7604,1.7697,1.7874,1.819,1.8179,1.8464,1.8824,1.8744,1.8751,1.8867,1.9109,1.9576,2.0199,2.0872,2.1314,2.1559,2.1998,2.2197,2.2197,2.2197,2.2197,2.2113,2.1776,2.1493,2.1293,2.0793,2.0467,2.0407,2.0347,1.9945,1.9195,1.8987,1.8667,1.8209,1.7851,1.7554,1.7333,1.7345,1.7324,1.7214,1.7544,1.7881,1.82,1.8354,1.858,1.8867,1.8975,1.9052,1.9119,1.9285,1.9341,1.9407,1.9506,1.9506,1.9605,2.0009,2.0367,2.0464,2.0496,2.0561,2.0701,2.0701,2.0701,2.0733,2.0733,2.0669,2.0529,2.0388,2.0194,1.9987,1.9802,1.9638,1.9506,1.9308,1.9152,1.9108,1.8875,1.8707,1.864,1.8472,1.8405,1.8303,1.8134,1.8042,1.8008,1.8008,1.8008,1.8008,1.8008,1.8008,1.8008,1.8008,1.8008,1.8008,1.8008,1.8008,1.8008,1.8008,1.8008,1.7974,1.8008,1.8008,1.7998,1.7949,1.7949,1.7944,1.791,1.793,1.7871,1.7842,1.793,1.7861,1.8007,1.8221,1.8435,1.8331,1.8046,1.8061,1.8328,1.8307,1.8583,1.9091,1.9175,1.9268,1.9436,1.9742,2.0228,2.0875,2.1181,2.1601,2.2089,2.2149,2.2197,2.2197,2.2197,2.2197,2.2142,2.1928,2.1846,2.1851,2.1452,2.1249,2.1264,2.1169,2.0672,1.978,1.9392,1.9186,1.9041,1.86,1.823,1.784,1.7647,1.7512,1.7574,1.776,1.7928,1.8009,1.8288,1.8479,1.8549,1.8559,1.865,1.8818,1.8841,1.8908,1.9065,1.9208,1.9274,1.9308,1.9517,1.9758,2.0031,2.0107,2.0248,2.0529,2.0637,2.0669,2.0593,2.0572,2.0485,2.0204,2.0074,1.9944,1.9671,1.9473,1.9351,1.9274,1.9042,1.8852,1.8785,1.864,1.8506,1.8405,1.8313,1.8303,1.8269,1.81,1.8008,1.8008,1.8008,1.8008,1.8008,1.8008,1.8008,1.8008,1.8008,1.8008,1.8008,1.8008,1.8008,1.8008,1.8008,1.8008,1.8008,1.8008,1.8008,1.8008,1.8008,1.8008,1.8008,1.8008,1.8008,1.8008,1.8008,1.8008,1.8076,1.8212,1.8405,1.8583,1.8721,1.8775,1.891,1.9105,1.9147,1.9425,1.9826,1.9758,1.9806,2.011,2.0442,2.0892,2.1376,2.1706,2.2022,2.2161,2.2197,2.2197,2.2185,2.2197,2.2123,2.1999,2.1937,2.1788,2.1588,2.1463,2.1368,2.1273,2.1221,2.0954,2.0554,1.9986,1.9496,1.9055,1.8536,1.8109,1.7864,1.7862,1.792,1.7949,1.8162,1.8315,1.8325,1.8425,1.8482,1.8482,1.8482,1.8516,1.8583,1.8617,1.865,1.8707,1.8841,1.8942,1.8975,1.9142,1.9396,1.9726,1.9758,1.9835,1.9966,2.0009,1.9933,1.9933,1.9944,1.9868,1.9802,1.9758,1.966,1.944,1.9318,1.9218,1.8985,1.8841,1.8707,1.8607,1.8472,1.8337,1.8269,1.8212,1.8178,1.8168,1.8076,1.8008,1.8008,1.8008,1.8008,1.8008,1.8008,1.8008,1.8008,1.8008,1.8008,1.8008,1.8008,1.8008,1.8008,1.8008,1.8008,1.8008,1.8008,1.8008,1.8008,1.8008,1.8008,1.8008,1.8008,1.8008,1.8008,1.8008,1.8076,1.8178,1.8303,1.8516,1.8707,1.8942,1.9208,1.944,1.9671,1.9704,1.9998,2.0442,2.0461,2.05,2.078,2.1058,2.1388,2.1769,2.203,2.2197,2.2197,2.2197,2.2123,2.2092,2.2061,2.1999,2.1843,2.1737,2.1632,2.142,2.1368,2.1273,2.1221,2.1201,2.1063,2.0828,2.0407,1.9937,1.937,1.8868,1.847,1.8162,1.8204,1.8215,1.821,1.8225,1.8303,1.8323,1.8259,1.8313,1.8313,1.8313,1.8337,1.8405,1.8414,1.8448,1.8516,1.8617,1.8674,1.8707,1.8774,1.8998,1.9264,1.944,1.9517,1.9583,1.9583,1.9615,1.9648,1.9615,1.9572,1.9506,1.9483,1.9374,1.9185,1.9108,1.9008,1.8741,1.865,1.8539,1.8405,1.8269,1.8212,1.8178,1.811,1.8042,1.8042,1.8042,1.8008,1.8008,1.8008,1.8008,1.8008,1.8008,1.8008,1.8008,1.8008,1.8008,1.8008,1.8008,1.8008,1.8008,1.8008,1.8008,1.8008,1.8008,1.8008,1.8008,1.8008,1.8008,1.8008,1.8008,1.8008,1.8008,1.8042,1.8168,1.8303,1.8405,1.865,1.8875,1.9108,1.9274,1.9539,1.9835,1.9944,2.0205,2.0679,2.091,2.1129,2.133,2.1522,2.1726,2.1874,2.2092,2.2197,2.2197,2.2154,2.2092,2.1968,2.1906,2.1812,2.1686,2.1506,2.142,2.1356,2.1273,2.1221,2.1201,2.1169,2.101,2.0754,2.0537,2.0344,2.002,1.9444,1.904,1.879,1.8607,1.8432,1.8277,1.81,1.8042,1.8008,1.8076,1.8042,1.8076,1.8076,1.8076,1.8236,1.8269,1.8303,1.8414,1.8448,1.8482,1.8482,1.8549,1.865,1.8785,1.9108,1.9341,1.955,1.9539,1.9517,1.9539,1.9583,1.9517,1.9308,1.9285,1.9108,1.8952,1.8818,1.8717,1.8573,1.8438,1.8337,1.8202,1.8144,1.811,1.8076,1.8076,1.8008,1.8008,1.8008,1.8008,1.8008,1.8008,1.8008,1.8008,1.8008,1.8008,1.8008,1.8008,1.8008,1.8008,1.8008,1.8008,1.7998,1.7998,1.7969,1.8008,1.8008,1.8008,1.8008,1.8008,1.8008,1.8008,1.8008,1.8008,1.8008,1.8042,1.8202,1.8371,1.8472,1.8717,1.8985,1.9241,1.944,1.9693,2.0009,2.0194,2.0464,2.0818,2.1063,2.1285,2.1431,2.1612,2.1749,2.1906,2.2104,2.2197,2.2197,2.2049,2.1956,2.1906,2.1812,2.1655,2.1506,2.1431,2.1336,2.1285,2.1221,2.1201,2.1201,2.1074,2.0871,2.0669,2.0172,1.9868,1.9736,1.9473,1.9152,1.8818,1.8617,1.8414,1.8279,1.811,1.8008,1.8008,1.8008,1.8008,1.8008,1.8008,1.8052,1.8076,1.8076,1.811,1.8144,1.8236,1.8347,1.8371,1.8448,1.8516,1.8617,1.8908,1.9142,1.9198,1.9231,1.9241,1.9241,1.9231,1.9175,1.9108,1.9008,1.8908,1.8785,1.865,1.8516,1.8381,1.8303,1.8236,1.81,1.8042,1.8042,1.8008,1.8008,1.8008,1.8008,1.8008,1.8008,1.8008,1.8008,1.8008,1.8008,1.8008,1.8008,1.8008,1.8008,1.8008,1.792,1.7871,1.7812,1.793,1.7969,1.79,1.8008,1.8008,1.8008,1.8008,1.8008,1.8008,1.8008,1.8008,1.8008,1.8042,1.8144,1.8303,1.8472,1.865,1.8885,1.9142,1.9417,1.9638,1.99,2.0226,2.0485,2.0711,2.0924,2.1146,2.138,2.1517,2.1718,2.1886,2.203,2.2166,2.2166,2.2061,2.1956,2.1831,2.1663,2.16,2.1474,2.1368,2.1305,2.1273,2.1233,2.1201,2.1201,2.1169,2.0999,2.0775,2.0421,1.99,1.9605,1.9517,1.9285,1.8952,1.8684,1.8506,1.8347,1.8202,1.8076,1.8008,1.8008,1.8008,1.8008,1.8008,1.8008,1.8008,1.8008,1.8008,1.8008,1.8042,1.81,1.8168,1.8202,1.8313,1.8414,1.8438,1.8684,1.8841,1.8841,1.8841,1.8841,1.8841,1.8841,1.8841,1.8852,1.8741,1.8674,1.8583,1.8482,1.8347,1.8202,1.8168,1.8168,1.8076,1.8008,1.8008,1.8008,1.8008,1.8008,1.8008,1.8008,1.8008,1.8008,1.8008,1.8008,1.8008,1.8008,1.7988,1.7959,1.7871,1.7715,1.7637,1.7617,1.7496,1.7506,1.7589,1.7594,1.8008,1.8008,1.8008,1.8008,1.8008,1.8008,1.8008,1.8008,1.8042,1.8144,1.8313,1.8448,1.8607,1.8818,1.9075,1.9417,1.9615,1.9802,2.0129,2.0453,2.0743,2.0967,2.1019,2.123,2.1474,2.1655,2.1843,2.1999,2.2123,2.2197,2.2092,2.1968,2.1906,2.1706,2.1494,2.1388,2.1305,2.1265,2.1233,2.1233,2.1201,2.1201,2.1201,2.1106,2.0914,2.0571,2.015,1.9758,1.9572,1.9539,1.9085,1.8741,1.8539,1.8371,1.8202,1.8076,1.8008,1.8008,1.8008,1.8008,1.8008,1.8008,1.8008,1.8008,1.8008,1.8008,1.8008,1.8008,1.8008,1.8042,1.8042,1.8178,1.8245,1.8269,1.8371,1.8448,1.8448,1.8482,1.8482,1.8482,1.8516,1.8482,1.8482,1.8482,1.8448,1.8438,1.8347,1.8212,1.81,1.8076,1.8076,1.8042,1.8008,1.8008,1.8008,1.8008,1.8008,1.8008,1.8008,1.8008,1.8008,1.8008,1.8008,1.8008,1.8008,1.793,1.7812,1.7676,1.7428,1.721,1.7057,1.6844,1.6721,1.6935,1.6993,1.8008,1.8008,1.8008,1.8008,1.8008,1.8008,1.8008,1.8008,1.8178,1.8269,1.8371,1.8617,1.8741,1.8852,1.9175,1.9407,1.9671,1.9955,2.0313,2.0807,2.0999,2.119,2.1273,2.1388,2.1537,2.1686,2.1831,2.1987,2.2154,2.2166,2.2104,2.1906,2.1749,2.1612,2.1431,2.1305,2.1221,2.119,2.1201,2.1201,2.1201,2.1201,2.1126,2.0978,2.069,2.0324,1.9998,1.9736,1.9473,1.9208,1.8952,1.8674,1.8516,1.8347,1.8178,1.8042,1.8008,1.8008,1.8008,1.8008,1.8008,1.8008,1.8008,1.8008,1.8008,1.8008,1.8008,1.8008,1.8008,1.8008,1.8008,1.8042,1.8066,1.811,1.811,1.8144,1.8144,1.8313,1.8448,1.8492,1.8448,1.8482,1.8482,1.8381,1.8303,1.8269,1.8202,1.8066,1.8042,1.8008,1.8008,1.8008,1.8008,1.8008,1.8008,1.8008,1.8008,1.8008,1.8008,1.8008,1.8008,1.8008,1.8008,1.8008,1.8008,1.7881,1.7599,1.7218,1.6954,1.6706,1.6462,1.629,1.6194,1.6321,1.6396,1.8008,1.8008,1.8008,1.8008,1.8008,1.811,1.8144,1.8178,1.8313,1.8438,1.8573,1.8751,1.8875,1.9052,1.9308,1.9572,1.99,2.028,2.0624,2.0924,2.1146,2.1336,2.1431,2.1557,2.1706,2.18,2.1968,2.2092,2.2166,2.2104,2.1968,2.1812,2.1643,2.1486,2.1336,2.1221,2.1201,2.1201,2.1201,2.1201,2.1201,2.1201,2.1042,2.0818,2.0529,2.0205,1.9802,1.9638,1.9374,1.9042,1.8774,1.8583,1.8414,1.8236,1.811,1.8042,1.8008,1.8008,1.8008,1.8008,1.8008,1.8008,1.8008,1.8008,1.8008,1.8008,1.8008,1.8008,1.8008,1.8008,1.8008,1.8008,1.8008,1.8008,1.8008,1.8008,1.8042,1.8178,1.8279,1.8279,1.8236,1.8236,1.8202,1.8202,1.8168,1.8134,1.8134,1.8008,1.8008,1.8008,1.8008,1.8008,1.8008,1.8008,1.8008,1.8008,1.8008,1.8008,1.8008,1.8008,1.8008,1.8008,1.8008,1.7978,1.7896,1.7523,1.7267,1.6846,1.6437,1.6119,1.5887,1.573,1.5635,1.5661,1.5714,1.8008,1.8008,1.8042,1.8042,1.8076,1.8236,1.8347,1.8337,1.8472,1.8674,1.8808,1.8875,1.9075,1.9308,1.9539,1.9824,2.0248,2.0603,2.0903,2.1019,2.1242,2.14,2.1494,2.1706,2.1894,2.1968,2.2104,2.2197,2.2092,2.1968,2.1831,2.1655,2.1506,2.138,2.1253,2.1201,2.1201,2.1201,2.1201,2.1201,2.1201,2.1169,2.0978,2.0669,2.0399,2.0074,1.9704,1.955,1.9274,1.8774,1.8607,1.8414,1.8245,1.81,1.8008,1.8008,1.8008,1.8008,1.8008,1.8008,1.8008,1.8008,1.8008,1.8008,1.8008,1.8008,1.8008,1.8008,1.8008,1.8008,1.8008,1.8008,1.8008,1.8008,1.8008,1.8008,1.8008,1.8008,1.8042,1.8042,1.8076,1.811,1.8076,1.8076,1.8042,1.8008,1.8008,1.8008,1.8008,1.8008,1.8008,1.8008,1.8008,1.8008,1.8008,1.8008,1.8008,1.8008,1.8008,1.8008,1.8008,1.8008,1.7988,1.7857,1.7706,1.7325,1.6827,1.6338,1.5901,1.5538,1.5317,1.517,1.5059,1.4979,1.5105,1.8008,1.8008,1.8178,1.8236,1.8279,1.8414,1.8482,1.8482,1.8684,1.8875,1.9042,1.9185,1.9341,1.9572,1.9769,2.0129,2.0529,2.0839,2.0987,2.1146,2.1336,2.1474,2.1643,2.1843,2.1987,2.2123,2.2166,2.2092,2.1999,2.1894,2.1694,2.1494,2.14,2.1305,2.1233,2.1201,2.1201,2.1201,2.1201,2.1201,2.1169,2.1042,2.0818,2.0475,2.0205,1.9911,1.9638,1.9417,1.9108,1.8617,1.8549,1.8347,1.8144,1.8042,1.8008,1.8008,1.8008,1.8008,1.8008,1.8008,1.8008,1.8008,1.8008,1.8008,1.8008,1.8008,1.8008,1.8008,1.8008,1.8008,1.8008,1.8008,1.8008,1.8008,1.8008,1.8008,1.8008,1.8008,1.8008,1.8008,1.8008,1.8008,1.8008,1.8008,1.8008,1.8008,1.8008,1.8008,1.8008,1.8008,1.8008,1.8008,1.8008,1.8008,1.8008,1.8008,1.8008,1.8008,1.8008,1.7974,1.7974,1.8008,1.7935,1.7775,1.7417,1.6975,1.6443,1.5889,1.5416,1.5074,1.4835,1.4625,1.4684,1.4743,1.4852,1.8076,1.8178,1.8236,1.8337,1.8448,1.8573,1.8707,1.8798,1.8985,1.9175,1.933,1.944,1.9572,1.9769,1.9922,2.0313,2.0711,2.0967,2.1146,2.1305,2.1474,2.1643,2.1812,2.1968,2.1999,2.2061,2.203,2.1999,2.1894,2.1694,2.1557,2.1431,2.1336,2.1253,2.1221,2.1201,2.1201,2.1201,2.1201,2.1201,2.1169,2.0946,2.0658,2.0399,2.0107,1.9802,1.9605,1.9417,1.9052,1.8607,1.8482,1.8313,1.811,1.8008,1.8008,1.8008,1.8008,1.8008,1.8008,1.8008,1.8008,1.8008,1.8008,1.8008,1.8008,1.8008,1.8008,1.8008,1.8008,1.8008,1.8008,1.8008,1.8008,1.8008,1.8008,1.8008,1.8008,1.8008,1.8008,1.8008,1.8008,1.8008,1.8008,1.8008,1.8008,1.8008,1.8008,1.8008,1.8008,1.8008,1.8008,1.8008,1.8008,1.8008,1.8008,1.8008,1.8008,1.8008,1.7974,1.794,1.7862,1.7862,1.7803,1.7681,1.7221,1.6634,1.6113,1.5539,1.5065,1.4671,1.4593,1.4545,1.4545,1.4595,1.4714,1.8144,1.8313,1.8371,1.8472,1.865,1.8818,1.9008,1.9208,1.9308,1.945,1.9638,1.9704,1.9835,1.9987,2.0215,2.0506,2.0903,2.1106,2.1242,2.14,2.158,2.1761,2.1906,2.203,2.2049,2.1925,2.1788,2.1788,2.1726,2.1557,2.1431,2.1348,2.1265,2.1201,2.1201,2.1201,2.1201,2.1201,2.1201,2.1201,2.1042,2.0786,2.054,2.0346,2.0042,1.9769,1.9605,1.9384,1.9008,1.865,1.8448,1.8337,1.8076,1.7974,1.794,1.794,1.7964,1.8008,1.8008,1.8008,1.8008,1.8008,1.8008,1.8008,1.8008,1.8008,1.8008,1.8008,1.8008,1.8008,1.8008,1.8008,1.8008,1.8008,1.8008,1.8008,1.8008,1.8008,1.8008,1.8008,1.8008,1.8008,1.8008,1.8008,1.8008,1.8008,1.8008,1.8008,1.8008,1.8008,1.8008,1.8008,1.8008,1.8008,1.8008,1.8008,1.8008,1.8008,1.793,1.7862,1.7759,1.7716,1.7588,1.7457,1.6779,1.6194,1.5716,1.5294,1.4853,1.4563,1.4524,1.4485,1.4515,1.4543,1.466,1.8269,1.8327,1.8607,1.8841,1.9042,1.9175,1.9341,1.9539,1.9572,1.9671,1.9868,2.0009,2.015,2.0367,2.0646,2.0807,2.0967,2.1126,2.1316,2.1463,2.1643,2.1781,2.1874,2.1937,2.1925,2.1831,2.1588,2.1482,2.1451,2.142,2.1336,2.1253,2.1233,2.1201,2.1201,2.1201,2.1201,2.1201,2.1201,2.1074,2.0786,2.0561,2.0378,2.0118,1.9846,1.9638,1.9572,1.9308,1.8942,1.8583,1.8482,1.8313,1.8042,1.7808,1.774,1.7774,1.7896,1.8008,1.7974,1.7974,1.8008,1.8008,1.8008,1.8008,1.8008,1.8008,1.8008,1.8008,1.8008,1.8008,1.8008,1.8008,1.8008,1.8008,1.8008,1.8008,1.8008,1.8008,1.8008,1.8008,1.8008,1.8008,1.8008,1.8008,1.8008,1.8008,1.8008,1.8008,1.8008,1.8008,1.8008,1.8008,1.8008,1.8008,1.8008,1.8008,1.7964,1.7964,1.7896,1.775,1.7613,1.751,1.7407,1.7116,1.6473,1.6047,1.5765,1.5337,1.4717,1.4485,1.4485,1.4485,1.4485,1.457,1.4719,1.8482,1.8596,1.8841,1.9075,1.9241,1.9407,1.9583,1.9769,1.9857,1.9987,2.0205,2.0356,2.0518,2.0711,2.086,2.0967,2.1094,2.1242,2.1411,2.158,2.1749,2.1843,2.1906,2.1894,2.1831,2.1632,2.1494,2.138,2.1336,2.1273,2.1253,2.1233,2.1201,2.1201,2.1201,2.1201,2.1201,2.1169,2.1063,2.0914,2.0701,2.0508,2.0302,2.0107,1.9769,1.9648,1.9506,1.9274,1.8908,1.8583,1.8482,1.8269,1.7964,1.774,1.7672,1.7588,1.7666,1.7735,1.7828,1.7828,1.7896,1.7974,1.8008,1.8008,1.8008,1.8008,1.8008,1.8008,1.8008,1.8008,1.8008,1.8008,1.8008,1.8008,1.8008,1.8008,1.8008,1.8008,1.8008,1.8008,1.8008,1.8008,1.8008,1.8008,1.8008,1.8008,1.8008,1.8008,1.8008,1.8008,1.8008,1.8008,1.8008,1.8008,1.8008,1.8008,1.7886,1.7852,1.7818,1.7681,1.7442,1.7304,1.7201,1.6995,1.6529,1.6178,1.5882,1.5305,1.4653,1.4522,1.4485,1.4513,1.4568,1.4873,1.5099,1.8785,1.8942,1.9075,1.9274,1.9483,1.9638,1.9846,2.0031,2.0183,2.0356,2.0496,2.0658,2.0818,2.0935,2.0987,2.1083,2.1242,2.1356,2.1537,2.1706,2.18,2.1831,2.1831,2.1831,2.1632,2.1388,2.1368,2.1316,2.1265,2.1201,2.1233,2.1201,2.1201,2.1201,2.1201,2.1201,2.1201,2.1169,2.0967,2.0818,2.0669,2.0443,2.0248,2.0042,1.9835,1.9648,1.9583,1.9308,1.8975,1.8583,1.8482,1.8269,1.7818,1.7681,1.7545,1.7461,1.7392,1.7417,1.7545,1.7647,1.775,1.7896,1.8008,1.8008,1.8008,1.8008,1.8008,1.8008,1.8008,1.8008,1.8008,1.8008,1.8008,1.8008,1.8008,1.8008,1.8008,1.8008,1.8008,1.8008,1.8008,1.8008,1.8008,1.8008,1.8008,1.8008,1.8008,1.8008,1.8008,1.8008,1.8008,1.8008,1.8008,1.8008,1.8008,1.7964,1.7852,1.775,1.7681,1.7579,1.7339,1.7166,1.7063,1.6812,1.6535,1.6312,1.6048,1.5307,1.4625,1.4531,1.4504,1.4586,1.4744,1.5065,1.554,1.9142,1.9285,1.9285,1.9517,1.9878,2.0009,2.0194,2.0378,2.0561,2.0637,2.0701,2.0818,2.0999,2.1138,2.1158,2.1242,2.1388,2.1388,2.1588,2.1737,2.1792,2.1781,2.1737,2.1588,2.1463,2.1368,2.1316,2.1221,2.1221,2.1201,2.1201,2.1201,2.1201,2.1201,2.1201,2.1201,2.1169,2.1106,2.0882,2.0722,2.0572,2.0346,2.0151,2.0074,1.9944,1.9813,1.9615,1.9384,1.9019,1.8549,1.8482,1.8212,1.7784,1.7632,1.7461,1.7254,1.7116,1.7141,1.7245,1.7417,1.7598,1.7725,1.7852,1.7964,1.793,1.8008,1.8008,1.8008,1.8008,1.8008,1.8008,1.8008,1.8008,1.8008,1.8008,1.8008,1.8008,1.8008,1.8008,1.8008,1.8008,1.8008,1.8008,1.8008,1.8008,1.8008,1.8008,1.8008,1.8008,1.8008,1.8008,1.8008,1.8008,1.8008,1.8008,1.793,1.7828,1.7647,1.7554,1.7407,1.7235,1.7072,1.6968,1.6851,1.667,1.6407,1.6169,1.562,1.5117,1.4677,1.4577,1.49,1.523,1.5597,1.6114,1.9231,1.9517,1.9693,1.9889,2.0009,2.0226,2.0399,2.0572,2.0754,2.0914,2.101,2.1074,2.1126,2.1221,2.1305,2.1356,2.142,2.1632,2.1737,2.1781,2.1781,2.1737,2.162,2.1494,2.1368,2.1285,2.1233,2.1201,2.1201,2.1201,2.1201,2.1201,2.1201,2.1201,2.1201,2.1201,2.1138,2.101,2.0818,2.0669,2.0475,2.0281,2.0118,2.0085,1.9976,1.9802,1.9605,1.9374,1.9008,1.865,1.8516,1.8144,1.7691,1.7539,1.7358,1.7081,1.6943,1.6978,1.7047,1.721,1.7382,1.7564,1.7725,1.7818,1.7818,1.7896,1.7974,1.8008,1.7974,1.7974,1.8008,1.8008,1.8008,1.8008,1.8008,1.8008,1.8008,1.8008,1.8008,1.8008,1.8008,1.8008,1.8008,1.8008,1.8008,1.8008,1.8008,1.8008,1.8008,1.8008,1.8008,1.7974,1.7974,1.7964,1.7964,1.7862,1.7759,1.7588,1.7426,1.7279,1.7141,1.7038,1.689,1.6835,1.678,1.6597,1.6334,1.605,1.5647,1.5221,1.5212,1.545,1.579,1.6101,1.6565,1.9429,1.9758,2.0053,2.0183,2.0215,2.0464,2.0625,2.0754,2.0935,2.1083,2.1253,2.1253,2.1328,2.136,2.1443,2.1506,2.1569,2.1706,2.1749,2.1749,2.1675,2.16,2.1463,2.1336,2.1273,2.1233,2.1201,2.1201,2.1201,2.1201,2.1201,2.1201,2.1201,2.1201,2.1201,2.1201,2.1094,2.0903,2.0754,2.0604,2.041,2.0216,2.0118,2.0118,2.0009,1.9835,1.9638,1.944,1.9085,1.8717,1.8414,1.8144,1.7735,1.7426,1.7289,1.7047,1.6908,1.6908,1.6943,1.7072,1.7245,1.7392,1.7554,1.7623,1.7691,1.7759,1.7803,1.7837,1.7847,1.7872,1.7896,1.7896,1.793,1.7964,1.8008,1.8008,1.8008,1.8008,1.8008,1.8008,1.8008,1.7974,1.7862,1.7828,1.7906,1.794,1.8008,1.8008,1.8008,1.8008,1.8008,1.7974,1.793,1.7896,1.7886,1.7759,1.7588,1.7442,1.7279,1.7176,1.7038,1.6943,1.6908,1.6881,1.6817,1.6734,1.6615,1.6441,1.6111,1.5725,1.5808,1.5927,1.6074,1.6382,1.6773,1.9758,2.0107,2.0324,2.041,2.0432,2.0743,2.0903,2.0935,2.1094,2.1242,2.1356,2.1388,2.1463,2.158,2.158,2.158,2.1612,2.1686,2.1698,2.1655,2.1537,2.142,2.1368,2.1285,2.1221,2.1201,2.1201,2.1201,2.1201,2.1201,2.1201,2.1201,2.1201,2.1201,2.1201,2.1201,2.1106,2.0903,2.0754,2.0604,2.0378,2.0183,2.0118,2.0118,2.0085,1.9911,1.9638,1.9583,1.9185,1.8617,1.8516,1.8144,1.7608,1.7505,1.7289,1.6968,1.6908,1.6908,1.6908,1.7097,1.7166,1.7245,1.7382,1.7495,1.7495,1.7539,1.7573,1.7632,1.7573,1.7632,1.7657,1.774,1.7828,1.7862,1.7906,1.7906,1.7872,1.7872,1.7872,1.7837,1.7906,1.7906,1.7759,1.7647,1.7769,1.7837,1.7974,1.7974,1.794,1.7906,1.7872,1.7837,1.7803,1.7759,1.7691,1.7588,1.7417,1.727,1.7166,1.7038,1.6968,1.6943,1.6908,1.6908,1.6881,1.6817,1.6853,1.6862,1.6496,1.6184,1.623,1.6306,1.645,1.6594,1.6949,1.9791,2.0139,2.0464,2.0625,2.0743,2.0839,2.0967,2.1126,2.1242,2.1356,2.1388,2.1388,2.1431,2.1474,2.1506,2.1506,2.1537,2.1667,2.1667,2.1506,2.14,2.1348,2.1285,2.1265,2.1201,2.1201,2.1201,2.1201,2.1201,2.1201,2.1201,2.1201,2.1201,2.1201,2.1201,2.1169,2.1063,2.0818,2.0701,2.054,2.0248,2.0151,2.0118,2.0118,2.0118,1.9944,1.9638,1.9615,1.9218,1.8617,1.8482,1.8154,1.7642,1.7495,1.7298,1.7012,1.6908,1.6908,1.6908,1.6968,1.7003,1.7072,1.7176,1.7289,1.7279,1.7436,1.747,1.7461,1.7426,1.7495,1.7564,1.7554,1.7632,1.7632,1.7642,1.7642,1.7642,1.7642,1.7632,1.7608,1.7676,1.7666,1.7564,1.7451,1.7495,1.7573,1.7632,1.7701,1.7666,1.7632,1.7598,1.7642,1.7608,1.7598,1.752,1.7382,1.7314,1.721,1.7072,1.6978,1.6908,1.6908,1.6908,1.6908,1.6908,1.6908,1.6908,1.689,1.6817,1.6679,1.6624,1.6581,1.6679,1.6812,1.7007,1.9933,2.0324,2.0593,2.0818,2.0999,2.0987,2.1094,2.119,2.1305,2.1356,2.1388,2.1388,2.1463,2.1474,2.1506,2.1431,2.1431,2.1517,2.1529,2.1336,2.1305,2.1285,2.1233,2.1201,2.1201,2.1201,2.1201,2.1201,2.1201,2.1201,2.1201,2.1201,2.1201,2.1201,2.1201,2.1094,2.0978,2.0733,2.0637,2.041,2.0216,2.0118,2.0118,2.0118,2.0085,1.9944,1.9714,1.9473,1.9241,1.8717,1.8414,1.8187,1.7701,1.747,1.7298,1.7047,1.6908,1.6908,1.6908,1.6908,1.6943,1.6943,1.7038,1.7072,1.7107,1.7176,1.722,1.7254,1.7323,1.7358,1.7392,1.7392,1.7426,1.7436,1.747,1.747,1.747,1.7505,1.7505,1.747,1.747,1.7436,1.7401,1.7298,1.7254,1.7263,1.7298,1.7358,1.7426,1.7426,1.7426,1.7436,1.7426,1.7382,1.7314,1.721,1.7141,1.7107,1.7003,1.6908,1.6908,1.6908,1.6908,1.6908,1.6908,1.6908,1.6908,1.6881,1.6835,1.6835,1.6835,1.6853,1.6908,1.6978,1.7047,2.0205,2.0669,2.0701,2.0882,2.1169,2.1169,2.1201,2.1201,2.1221,2.1273,2.1388,2.1388,2.1463,2.1624,2.1655,2.1517,2.14,2.14,2.1305,2.1253,2.1233,2.1201,2.1201,2.1201,2.1201,2.1201,2.1201,2.1201,2.1201,2.1201,2.1201,2.1201,2.1201,2.1201,2.1169,2.101,2.085,2.0701,2.054,2.0346,2.0151,2.0118,2.0118,2.0118,2.0085,1.9911,1.9714,1.955,1.9152,1.8751,1.8482,1.8086,1.7779,1.7539,1.7263,1.7047,1.6908,1.6908,1.6908,1.6908,1.6908,1.6908,1.6908,1.6908,1.6943,1.6968,1.7047,1.7047,1.7047,1.7107,1.7166,1.721,1.7245,1.7323,1.7401,1.7401,1.7401,1.7401,1.7401,1.7401,1.7401,1.7332,1.7185,1.7116,1.7081,1.7081,1.7116,1.7185,1.7254,1.7323,1.7323,1.7323,1.7279,1.7201,1.7132,1.7038,1.7038,1.7003,1.6978,1.6908,1.6908,1.6908,1.6908,1.6908,1.6908,1.6908,1.6908,1.6908,1.6899,1.6908,1.6908,1.6908,1.6908,1.6908,1.6978,2.0205,2.0701,2.0701,2.0882,2.1169,2.1201,2.1201,2.1201,2.1305,2.1388,2.1388,2.1388,2.1431,2.1463,2.138,2.1316,2.1285,2.1265,2.1253,2.1201,2.1201,2.1201,2.1201,2.1201,2.1201,2.1201,2.1201,2.1201,2.1201,2.1201,2.1201,2.1201,2.1201,2.1201,2.1106,2.0914,2.0797,2.0669,2.0475,2.0281,2.0151,2.0118,2.0118,2.0118,2.0118,1.9911,1.9714,1.9605,1.9208,1.8684,1.8516,1.8202,1.7725,1.7564,1.7332,1.6978,1.6908,1.6908,1.6908,1.6908,1.6908,1.6908,1.6908,1.6908,1.6908,1.6908,1.6908,1.6908,1.6908,1.7003,1.7038,1.7072,1.7072,1.7151,1.7185,1.7185,1.7185,1.7185,1.7185,1.7194,1.7194,1.716,1.7012,1.7012,1.6978,1.6943,1.6943,1.7012,1.7047,1.7151,1.7185,1.7185,1.7151,1.7072,1.7003,1.6978,1.6943,1.6908,1.6908,1.6908,1.6908,1.6908,1.6908,1.6908,1.6908,1.6908,1.6908,1.6908,1.6908,1.6908,1.6908,1.6908,1.6908,1.6908,1.7012,2.0335,2.0701,2.0765,2.0946,2.1169,2.1201,2.1201,2.1233,2.1273,2.1336,2.1348,2.1305,2.1336,2.1305,2.1253,2.1233,2.1233,2.1233,2.1201,2.1201,2.1201,2.1201,2.1201,2.1201,2.1201,2.1201,2.1201,2.1201,2.1201,2.1201,2.1201,2.1201,2.1201,2.1201,2.1106,2.0894,2.0733,2.0604,2.0443,2.0248,2.0151,2.0118,2.0118,2.0118,2.0118,1.9944,1.9736,1.9671,1.9274,1.8785,1.864,1.8303,1.7828,1.7564,1.7289,1.6978,1.6908,1.6908,1.6908,1.6908,1.6908,1.6908,1.6908,1.6908,1.6908,1.6908,1.6908,1.6908,1.6908,1.6908,1.6908,1.6908,1.6908,1.6908,1.6908,1.6908,1.6908,1.6908,1.6943,1.6943,1.6943,1.6943,1.6908,1.6908,1.6908,1.6908,1.6908,1.6943,1.6978,1.6978,1.7012,1.7012,1.6978,1.6943,1.6908,1.6908,1.6908,1.6908,1.6908,1.6908,1.6908,1.6908,1.6908,1.6908,1.6908,1.6908,1.6908,1.6908,1.6908,1.6908,1.6908,1.6908,1.6908,1.6908,1.7081,2.0508,2.0701,2.0839,2.1031,2.1201,2.1201,2.1201,2.1201,2.1201,2.1201,2.1201,2.1201,2.119,2.1233,2.1201,2.1201,2.1201,2.1201,2.1201,2.1201,2.1201,2.1201,2.1201,2.1201,2.1201,2.1201,2.1201,2.1201,2.1201,2.1201,2.1201,2.1201,2.1201,2.1201,2.1074,2.0862,2.0669,2.0572,2.0346,2.0118,2.0118,2.0118,2.0118,2.0118,2.0085,2.0009,1.9878,1.9671,1.9429,1.9065,1.8707,1.8347,1.7872,1.7564,1.721,1.7003,1.6908,1.6908,1.6908,1.6908,1.6908,1.6908,1.6908,1.6908,1.6908,1.6908,1.6908,1.6908,1.6908,1.6908,1.6908,1.6908,1.6908,1.6908,1.6908,1.6908,1.6908,1.6908,1.6908,1.6908,1.6908,1.6908,1.6908,1.6908,1.6908,1.6908,1.6908,1.6908,1.6908,1.6908,1.6908,1.6908,1.6908,1.6908,1.6908,1.6908,1.6908,1.6908,1.6908,1.6908,1.6908,1.6908,1.6908,1.6908,1.6908,1.6908,1.6908,1.6908,1.6908,1.6908,1.6908,1.6908,1.6908,1.6908,1.7116,2.0508,2.0733,2.101,2.1169,2.1201,2.1201,2.1201,2.1201,2.1201,2.1201,2.1201,2.1201,2.1201,2.1201,2.1201,2.1201,2.1201,2.1201,2.1201,2.1201,2.1201,2.1201,2.1201,2.1201,2.1201,2.1201,2.1201,2.1201,2.1201,2.1201,2.1201,2.1201,2.1201,2.1169,2.0999,2.0754,2.0637,2.0508,2.0281,2.0118,2.0118,2.0118,2.0118,2.0118,2.0085,2.0042,1.9911,1.9714,1.9407,1.9108,1.8707,1.8212,1.7632,1.7495,1.7254,1.6978,1.6908,1.6908,1.6908,1.6908,1.6908,1.6908,1.6908,1.6908,1.6908,1.6908,1.6908,1.6908,1.6908,1.6908,1.6908,1.6908,1.6908,1.6908,1.6908,1.6908,1.6908,1.6908,1.6908,1.6908,1.6908,1.6908,1.6908,1.6908,1.6908,1.6908,1.6908,1.6908,1.6908,1.6908,1.6908,1.6908,1.6908,1.6908,1.6908,1.6908,1.6908,1.6908,1.6908,1.6908,1.6908,1.6908,1.6908,1.6908,1.6908,1.6908,1.6908,1.6908,1.6908,1.6908,1.6908,1.6908,1.6908,1.6908,1.7151,2.0508,2.0733,2.1042,2.1201,2.1201,2.1201,2.1201,2.1201,2.1201,2.1201,2.1201,2.1201,2.1201,2.1201,2.1201,2.1201,2.1201,2.1201,2.1201,2.1201,2.1201,2.1201,2.1201,2.1201,2.1201,2.1201,2.1201,2.1201,2.1201,2.1201,2.1201,2.1201,2.1201,2.1094,2.0903,2.0754,2.0604,2.041,2.0216,2.0118,2.0118,2.0118,2.0118,2.0118,2.0085,2.0042,1.9944,1.9747,1.9517,1.9208,1.8818,1.8236,1.7759,1.7539,1.7358,1.7116,1.6978,1.6908,1.6908,1.6908,1.6908,1.6908,1.6908,1.6908,1.6908,1.6908,1.6908,1.6908,1.6908,1.6908,1.6908,1.6908,1.6908,1.6908,1.6908,1.6908,1.6908,1.6908,1.6908,1.6908,1.6908,1.6908,1.6908,1.6908,1.6908,1.6908,1.6908,1.6908,1.6908,1.6908,1.6908,1.6908,1.6908,1.6908,1.6908,1.6908,1.6908,1.6908,1.6908,1.6908,1.6908,1.6908,1.6908,1.6908,1.6908,1.6908,1.6908,1.6908,1.6908,1.6908,1.6908,1.6908,1.6908,1.6908,1.7116,2.054,2.0765,2.1074,2.1201,2.1201,2.1201,2.1201,2.1201,2.1201,2.1201,2.1201,2.1201,2.1201,2.1201,2.1201,2.1201,2.1201,2.1201,2.1201,2.1201,2.1201,2.1201,2.1201,2.1201,2.1201,2.1201,2.1201,2.1201,2.1201,2.1201,2.1201,2.119,2.1126,2.1074,2.0882,2.0701,2.0551,2.0346,2.0183,2.0118,2.0118,2.0118,2.0118,2.0118,2.0118,2.0118,2.002,1.9846,1.9648,1.9318,1.8885,1.8269,1.7818,1.7564,1.7382,1.7176,1.6978,1.6943,1.6908,1.6908,1.6908,1.6908,1.6908,1.6908,1.6908,1.6908,1.6908,1.6908,1.6908,1.6908,1.6908,1.6908,1.6908,1.6908,1.6908,1.6908,1.6908,1.6908,1.6908,1.6908,1.6908,1.6908,1.6908,1.6908,1.6908,1.6908,1.6908,1.6908,1.6908,1.6908,1.6908,1.6908,1.6908,1.6908,1.6908,1.6908,1.6908,1.6908,1.6908,1.6908,1.6908,1.6908,1.6908,1.6908,1.6908,1.6908,1.6908,1.6908,1.6908,1.6908,1.6908,1.6908,1.6908,1.6943,1.7116,2.0561,2.0871,2.1094,2.1201,2.1201,2.1201,2.1201,2.1201,2.1201,2.1201,2.1201,2.1201,2.1201,2.1201,2.1201,2.1201,2.1201,2.1201,2.1201,2.1201,2.1201,2.1201,2.1201,2.1201,2.1201,2.1201,2.1201,2.1201,2.1138,2.1169,2.1094,2.0967,2.0967,2.0807,2.0529,2.0443,2.041,2.0248,2.0183,2.0118,2.0118,2.0118,2.0118,2.0118,2.0118,2.0118,2.002,1.978,1.9648,1.9384,1.8908,1.8303,1.7862,1.7588,1.7417,1.7245,1.7047,1.6943,1.6908,1.6908,1.6908,1.6908,1.6908,1.6908,1.6908,1.6908,1.6908,1.6908,1.6908,1.6908,1.6908,1.6908,1.6908,1.6908,1.6908,1.6908,1.6908,1.6908,1.6908,1.6908,1.6908,1.6908,1.6908,1.6908,1.6908,1.6908,1.6908,1.6908,1.6908,1.6908,1.6908,1.6908,1.6908,1.6908,1.6908,1.6908,1.6908,1.6908,1.6908,1.6908,1.6908,1.6908,1.6908,1.6908,1.6908,1.6908,1.6908,1.6908,1.6908,1.6908,1.6908,1.6908,1.6908,1.6943,1.7081]}]]